Wetterdaten: Sonntag, 24.02.2019
Datum Zeit Temp. A. Pool Temp. Temp. 5cm Feuchte A. Luftdruck Regen Wind Richtung Richtung Sonnenschein ET UV Solar Taupunkt Windchill Windben Empfang
24.02.2019 00:00 -2,5 C 5,6 C -4,4 C 65 % 1040,4 hPa 0,0 l/m 7,0 km/h (2 Bft) O-NO 58 0 min 0,000 mm 0,0 UV-I 0 W/m -8,2 C -3,2 C 11,3 km/h (2 Bft) 97,87 %
24.02.2019 00:02 -2,6 C 5,6 C -4,4 C 66 % 1040,4 hPa 0,0 l/m 8,3 km/h (2 Bft) O-SO 103 0 min 0,000 mm 0,0 UV-I 0 W/m -8,1 C -4,7 C 12,9 km/h (3 Bft) 97,30 %
24.02.2019 00:04 -2,7 C 5,6 C -4,4 C 67 % 1040,4 hPa 0,0 l/m 7,4 km/h (2 Bft) O 89 0 min 0,000 mm 0,0 UV-I 0 W/m -8,0 C -3,8 C 11,3 km/h (2 Bft) 97,56 %
24.02.2019 00:06 -2,8 C 5,6 C -5,0 C 68 % 1040,4 hPa 0,0 l/m 6,8 km/h (2 Bft) O 94 0 min 0,000 mm 0,0 UV-I 0 W/m -7,9 C -3,2 C 11,3 km/h (2 Bft) 96,23 %
24.02.2019 00:08 -2,9 C 5,6 C -5,6 C 69 % 1040,4 hPa 0,0 l/m 7,3 km/h (2 Bft) O 91 0 min 0,000 mm 0,0 UV-I 0 W/m -7,8 C -3,9 C 11,3 km/h (2 Bft) 96,23 %
24.02.2019 00:10 -2,9 C 5,6 C -5,6 C 69 % 1040,4 hPa 0,0 l/m 5,9 km/h (2 Bft) O-SO 107 0 min 0,000 mm 0,0 UV-I 0 W/m -7,8 C -2,9 C 9,7 km/h (2 Bft) 97,87 %
24.02.2019 00:12 -3,0 C 5,6 C -5,6 C 69 % 1040,4 hPa 0,0 l/m 5,7 km/h (1 Bft) O 89 0 min 0,000 mm 0,0 UV-I 0 W/m -7,9 C -3,0 C 9,7 km/h (2 Bft) 97,87 %
24.02.2019 00:14 -3,0 C 5,6 C -6,1 C 69 % 1040,4 hPa 0,0 l/m 4,8 km/h (1 Bft) O-NO 78 0 min 0,000 mm 0,0 UV-I 0 W/m -7,9 C -3,0 C 6,4 km/h (2 Bft) 100,00 %
24.02.2019 00:16 -2,9 C 5,6 C -6,1 C 69 % 1040,4 hPa 0,0 l/m 5,2 km/h (1 Bft) O-NO 72 0 min 0,000 mm 0,0 UV-I 0 W/m -7,8 C -2,9 C 6,4 km/h (2 Bft) 98,00 %
24.02.2019 00:18 -2,9 C 5,6 C -6,1 C 68 % 1040,3 hPa 0,0 l/m 4,0 km/h (1 Bft) O 96 0 min 0,000 mm 0,0 UV-I 0 W/m -8,0 C -2,9 C 6,4 km/h (2 Bft) 100,00 %
24.02.2019 00:20 -2,9 C 5,6 C -6,1 C 68 % 1040,3 hPa 0,0 l/m 4,1 km/h (1 Bft) O 84 0 min 0,000 mm 0,0 UV-I 0 W/m -8,0 C -2,9 C 6,4 km/h (2 Bft) 100,00 %
24.02.2019 00:22 -2,9 C 5,6 C -6,7 C 68 % 1040,3 hPa 0,0 l/m 2,8 km/h (1 Bft) O-SO 103 0 min 0,000 mm 0,0 UV-I 0 W/m -8,0 C -2,9 C 4,8 km/h (1 Bft) 98,00 %
24.02.2019 00:24 -3,0 C 5,6 C -6,7 C 69 % 1040,3 hPa 0,0 l/m 2,6 km/h (1 Bft) O-SO 104 0 min 0,000 mm 0,0 UV-I 0 W/m -7,9 C -3,0 C 4,8 km/h (1 Bft) 100,00 %
24.02.2019 00:26 -3,0 C 5,6 C -6,7 C 68 % 1040,2 hPa 0,0 l/m 4,4 km/h (1 Bft) O-SO 113 0 min 0,000 mm 0,0 UV-I 0 W/m -8,1 C -3,0 C 6,4 km/h (2 Bft) 100,00 %
24.02.2019 00:28 -3,0 C 5,6 C -6,7 C 68 % 1040,1 hPa 0,0 l/m 3,6 km/h (1 Bft) O 93 0 min 0,000 mm 0,0 UV-I 0 W/m -8,1 C -3,0 C 6,4 km/h (2 Bft) 100,00 %
24.02.2019 00:30 -2,9 C 5,6 C -6,7 C 67 % 1040,2 hPa 0,0 l/m 2,3 km/h (1 Bft) O 98 0 min 0,000 mm 0,0 UV-I 0 W/m -8,1 C -2,9 C 4,8 km/h (1 Bft) 100,00 %
24.02.2019 00:32 -2,9 C 5,6 C -6,7 C 66 % 1040,1 hPa 0,0 l/m 3,5 km/h (1 Bft) O-SO 107 0 min 0,000 mm 0,0 UV-I 0 W/m -8,3 C -2,9 C 4,8 km/h (1 Bft) 97,37 %
24.02.2019 00:34 -2,9 C 5,6 C -6,7 C 66 % 1040,2 hPa 0,0 l/m 4,2 km/h (1 Bft) O 99 0 min 0,000 mm 0,0 UV-I 0 W/m -8,3 C -2,9 C 6,4 km/h (2 Bft) 100,00 %
24.02.2019 00:36 -3,0 C 5,6 C -6,7 C 67 % 1040,1 hPa 0,0 l/m 3,2 km/h (1 Bft) O-SO 103 0 min 0,000 mm 0,0 UV-I 0 W/m -8,2 C -3,0 C 4,8 km/h (1 Bft) 100,00 %
24.02.2019 00:38 -3,0 C 5,6 C -7,2 C 67 % 1040,1 hPa 0,0 l/m 3,7 km/h (1 Bft) O-SO 106 0 min 0,000 mm 0,0 UV-I 0 W/m -8,2 C -3,0 C 6,4 km/h (2 Bft) 100,00 %
24.02.2019 00:40 -3,0 C 5,6 C -7,2 C 67 % 1040,1 hPa 0,0 l/m 4,9 km/h (1 Bft) O-SO 106 0 min 0,000 mm 0,0 UV-I 0 W/m -8,2 C -3,0 C 6,4 km/h (2 Bft) 100,00 %
24.02.2019 00:42 -3,0 C 5,6 C -7,2 C 67 % 1040,2 hPa 0,0 l/m 5,0 km/h (1 Bft) O 88 0 min 0,000 mm 0,0 UV-I 0 W/m -8,2 C -3,0 C 6,4 km/h (2 Bft) 100,00 %
24.02.2019 00:44 -2,9 C 5,6 C -6,7 C 67 % 1040,2 hPa 0,0 l/m 4,8 km/h (1 Bft) O-NO 74 0 min 0,000 mm 0,0 UV-I 0 W/m -8,1 C -2,9 C 6,4 km/h (2 Bft) 97,87 %
24.02.2019 00:46 -2,9 C 5,6 C -6,1 C 67 % 1040,3 hPa 0,0 l/m 3,7 km/h (1 Bft) O-NO 74 0 min 0,000 mm 0,0 UV-I 0 W/m -8,1 C -2,9 C 4,8 km/h (1 Bft) 100,00 %
24.02.2019 00:48 -3,0 C 5,6 C -6,1 C 68 % 1040,3 hPa 0,0 l/m 4,2 km/h (1 Bft) O-NO 72 0 min 0,000 mm 0,0 UV-I 0 W/m -8,1 C -3,0 C 6,4 km/h (2 Bft) 97,37 %
24.02.2019 00:50 -3,1 C 5,6 C -6,1 C 69 % 1040,2 hPa 0,0 l/m 4,6 km/h (1 Bft) O-NO 59 0 min 0,000 mm 0,0 UV-I 0 W/m -8,0 C -3,1 C 6,4 km/h (2 Bft) 100,00 %
24.02.2019 00:52 -3,2 C 5,6 C -6,7 C 69 % 1040,2 hPa 0,0 l/m 4,7 km/h (1 Bft) O-NO 69 0 min 0,000 mm 0,0 UV-I 0 W/m -8,1 C -3,2 C 6,4 km/h (2 Bft) 100,00 %
24.02.2019 00:54 -3,2 C 5,6 C -6,1 C 69 % 1040,1 hPa 0,0 l/m 4,1 km/h (1 Bft) O 84 0 min 0,000 mm 0,0 UV-I 0 W/m -8,1 C -3,2 C 6,4 km/h (2 Bft) 100,00 %
24.02.2019 00:56 -3,1 C 5,6 C -6,1 C 68 % 1040,1 hPa 0,0 l/m 5,1 km/h (1 Bft) O-NO 72 0 min 0,000 mm 0,0 UV-I 0 W/m -8,1 C -3,1 C 6,4 km/h (2 Bft) 100,00 %
24.02.2019 00:58 -3,1 C 5,6 C -5,6 C 68 % 1040,0 hPa 0,0 l/m 5,9 km/h (2 Bft) O-NO 76 0 min 0,000 mm 0,0 UV-I 0 W/m -8,1 C -3,1 C 8,0 km/h (2 Bft) 100,00 %
24.02.2019 01:00 -3,1 C 5,6 C -5,6 C 68 % 1040,1 hPa 0,0 l/m 5,8 km/h (2 Bft) O-NO 72 0 min 0,025 mm 0,0 UV-I 0 W/m -8,1 C -3,1 C 8,0 km/h (2 Bft) 95,74 %
24.02.2019 01:02 -3,1 C 5,6 C -5,6 C 68 % 1040,1 hPa 0,0 l/m 4,9 km/h (1 Bft) O-NO 57 0 min 0,000 mm 0,0 UV-I 0 W/m -8,1 C -3,1 C 8,0 km/h (2 Bft) 98,00 %
24.02.2019 01:04 -3,1 C 5,6 C -5,6 C 69 % 1040,2 hPa 0,0 l/m 8,1 km/h (2 Bft) O-NO 58 0 min 0,000 mm 0,0 UV-I 0 W/m -8,0 C -5,0 C 9,7 km/h (2 Bft) 97,56 %
24.02.2019 01:06 -3,2 C 5,6 C -5,6 C 70 % 1040,2 hPa 0,0 l/m 8,3 km/h (2 Bft) NO 47 0 min 0,000 mm 0,0 UV-I 0 W/m -7,9 C -5,3 C 11,3 km/h (2 Bft) 98,00 %
24.02.2019 01:08 -3,2 C 5,6 C -5,6 C 70 % 1040,2 hPa 0,0 l/m 8,7 km/h (2 Bft) O-NO 71 0 min 0,000 mm 0,0 UV-I 0 W/m -7,9 C -5,7 C 12,9 km/h (3 Bft) 97,87 %
24.02.2019 01:10 -3,2 C 5,6 C -5,6 C 70 % 1040,1 hPa 0,0 l/m 6,3 km/h (2 Bft) O-NO 57 0 min 0,000 mm 0,0 UV-I 0 W/m -7,9 C -3,2 C 9,7 km/h (2 Bft) 100,00 %
24.02.2019 01:12 -3,2 C 5,6 C -5,0 C 69 % 1040,2 hPa 0,0 l/m 7,5 km/h (2 Bft) O-NO 57 0 min 0,000 mm 0,0 UV-I 0 W/m -8,1 C -4,5 C 11,3 km/h (2 Bft) 95,38 %
24.02.2019 01:14 -3,1 C 5,6 C -5,0 C 69 % 1040,1 hPa 0,0 l/m 5,3 km/h (1 Bft) O 81 0 min 0,000 mm 0,0 UV-I 0 W/m -8,0 C -3,1 C 6,4 km/h (2 Bft) 97,87 %
24.02.2019 01:16 -3,0 C 5,6 C -5,0 C 70 % 1040,2 hPa 0,0 l/m 6,4 km/h (2 Bft) O-NO 70 0 min 0,000 mm 0,0 UV-I 0 W/m -7,7 C -3,0 C 11,3 km/h (2 Bft) 96,36 %
24.02.2019 01:18 -3,1 C 5,6 C -5,0 C 70 % 1040,2 hPa 0,0 l/m 6,7 km/h (2 Bft) O-NO 77 0 min 0,000 mm 0,0 UV-I 0 W/m -7,8 C -3,4 C 12,9 km/h (3 Bft) 97,78 %
24.02.2019 01:20 -3,1 C 5,6 C -5,0 C 70 % 1040,2 hPa 0,0 l/m 6,5 km/h (2 Bft) O 98 0 min 0,000 mm 0,0 UV-I 0 W/m -7,8 C -3,2 C 11,3 km/h (2 Bft) 97,56 %
24.02.2019 01:22 -3,2 C 5,6 C -5,0 C 71 % 1040,2 hPa 0,0 l/m 6,8 km/h (2 Bft) O-NO 67 0 min 0,000 mm 0,0 UV-I 0 W/m -7,7 C -3,6 C 9,7 km/h (2 Bft) 95,74 %
24.02.2019 01:24 -3,2 C 5,6 C -5,0 C 71 % 1040,2 hPa 0,0 l/m 8,1 km/h (2 Bft) O 96 0 min 0,000 mm 0,0 UV-I 0 W/m -7,7 C -5,1 C 11,3 km/h (2 Bft) 98,00 %
24.02.2019 01:26 -3,2 C 5,6 C -5,0 C 71 % 1040,2 hPa 0,0 l/m 8,8 km/h (2 Bft) O-NO 66 0 min 0,000 mm 0,0 UV-I 0 W/m -7,7 C -5,8 C 12,9 km/h (3 Bft) 94,00 %
24.02.2019 01:28 -3,2 C 5,6 C -5,0 C 71 % 1040,2 hPa 0,0 l/m 8,2 km/h (2 Bft) O-NO 71 0 min 0,000 mm 0,0 UV-I 0 W/m -7,7 C -5,2 C 14,5 km/h (3 Bft) 100,00 %
24.02.2019 01:30 -3,2 C 5,6 C -5,0 C 71 % 1040,2 hPa 0,0 l/m 8,2 km/h (2 Bft) O 92 0 min 0,000 mm 0,0 UV-I 0 W/m -7,7 C -5,2 C 12,9 km/h (3 Bft) 100,00 %
24.02.2019 01:32 -3,2 C 5,6 C -5,0 C 71 % 1040,2 hPa 0,0 l/m 9,1 km/h (2 Bft) O-NO 75 0 min 0,000 mm 0,0 UV-I 0 W/m -7,7 C -6,1 C 14,5 km/h (3 Bft) 94,34 %
24.02.2019 01:34 -3,2 C 5,6 C -5,0 C 71 % 1040,3 hPa 0,0 l/m 9,7 km/h (2 Bft) O 90 0 min 0,000 mm 0,0 UV-I 0 W/m -7,7 C -6,7 C 12,9 km/h (3 Bft) 95,74 %
24.02.2019 01:36 -3,2 C 5,6 C -5,0 C 72 % 1040,3 hPa 0,0 l/m 8,3 km/h (2 Bft) O 80 0 min 0,000 mm 0,0 UV-I 0 W/m -7,5 C -5,3 C 12,9 km/h (3 Bft) 94,74 %
24.02.2019 01:38 -3,2 C 5,6 C -5,0 C 72 % 1040,2 hPa 0,0 l/m 10,1 km/h (2 Bft) O 80 0 min 0,000 mm 0,0 UV-I 0 W/m -7,5 C -7,1 C 12,9 km/h (3 Bft) 96,23 %
24.02.2019 01:40 -3,2 C 5,6 C -5,0 C 71 % 1040,2 hPa 0,0 l/m 9,3 km/h (2 Bft) O-NO 69 0 min 0,000 mm 0,0 UV-I 0 W/m -7,7 C -6,3 C 12,9 km/h (3 Bft) 92,68 %
24.02.2019 01:42 -3,2 C 5,6 C -5,0 C 71 % 1040,2 hPa 0,0 l/m 9,7 km/h (2 Bft) O-NO 72 0 min 0,000 mm 0,0 UV-I 0 W/m -7,7 C -6,7 C 12,9 km/h (3 Bft) 96,23 %
24.02.2019 01:44 -3,3 C 5,6 C -5,0 C 72 % 1040,2 hPa 0,0 l/m 8,0 km/h (2 Bft) O 89 0 min 0,000 mm 0,0 UV-I 0 W/m -7,6 C -5,1 C 11,3 km/h (2 Bft) 94,00 %
24.02.2019 01:46 -3,3 C 5,6 C -5,0 C 73 % 1040,1 hPa 0,0 l/m 7,5 km/h (2 Bft) O-SO 107 0 min 0,000 mm 0,0 UV-I 0 W/m -7,4 C -4,6 C 11,3 km/h (2 Bft) 95,12 %
24.02.2019 01:48 -3,4 C 5,6 C -5,0 C 73 % 1040,1 hPa 0,0 l/m 9,5 km/h (2 Bft) O 89 0 min 0,000 mm 0,0 UV-I 0 W/m -7,5 C -6,7 C 12,9 km/h (3 Bft) 94,00 %
24.02.2019 01:50 -3,4 C 5,6 C -5,6 C 73 % 1040,0 hPa 0,0 l/m 6,9 km/h (2 Bft) O-SO 116 0 min 0,000 mm 0,0 UV-I 0 W/m -7,5 C -4,0 C 12,9 km/h (3 Bft) 96,00 %
24.02.2019 01:52 -3,4 C 5,6 C -5,6 C 72 % 1040,0 hPa 0,0 l/m 6,8 km/h (2 Bft) O-SO 109 0 min 0,000 mm 0,0 UV-I 0 W/m -7,7 C -3,8 C 11,3 km/h (2 Bft) 95,45 %
24.02.2019 01:54 -3,3 C 5,6 C -5,6 C 71 % 1040,0 hPa 0,0 l/m 5,5 km/h (1 Bft) O 101 0 min 0,000 mm 0,0 UV-I 0 W/m -7,8 C -3,3 C 9,7 km/h (2 Bft) 95,24 %
24.02.2019 01:56 -3,3 C 5,6 C -5,6 C 71 % 1040,1 hPa 0,0 l/m 7,8 km/h (2 Bft) O-SO 115 0 min 0,000 mm 0,0 UV-I 0 W/m -7,8 C -4,9 C 12,9 km/h (3 Bft) 96,15 %
24.02.2019 01:58 -3,3 C 5,6 C -6,1 C 70 % 1040,1 hPa 0,0 l/m 6,8 km/h (2 Bft) O-SO 105 0 min 0,000 mm 0,0 UV-I 0 W/m -8,0 C -3,7 C 12,9 km/h (3 Bft) 92,86 %
24.02.2019 02:00 -3,3 C 5,6 C -6,1 C 70 % 1040,1 hPa 0,0 l/m 8,0 km/h (2 Bft) O-SO 117 0 min 0,026 mm 0,0 UV-I 0 W/m -8,0 C -5,1 C 14,5 km/h (3 Bft) 96,00 %
24.02.2019 02:02 -3,3 C 5,6 C -6,1 C 70 % 1040,1 hPa 0,0 l/m 6,6 km/h (2 Bft) SO 126 0 min 0,000 mm 0,0 UV-I 0 W/m -8,0 C -3,5 C 11,3 km/h (2 Bft) 95,74 %
24.02.2019 02:04 -3,3 C 5,6 C -5,6 C 70 % 1040,1 hPa 0,0 l/m 6,9 km/h (2 Bft) O 95 0 min 0,000 mm 0,0 UV-I 0 W/m -8,0 C -3,9 C 14,5 km/h (3 Bft) 94,74 %
24.02.2019 02:06 -3,3 C 5,6 C -5,6 C 70 % 1040,1 hPa 0,0 l/m 5,6 km/h (1 Bft) SO 135 0 min 0,000 mm 0,0 UV-I 0 W/m -8,0 C -3,3 C 11,3 km/h (2 Bft) 92,45 %
24.02.2019 02:08 -3,3 C 5,6 C -5,6 C 70 % 1040,2 hPa 0,0 l/m 6,9 km/h (2 Bft) O 87 0 min 0,000 mm 0,0 UV-I 0 W/m -8,0 C -3,9 C 14,5 km/h (3 Bft) 96,00 %
24.02.2019 02:10 -3,3 C 5,6 C -5,6 C 69 % 1040,2 hPa 0,0 l/m 9,2 km/h (2 Bft) O 96 0 min 0,000 mm 0,0 UV-I 0 W/m -8,2 C -6,3 C 12,9 km/h (3 Bft) 97,56 %
24.02.2019 02:12 -3,2 C 5,6 C -5,0 C 69 % 1040,3 hPa 0,0 l/m 11,5 km/h (2 Bft) O-SO 117 0 min 0,000 mm 0,0 UV-I 0 W/m -8,1 C -8,3 C 16,1 km/h (3 Bft) 94,00 %
24.02.2019 02:14 -3,2 C 5,6 C -5,0 C 69 % 1040,3 hPa 0,0 l/m 7,5 km/h (2 Bft) O 97 0 min 0,000 mm 0,0 UV-I 0 W/m -8,1 C -4,5 C 12,9 km/h (3 Bft) 94,34 %
24.02.2019 02:16 -3,2 C 5,6 C -5,0 C 69 % 1040,3 hPa 0,0 l/m 6,8 km/h (2 Bft) O-SO 119 0 min 0,000 mm 0,0 UV-I 0 W/m -8,1 C -3,6 C 11,3 km/h (2 Bft) 97,37 %
24.02.2019 02:18 -3,2 C 5,6 C -5,6 C 69 % 1040,2 hPa 0,0 l/m 5,7 km/h (1 Bft) O-SO 106 0 min 0,000 mm 0,0 UV-I 0 W/m -8,1 C -3,2 C 11,3 km/h (2 Bft) 92,45 %
24.02.2019 02:20 -3,3 C 5,6 C -5,6 C 69 % 1040,2 hPa 0,0 l/m 4,9 km/h (1 Bft) O-SO 119 0 min 0,000 mm 0,0 UV-I 0 W/m -8,2 C -3,3 C 11,3 km/h (2 Bft) 97,56 %
24.02.2019 02:22 -3,4 C 5,6 C -6,1 C 70 % 1040,2 hPa 0,0 l/m 3,0 km/h (1 Bft) SO 134 0 min 0,000 mm 0,0 UV-I 0 W/m -8,1 C -3,4 C 4,8 km/h (1 Bft) 89,36 %
24.02.2019 02:24 -3,4 C 5,6 C -6,1 C 70 % 1040,3 hPa 0,0 l/m 4,1 km/h (1 Bft) O-SO 115 0 min 0,000 mm 0,0 UV-I 0 W/m -8,1 C -3,4 C 4,8 km/h (1 Bft) 96,00 %
24.02.2019 02:26 -3,4 C 5,6 C -6,1 C 70 % 1040,2 hPa 0,0 l/m 3,7 km/h (1 Bft) SO 130 0 min 0,000 mm 0,0 UV-I 0 W/m -8,1 C -3,4 C 4,8 km/h (1 Bft) 95,74 %
24.02.2019 02:28 -3,4 C 5,6 C -6,1 C 71 % 1040,2 hPa 0,0 l/m 4,9 km/h (1 Bft) O-SO 115 0 min 0,000 mm 0,0 UV-I 0 W/m -7,9 C -3,4 C 11,3 km/h (2 Bft) 95,74 %
24.02.2019 02:30 -3,4 C 5,6 C -6,1 C 71 % 1040,1 hPa 0,0 l/m 6,6 km/h (2 Bft) O-SO 117 0 min 0,000 mm 0,0 UV-I 0 W/m -7,9 C -3,6 C 11,3 km/h (2 Bft) 98,00 %
24.02.2019 02:32 -3,4 C 5,6 C -6,1 C 71 % 1040,0 hPa 0,0 l/m 6,4 km/h (2 Bft) SO 130 0 min 0,000 mm 0,0 UV-I 0 W/m -7,9 C -3,3 C 12,9 km/h (3 Bft) 97,87 %
24.02.2019 02:34 -3,4 C 5,6 C -6,1 C 71 % 1040,1 hPa 0,0 l/m 4,8 km/h (1 Bft) O-SO 109 0 min 0,000 mm 0,0 UV-I 0 W/m -7,9 C -3,4 C 8,0 km/h (2 Bft) 95,24 %
24.02.2019 02:36 -3,5 C 5,6 C -6,1 C 71 % 1040,1 hPa 0,0 l/m 3,9 km/h (1 Bft) SO 132 0 min 0,000 mm 0,0 UV-I 0 W/m -8,0 C -3,5 C 6,4 km/h (2 Bft) 97,96 %
24.02.2019 02:38 -3,6 C 5,6 C -6,1 C 71 % 1040,1 hPa 0,0 l/m 3,9 km/h (1 Bft) O-SO 117 0 min 0,000 mm 0,0 UV-I 0 W/m -8,1 C -3,6 C 4,8 km/h (1 Bft) 96,00 %
24.02.2019 02:40 -3,6 C 5,6 C -6,7 C 72 % 1040,1 hPa 0,0 l/m 3,7 km/h (1 Bft) O-SO 121 0 min 0,000 mm 0,0 UV-I 0 W/m -7,9 C -3,6 C 4,8 km/h (1 Bft) 97,22 %
24.02.2019 02:42 -3,7 C 5,6 C -7,2 C 72 % 1040,1 hPa 0,0 l/m 3,0 km/h (1 Bft) O-SO 105 0 min 0,000 mm 0,0 UV-I 0 W/m -8,0 C -3,7 C 6,4 km/h (2 Bft) 98,00 %
24.02.2019 02:44 -3,8 C 5,6 C -7,2 C 72 % 1040,1 hPa 0,0 l/m 3,4 km/h (1 Bft) O 86 0 min 0,000 mm 0,0 UV-I 0 W/m -8,1 C -3,8 C 6,4 km/h (2 Bft) 100,00 %
24.02.2019 02:46 -3,7 C 5,6 C -7,2 C 72 % 1040,2 hPa 0,0 l/m 5,9 km/h (2 Bft) O 84 0 min 0,000 mm 0,0 UV-I 0 W/m -8,0 C -3,7 C 11,3 km/h (2 Bft) 100,00 %
24.02.2019 02:48 -3,7 C 5,6 C -6,7 C 72 % 1040,2 hPa 0,0 l/m 4,6 km/h (1 Bft) O 80 0 min 0,000 mm 0,0 UV-I 0 W/m -8,0 C -3,7 C 6,4 km/h (2 Bft) 100,00 %
24.02.2019 02:50 -3,6 C 5,6 C -6,7 C 72 % 1040,2 hPa 0,0 l/m 4,7 km/h (1 Bft) O 84 0 min 0,000 mm 0,0 UV-I 0 W/m -7,9 C -3,6 C 6,4 km/h (2 Bft) 100,00 %
24.02.2019 02:52 -3,7 C 5,6 C -6,1 C 72 % 1040,2 hPa 0,0 l/m 5,7 km/h (1 Bft) O-NO 76 0 min 0,000 mm 0,0 UV-I 0 W/m -8,0 C -3,7 C 8,0 km/h (2 Bft) 100,00 %
24.02.2019 02:54 -3,7 C 5,6 C -6,1 C 73 % 1040,2 hPa 0,0 l/m 5,5 km/h (1 Bft) O-NO 78 0 min 0,000 mm 0,0 UV-I 0 W/m -7,8 C -3,7 C 9,7 km/h (2 Bft) 98,00 %
24.02.2019 02:56 -3,7 C 5,6 C -6,1 C 73 % 1040,3 hPa 0,0 l/m 6,1 km/h (2 Bft) O 86 0 min 0,000 mm 0,0 UV-I 0 W/m -7,8 C -3,7 C 8,0 km/h (2 Bft) 100,00 %
24.02.2019 02:58 -3,7 C 5,6 C -6,1 C 73 % 1040,4 hPa 0,0 l/m 5,3 km/h (1 Bft) O-NO 62 0 min 0,000 mm 0,0 UV-I 0 W/m -7,8 C -3,7 C 6,4 km/h (2 Bft) 97,87 %
24.02.2019 03:00 -3,8 C 5,6 C -6,1 C 74 % 1040,4 hPa 0,0 l/m 5,0 km/h (1 Bft) NO 49 0 min 0,025 mm 0,0 UV-I 0 W/m -7,7 C -3,8 C 8,0 km/h (2 Bft) 97,87 %
24.02.2019 03:02 -4,0 C 5,6 C -6,1 C 75 % 1040,4 hPa 0,0 l/m 5,1 km/h (1 Bft) NO 56 0 min 0,000 mm 0,0 UV-I 0 W/m -7,8 C -4,0 C 8,0 km/h (2 Bft) 100,00 %
24.02.2019 03:04 -4,1 C 5,6 C -6,1 C 76 % 1040,5 hPa 0,0 l/m 4,9 km/h (1 Bft) NO 53 0 min 0,000 mm 0,0 UV-I 0 W/m -7,7 C -4,1 C 6,4 km/h (2 Bft) 100,00 %
24.02.2019 03:06 -4,1 C 5,6 C -6,7 C 76 % 1040,4 hPa 0,0 l/m 5,2 km/h (1 Bft) O-NO 70 0 min 0,000 mm 0,0 UV-I 0 W/m -7,7 C -4,1 C 6,4 km/h (2 Bft) 97,44 %
24.02.2019 03:08 -4,1 C 5,6 C -6,7 C 76 % 1040,3 hPa 0,0 l/m 5,3 km/h (1 Bft) O 98 0 min 0,000 mm 0,0 UV-I 0 W/m -7,7 C -4,1 C 9,7 km/h (2 Bft) 94,74 %
24.02.2019 03:10 -3,9 C 5,6 C -6,1 C 75 % 1040,3 hPa 0,0 l/m 5,1 km/h (1 Bft) O-NO 70 0 min 0,000 mm 0,0 UV-I 0 W/m -7,7 C -3,9 C 8,0 km/h (2 Bft) 100,00 %
24.02.2019 03:12 -3,9 C 5,6 C -6,1 C 75 % 1040,2 hPa 0,0 l/m 5,0 km/h (1 Bft) O-NO 75 0 min 0,000 mm 0,0 UV-I 0 W/m -7,7 C -3,9 C 8,0 km/h (2 Bft) 100,00 %
24.02.2019 03:14 -3,9 C 5,6 C -6,1 C 75 % 1040,1 hPa 0,0 l/m 4,4 km/h (1 Bft) O 97 0 min 0,000 mm 0,0 UV-I 0 W/m -7,7 C -3,9 C 6,4 km/h (2 Bft) 100,00 %
24.02.2019 03:16 -3,9 C 5,6 C -6,7 C 75 % 1040,1 hPa 0,0 l/m 5,4 km/h (1 Bft) O 101 0 min 0,000 mm 0,0 UV-I 0 W/m -7,7 C -3,9 C 6,4 km/h (2 Bft) 100,00 %
24.02.2019 03:18 -3,9 C 5,6 C -6,7 C 75 % 1040,0 hPa 0,0 l/m 5,3 km/h (1 Bft) O-SO 112 0 min 0,000 mm 0,0 UV-I 0 W/m -7,7 C -3,9 C 6,4 km/h (2 Bft) 94,00 %
24.02.2019 03:20 -4,0 C 5,6 C -7,2 C 75 % 1040,0 hPa 0,0 l/m 4,5 km/h (1 Bft) O 91 0 min 0,000 mm 0,0 UV-I 0 W/m -7,8 C -4,0 C 6,4 km/h (2 Bft) 97,87 %
24.02.2019 03:22 -4,0 C 5,6 C -7,2 C 75 % 1040,0 hPa 0,0 l/m 4,6 km/h (1 Bft) O-NO 75 0 min 0,000 mm 0,0 UV-I 0 W/m -7,8 C -4,0 C 6,4 km/h (2 Bft) 96,00 %
24.02.2019 03:24 -3,9 C 5,6 C -7,2 C 74 % 1040,0 hPa 0,0 l/m 4,1 km/h (1 Bft) O-NO 70 0 min 0,000 mm 0,0 UV-I 0 W/m -7,8 C -3,9 C 6,4 km/h (2 Bft) 96,08 %
24.02.2019 03:26 -3,9 C 5,6 C -6,7 C 74 % 1040,0 hPa 0,0 l/m 4,4 km/h (1 Bft) NO 56 0 min 0,000 mm 0,0 UV-I 0 W/m -7,8 C -3,9 C 8,0 km/h (2 Bft) 97,14 %
24.02.2019 03:28 -4,0 C 5,6 C -6,7 C 75 % 1040,1 hPa 0,0 l/m 5,2 km/h (1 Bft) NO 48 0 min 0,000 mm 0,0 UV-I 0 W/m -7,8 C -4,0 C 8,0 km/h (2 Bft) 96,08 %
24.02.2019 03:30 -4,1 C 5,6 C -6,7 C 75 % 1040,0 hPa 0,0 l/m 6,1 km/h (2 Bft) O-NO 59 0 min 0,000 mm 0,0 UV-I 0 W/m -7,9 C -4,1 C 8,0 km/h (2 Bft) 98,11 %
24.02.2019 03:32 -4,1 C 5,6 C -6,7 C 76 % 1040,0 hPa 0,0 l/m 6,2 km/h (2 Bft) O-NO 60 0 min 0,000 mm 0,0 UV-I 0 W/m -7,7 C -4,1 C 8,0 km/h (2 Bft) 97,56 %
24.02.2019 03:34 -4,2 C 5,6 C -6,7 C 75 % 1040,0 hPa 0,0 l/m 4,6 km/h (1 Bft) O 82 0 min 0,000 mm 0,0 UV-I 0 W/m -8,0 C -4,2 C 6,4 km/h (2 Bft) 94,34 %
24.02.2019 03:36 -4,1 C 5,6 C -6,7 C 75 % 1039,9 hPa 0,0 l/m 5,8 km/h (2 Bft) O-NO 70 0 min 0,000 mm 0,0 UV-I 0 W/m -7,9 C -4,1 C 8,0 km/h (2 Bft) 97,37 %
24.02.2019 03:38 -4,1 C 5,6 C -6,7 C 75 % 1039,9 hPa 0,0 l/m 7,1 km/h (2 Bft) O-NO 63 0 min 0,000 mm 0,0 UV-I 0 W/m -7,9 C -4,9 C 9,7 km/h (2 Bft) 100,00 %
24.02.2019 03:40 -4,0 C 5,6 C -6,1 C 75 % 1039,9 hPa 0,0 l/m 6,4 km/h (2 Bft) O-NO 71 0 min 0,000 mm 0,0 UV-I 0 W/m -7,8 C -3,9 C 8,0 km/h (2 Bft) 97,87 %
24.02.2019 03:42 -4,0 C 5,6 C -6,7 C 74 % 1039,9 hPa 0,0 l/m 4,5 km/h (1 Bft) O-NO 68 0 min 0,000 mm 0,0 UV-I 0 W/m -7,9 C -4,0 C 6,4 km/h (2 Bft) 97,87 %
24.02.2019 03:44 -4,0 C 5,6 C -6,1 C 74 % 1039,9 hPa 0,0 l/m 4,4 km/h (1 Bft) O-NO 75 0 min 0,000 mm 0,0 UV-I 0 W/m -7,9 C -4,0 C 6,4 km/h (2 Bft) 92,00 %
24.02.2019 03:46 -4,0 C 5,6 C -6,1 C 74 % 1039,9 hPa 0,0 l/m 5,4 km/h (1 Bft) O-NO 65 0 min 0,000 mm 0,0 UV-I 0 W/m -7,9 C -4,0 C 8,0 km/h (2 Bft) 98,00 %
24.02.2019 03:48 -4,1 C 5,6 C -6,7 C 74 % 1039,8 hPa 0,0 l/m 4,2 km/h (1 Bft) O-NO 57 0 min 0,000 mm 0,0 UV-I 0 W/m -8,0 C -4,1 C 6,4 km/h (2 Bft) 95,45 %
24.02.2019 03:50 -4,2 C 5,6 C -6,7 C 75 % 1039,8 hPa 0,0 l/m 5,2 km/h (1 Bft) NO 51 0 min 0,000 mm 0,0 UV-I 0 W/m -8,0 C -4,2 C 6,4 km/h (2 Bft) 95,74 %
24.02.2019 03:52 -4,3 C 5,6 C -6,7 C 76 % 1039,8 hPa 0,0 l/m 4,3 km/h (1 Bft) NO 51 0 min 0,000 mm 0,0 UV-I 0 W/m -7,9 C -4,3 C 6,4 km/h (2 Bft) 98,00 %
24.02.2019 03:54 -4,3 C 5,6 C -6,7 C 76 % 1039,8 hPa 0,0 l/m 5,7 km/h (1 Bft) O-NO 61 0 min 0,000 mm 0,0 UV-I 0 W/m -7,9 C -4,3 C 8,0 km/h (2 Bft) 97,44 %
24.02.2019 03:56 -4,3 C 5,6 C -6,7 C 76 % 1039,8 hPa 0,0 l/m 4,9 km/h (1 Bft) NO 44 0 min 0,000 mm 0,0 UV-I 0 W/m -7,9 C -4,3 C 6,4 km/h (2 Bft) 96,00 %
24.02.2019 03:58 -4,3 C 5,6 C -6,7 C 76 % 1039,8 hPa 0,0 l/m 5,5 km/h (1 Bft) NO 55 0 min 0,000 mm 0,0 UV-I 0 W/m -7,9 C -4,3 C 8,0 km/h (2 Bft) 98,00 %
24.02.2019 04:00 -4,4 C 5,6 C -6,7 C 76 % 1039,8 hPa 0,0 l/m 6,2 km/h (2 Bft) O-NO 63 0 min 0,000 mm 0,0 UV-I 0 W/m -8,0 C -4,4 C 8,0 km/h (2 Bft) 97,73 %
24.02.2019 04:02 -4,4 C 5,6 C -6,7 C 76 % 1039,8 hPa 0,0 l/m 5,3 km/h (1 Bft) O-NO 73 0 min 0,000 mm 0,0 UV-I 0 W/m -8,0 C -4,4 C 8,0 km/h (2 Bft) 96,00 %
24.02.2019 04:04 -4,3 C 5,6 C -6,7 C 76 % 1039,8 hPa 0,0 l/m 5,1 km/h (1 Bft) O 97 0 min 0,000 mm 0,0 UV-I 0 W/m -7,9 C -4,3 C 9,7 km/h (2 Bft) 97,56 %
24.02.2019 04:06 -4,3 C 5,6 C -6,7 C 77 % 1039,8 hPa 0,0 l/m 5,1 km/h (1 Bft) O 94 0 min 0,000 mm 0,0 UV-I 0 W/m -7,7 C -4,3 C 6,4 km/h (2 Bft) 94,64 %
24.02.2019 04:08 -4,4 C 5,6 C -7,2 C 77 % 1039,8 hPa 0,0 l/m 6,2 km/h (2 Bft) O-NO 78 0 min 0,000 mm 0,0 UV-I 0 W/m -7,8 C -4,4 C 9,7 km/h (2 Bft) 92,11 %
24.02.2019 04:10 -4,4 C 5,6 C -6,7 C 77 % 1039,8 hPa 0,0 l/m 6,1 km/h (2 Bft) O-NO 78 0 min 0,000 mm 0,0 UV-I 0 W/m -7,8 C -4,4 C 8,0 km/h (2 Bft) 97,92 %
24.02.2019 04:12 -4,3 C 5,6 C -6,7 C 77 % 1039,8 hPa 0,0 l/m 5,7 km/h (1 Bft) O-NO 78 0 min 0,000 mm 0,0 UV-I 0 W/m -7,7 C -4,3 C 8,0 km/h (2 Bft) 96,00 %
24.02.2019 04:15 -4,3 C 5,6 C -6,7 C 77 % 1039,9 hPa 0,0 l/m 5,1 km/h (1 Bft) O-NO 69 0 min 0,000 mm 0,0 UV-I 0 W/m -7,7 C -4,3 C 8,0 km/h (2 Bft) 95,77 %
24.02.2019 04:16 -4,3 C 5,6 C -6,7 C 77 % 1039,9 hPa 0,0 l/m 3,2 km/h (1 Bft) O-NO 69 0 min 0,000 mm 0,0 UV-I 0 W/m -7,7 C -4,3 C 4,8 km/h (1 Bft) 100,00 %
24.02.2019 04:18 -4,4 C 5,6 C -6,7 C 78 % 1039,9 hPa 0,0 l/m 4,6 km/h (1 Bft) O-NO 69 0 min 0,000 mm 0,0 UV-I 0 W/m -7,6 C -4,4 C 6,4 km/h (2 Bft) 96,00 %
24.02.2019 04:20 -4,5 C 5,6 C -7,2 C 78 % 1039,8 hPa 0,0 l/m 4,9 km/h (1 Bft) O-NO 66 0 min 0,000 mm 0,0 UV-I 0 W/m -7,7 C -4,5 C 8,0 km/h (2 Bft) 91,43 %
24.02.2019 04:22 -4,5 C 5,6 C -6,7 C 78 % 1039,8 hPa 0,0 l/m 5,7 km/h (1 Bft) O 89 0 min 0,000 mm 0,0 UV-I 0 W/m -7,7 C -4,5 C 9,7 km/h (2 Bft) 100,00 %
24.02.2019 04:24 -4,4 C 5,6 C -6,7 C 78 % 1039,8 hPa 0,0 l/m 7,3 km/h (2 Bft) O-NO 77 0 min 0,000 mm 0,0 UV-I 0 W/m -7,6 C -5,5 C 11,3 km/h (2 Bft) 98,00 %
24.02.2019 04:26 -4,4 C 5,6 C -6,7 C 78 % 1039,7 hPa 0,0 l/m 6,4 km/h (2 Bft) O-NO 73 0 min 0,000 mm 0,0 UV-I 0 W/m -7,6 C -4,3 C 8,0 km/h (2 Bft) 95,24 %
24.02.2019 04:28 -4,4 C 5,6 C -6,7 C 78 % 1039,7 hPa 0,0 l/m 6,5 km/h (2 Bft) O 84 0 min 0,000 mm 0,0 UV-I 0 W/m -7,6 C -4,5 C 9,7 km/h (2 Bft) 97,96 %
24.02.2019 04:30 -4,4 C 5,6 C -6,7 C 79 % 1039,7 hPa 0,0 l/m 5,6 km/h (1 Bft) O-NO 65 0 min 0,000 mm 0,0 UV-I 0 W/m -7,5 C -4,4 C 8,0 km/h (2 Bft) 97,92 %
24.02.2019 04:32 -4,5 C 5,6 C -6,7 C 78 % 1039,7 hPa 0,0 l/m 6,2 km/h (2 Bft) O-NO 77 0 min 0,000 mm 0,0 UV-I 0 W/m -7,7 C -4,5 C 9,7 km/h (2 Bft) 94,29 %
24.02.2019 04:34 -4,4 C 5,6 C -6,1 C 78 % 1039,7 hPa 0,0 l/m 6,1 km/h (2 Bft) O-NO 69 0 min 0,000 mm 0,0 UV-I 0 W/m -7,6 C -4,4 C 8,0 km/h (2 Bft) 96,77 %
24.02.2019 04:36 -4,5 C 5,6 C -6,1 C 77 % 1039,8 hPa 0,0 l/m 5,7 km/h (1 Bft) O 83 0 min 0,000 mm 0,0 UV-I 0 W/m -7,9 C -4,5 C 8,0 km/h (2 Bft) 94,74 %
24.02.2019 04:38 -4,5 C 5,6 C -6,7 C 77 % 1039,9 hPa 0,0 l/m 4,3 km/h (1 Bft) O-NO 72 0 min 0,000 mm 0,0 UV-I 0 W/m -7,9 C -4,5 C 6,4 km/h (2 Bft) 94,00 %
24.02.2019 04:40 -4,4 C 5,6 C -6,1 C 77 % 1040,0 hPa 0,0 l/m 4,6 km/h (1 Bft) O-NO 71 0 min 0,000 mm 0,0 UV-I 0 W/m -7,8 C -4,4 C 6,4 km/h (2 Bft) 94,00 %
24.02.2019 04:42 -4,4 C 5,6 C -6,1 C 77 % 1040,0 hPa 0,0 l/m 4,8 km/h (1 Bft) O-NO 63 0 min 0,000 mm 0,0 UV-I 0 W/m -7,8 C -4,4 C 8,0 km/h (2 Bft) 96,00 %
24.02.2019 04:44 -4,4 C 5,6 C -6,7 C 77 % 1040,0 hPa 0,0 l/m 6,0 km/h (2 Bft) O 80 0 min 0,000 mm 0,0 UV-I 0 W/m -7,8 C -4,4 C 11,3 km/h (2 Bft) 100,00 %
24.02.2019 04:46 -4,4 C 5,6 C -6,7 C 77 % 1040,0 hPa 0,0 l/m 7,0 km/h (2 Bft) O-NO 78 0 min 0,000 mm 0,0 UV-I 0 W/m -7,8 C -5,1 C 11,3 km/h (2 Bft) 100,00 %
24.02.2019 04:48 -4,4 C 5,6 C -6,1 C 77 % 1040,0 hPa 0,0 l/m 5,8 km/h (2 Bft) O 82 0 min 0,000 mm 0,0 UV-I 0 W/m -7,8 C -4,4 C 8,0 km/h (2 Bft) 97,87 %
24.02.2019 04:50 -4,3 C 5,6 C -6,1 C 77 % 1040,0 hPa 0,0 l/m 6,1 km/h (2 Bft) O 79 0 min 0,000 mm 0,0 UV-I 0 W/m -7,7 C -4,3 C 9,7 km/h (2 Bft) 100,00 %
24.02.2019 04:52 -4,3 C 5,6 C -6,1 C 76 % 1040,0 hPa 0,0 l/m 6,1 km/h (2 Bft) O-NO 64 0 min 0,000 mm 0,0 UV-I 0 W/m -7,9 C -4,3 C 8,0 km/h (2 Bft) 98,00 %
24.02.2019 04:54 -4,3 C 5,6 C -6,1 C 76 % 1039,9 hPa 0,0 l/m 6,8 km/h (2 Bft) O 84 0 min 0,000 mm 0,0 UV-I 0 W/m -7,9 C -4,8 C 11,3 km/h (2 Bft) 100,00 %
24.02.2019 04:56 -4,3 C 5,6 C -6,1 C 76 % 1039,8 hPa 0,0 l/m 8,6 km/h (2 Bft) O 91 0 min 0,000 mm 0,0 UV-I 0 W/m -7,9 C -6,8 C 12,9 km/h (3 Bft) 97,37 %
24.02.2019 04:58 -4,3 C 5,6 C -6,1 C 77 % 1039,8 hPa 0,0 l/m 7,2 km/h (2 Bft) O 87 0 min 0,000 mm 0,0 UV-I 0 W/m -7,7 C -5,2 C 11,3 km/h (2 Bft) 97,87 %
24.02.2019 05:00 -4,3 C 5,6 C -6,7 C 76 % 1039,9 hPa 0,0 l/m 5,5 km/h (1 Bft) O 96 0 min 0,000 mm 0,0 UV-I 0 W/m -7,9 C -4,3 C 8,0 km/h (2 Bft) 98,00 %
24.02.2019 05:02 -4,3 C 5,6 C -6,7 C 76 % 1039,8 hPa 0,0 l/m 7,0 km/h (2 Bft) O-NO 64 0 min 0,000 mm 0,0 UV-I 0 W/m -7,9 C -5,0 C 11,3 km/h (2 Bft) 95,74 %
24.02.2019 05:04 -4,3 C 5,6 C -6,1 C 76 % 1039,8 hPa 0,0 l/m 6,8 km/h (2 Bft) O-NO 74 0 min 0,000 mm 0,0 UV-I 0 W/m -7,9 C -4,8 C 11,3 km/h (2 Bft) 97,87 %
24.02.2019 05:06 -4,3 C 5,6 C -6,1 C 76 % 1039,9 hPa 0,0 l/m 5,7 km/h (1 Bft) O-NO 78 0 min 0,000 mm 0,0 UV-I 0 W/m -7,9 C -4,3 C 11,3 km/h (2 Bft) 96,00 %
24.02.2019 05:08 -4,4 C 5,6 C -6,1 C 76 % 1039,9 hPa 0,0 l/m 4,8 km/h (1 Bft) O-NO 65 0 min 0,000 mm 0,0 UV-I 0 W/m -8,0 C -4,4 C 6,4 km/h (2 Bft) 100,00 %
24.02.2019 05:10 -4,4 C 5,6 C -6,7 C 77 % 1039,8 hPa 0,0 l/m 6,0 km/h (2 Bft) O-NO 58 0 min 0,000 mm 0,0 UV-I 0 W/m -7,8 C -4,4 C 8,0 km/h (2 Bft) 96,43 %
24.02.2019 05:12 -4,5 C 5,6 C -6,7 C 77 % 1039,9 hPa 0,0 l/m 6,7 km/h (2 Bft) NO 50 0 min 0,000 mm 0,0 UV-I 0 W/m -7,9 C -4,8 C 8,0 km/h (2 Bft) 98,00 %
24.02.2019 05:14 -4,6 C 5,6 C -6,7 C 77 % 1039,8 hPa 0,0 l/m 6,1 km/h (2 Bft) NO 55 0 min 0,000 mm 0,0 UV-I 0 W/m -8,0 C -4,6 C 9,7 km/h (2 Bft) 98,00 %
24.02.2019 05:16 -4,6 C 5,6 C -6,7 C 77 % 1039,8 hPa 0,0 l/m 4,0 km/h (1 Bft) O-NO 58 0 min 0,000 mm 0,0 UV-I 0 W/m -8,0 C -4,6 C 8,0 km/h (2 Bft) 97,37 %
24.02.2019 05:18 -4,6 C 5,6 C -6,7 C 77 % 1039,9 hPa 0,0 l/m 4,0 km/h (1 Bft) NO 44 0 min 0,000 mm 0,0 UV-I 0 W/m -8,0 C -4,6 C 8,0 km/h (2 Bft) 98,00 %
24.02.2019 05:20 -4,5 C 5,6 C -6,7 C 77 % 1039,9 hPa 0,0 l/m 3,7 km/h (1 Bft) O-NO 62 0 min 0,000 mm 0,0 UV-I 0 W/m -7,9 C -4,5 C 6,4 km/h (2 Bft) 97,37 %
24.02.2019 05:22 -4,4 C 5,6 C -6,7 C 76 % 1039,8 hPa 0,0 l/m 4,7 km/h (1 Bft) O 82 0 min 0,000 mm 0,0 UV-I 0 W/m -8,0 C -4,4 C 6,4 km/h (2 Bft) 98,11 %
24.02.2019 05:24 -4,3 C 5,6 C -6,7 C 76 % 1039,7 hPa 0,0 l/m 4,7 km/h (1 Bft) O 101 0 min 0,000 mm 0,0 UV-I 0 W/m -7,9 C -4,3 C 6,4 km/h (2 Bft) 97,87 %
24.02.2019 05:26 -4,4 C 5,6 C -7,2 C 76 % 1039,7 hPa 0,0 l/m 4,8 km/h (1 Bft) O-SO 111 0 min 0,000 mm 0,0 UV-I 0 W/m -8,0 C -4,4 C 6,4 km/h (2 Bft) 98,00 %
24.02.2019 05:28 -4,4 C 5,6 C -7,8 C 77 % 1039,7 hPa 0,0 l/m 3,5 km/h (1 Bft) O-SO 120 0 min 0,000 mm 0,0 UV-I 0 W/m -7,8 C -4,4 C 4,8 km/h (1 Bft) 95,74 %
24.02.2019 05:30 -4,5 C 5,6 C -7,8 C 77 % 1039,7 hPa 0,0 l/m 6,6 km/h (2 Bft) O-SO 121 0 min 0,000 mm 0,0 UV-I 0 W/m -7,9 C -4,7 C 11,3 km/h (2 Bft) 96,00 %
24.02.2019 05:32 -4,5 C 5,6 C -7,8 C 77 % 1039,7 hPa 0,0 l/m 4,7 km/h (1 Bft) O-SO 107 0 min 0,000 mm 0,0 UV-I 0 W/m -7,9 C -4,5 C 9,7 km/h (2 Bft) 94,74 %
24.02.2019 05:34 -4,4 C 5,6 C -7,8 C 76 % 1039,8 hPa 0,0 l/m 6,9 km/h (2 Bft) O-SO 114 0 min 0,000 mm 0,0 UV-I 0 W/m -8,0 C -5,0 C 11,3 km/h (2 Bft) 98,00 %
24.02.2019 05:36 -4,3 C 5,6 C -7,2 C 75 % 1039,8 hPa 0,0 l/m 5,7 km/h (1 Bft) O 82 0 min 0,000 mm 0,0 UV-I 0 W/m -8,0 C -4,3 C 9,7 km/h (2 Bft) 94,00 %
24.02.2019 05:38 -4,3 C 5,6 C -7,2 C 75 % 1039,8 hPa 0,0 l/m 6,2 km/h (2 Bft) O 85 0 min 0,000 mm 0,0 UV-I 0 W/m -8,0 C -4,3 C 11,3 km/h (2 Bft) 92,68 %
24.02.2019 05:40 -4,3 C 5,6 C -6,7 C 75 % 1039,8 hPa 0,0 l/m 6,5 km/h (2 Bft) O 95 0 min 0,000 mm 0,0 UV-I 0 W/m -8,0 C -4,4 C 11,3 km/h (2 Bft) 96,00 %
24.02.2019 05:42 -4,4 C 5,6 C -6,7 C 75 % 1039,8 hPa 0,0 l/m 6,9 km/h (2 Bft) O 84 0 min 0,000 mm 0,0 UV-I 0 W/m -8,1 C -5,0 C 11,3 km/h (2 Bft) 95,74 %
24.02.2019 05:44 -4,4 C 5,6 C -7,2 C 75 % 1039,8 hPa 0,0 l/m 3,9 km/h (1 Bft) O-SO 107 0 min 0,000 mm 0,0 UV-I 0 W/m -8,1 C -4,4 C 6,4 km/h (2 Bft) 94,00 %
24.02.2019 05:46 -4,4 C 5,6 C -7,2 C 75 % 1039,8 hPa 0,0 l/m 4,7 km/h (1 Bft) O 87 0 min 0,000 mm 0,0 UV-I 0 W/m -8,1 C -4,4 C 11,3 km/h (2 Bft) 97,56 %
24.02.2019 05:48 -4,4 C 5,6 C -7,2 C 75 % 1039,7 hPa 0,0 l/m 4,2 km/h (1 Bft) O 100 0 min 0,000 mm 0,0 UV-I 0 W/m -8,1 C -4,4 C 6,4 km/h (2 Bft) 95,83 %
24.02.2019 05:50 -4,4 C 5,6 C -7,8 C 75 % 1039,8 hPa 0,0 l/m 5,3 km/h (1 Bft) O 92 0 min 0,000 mm 0,0 UV-I 0 W/m -8,1 C -4,4 C 9,7 km/h (2 Bft) 98,08 %
24.02.2019 05:52 -4,4 C 5,6 C -7,2 C 75 % 1039,8 hPa 0,0 l/m 4,3 km/h (1 Bft) O 96 0 min 0,000 mm 0,0 UV-I 0 W/m -8,1 C -4,4 C 6,4 km/h (2 Bft) 92,59 %
24.02.2019 05:54 -4,4 C 5,6 C -7,2 C 75 % 1039,8 hPa 0,0 l/m 4,5 km/h (1 Bft) O 94 0 min 0,000 mm 0,0 UV-I 0 W/m -8,1 C -4,4 C 6,4 km/h (2 Bft) 100,00 %
24.02.2019 05:56 -4,4 C 5,6 C -7,2 C 74 % 1039,7 hPa 0,0 l/m 3,9 km/h (1 Bft) O 92 0 min 0,000 mm 0,0 UV-I 0 W/m -8,3 C -4,4 C 4,8 km/h (1 Bft) 97,37 %
24.02.2019 05:58 -4,3 C 5,6 C -7,2 C 74 % 1039,7 hPa 0,0 l/m 2,5 km/h (1 Bft) O-SO 105 0 min 0,000 mm 0,0 UV-I 0 W/m -8,2 C -4,3 C 4,8 km/h (1 Bft) 95,92 %
24.02.2019 06:00 -4,4 C 5,6 C -7,2 C 74 % 1039,7 hPa 0,0 l/m 2,7 km/h (1 Bft) O-SO 123 0 min 0,000 mm 0,0 UV-I 0 W/m -8,3 C -4,4 C 4,8 km/h (1 Bft) 97,87 %
24.02.2019 06:02 -4,6 C 5,6 C -7,8 C 75 % 1039,7 hPa 0,0 l/m 1,0 km/h (0 Bft) O-SO 123 0 min 0,000 mm 0,0 UV-I 0 W/m -8,3 C -4,6 C 1,6 km/h (1 Bft) 98,11 %
24.02.2019 06:04 -4,7 C 5,6 C -7,8 C 75 % 1039,7 hPa 0,0 l/m 1,7 km/h (1 Bft) O-SO 123 0 min 0,000 mm 0,0 UV-I 0 W/m -8,4 C -4,7 C 4,8 km/h (1 Bft) 97,56 %
24.02.2019 06:06 -4,8 C 5,6 C -7,8 C 75 % 1039,7 hPa 0,0 l/m 3,0 km/h (1 Bft) O-SO 107 0 min 0,000 mm 0,0 UV-I 0 W/m -8,5 C -4,8 C 6,4 km/h (2 Bft) 92,00 %
24.02.2019 06:08 -4,8 C 5,6 C -7,8 C 76 % 1039,7 hPa 0,0 l/m 2,9 km/h (1 Bft) O-SO 121 0 min 0,000 mm 0,0 UV-I 0 W/m -8,4 C -4,8 C 4,8 km/h (1 Bft) 95,65 %
24.02.2019 06:10 -4,8 C 5,6 C -7,8 C 76 % 1039,7 hPa 0,0 l/m 3,9 km/h (1 Bft) SO 139 0 min 0,000 mm 0,0 UV-I 0 W/m -8,4 C -4,8 C 6,4 km/h (2 Bft) 95,45 %
24.02.2019 06:12 -4,9 C 5,6 C -7,8 C 77 % 1039,6 hPa 0,0 l/m 4,6 km/h (1 Bft) O 90 0 min 0,000 mm 0,0 UV-I 0 W/m -8,3 C -4,9 C 6,4 km/h (2 Bft) 97,87 %
24.02.2019 06:14 -4,8 C 5,6 C -7,8 C 77 % 1039,6 hPa 0,0 l/m 5,4 km/h (1 Bft) SO 134 0 min 0,000 mm 0,0 UV-I 0 W/m -8,2 C -4,8 C 6,4 km/h (2 Bft) 98,00 %
24.02.2019 06:16 -4,8 C 5,6 C -7,8 C 77 % 1039,5 hPa 0,0 l/m 2,0 km/h (1 Bft) O-SO 105 0 min 0,000 mm 0,0 UV-I 0 W/m -8,2 C -4,8 C 4,8 km/h (1 Bft) 98,00 %
24.02.2019 06:18 -4,8 C 5,6 C -7,8 C 76 % 1039,6 hPa 0,0 l/m 2,1 km/h (1 Bft) O 91 0 min 0,000 mm 0,0 UV-I 0 W/m -8,4 C -4,8 C 6,4 km/h (2 Bft) 93,33 %
24.02.2019 06:20 -4,9 C 5,6 C -8,3 C 77 % 1039,7 hPa 0,0 l/m 0,4 km/h (0 Bft) O 91 0 min 0,000 mm 0,0 UV-I 0 W/m -8,3 C -4,9 C 3,2 km/h (1 Bft) 97,47 %
24.02.2019 06:22 -4,8 C 5,6 C -7,8 C 76 % 1039,7 hPa 0,0 l/m 2,0 km/h (1 Bft) O 91 0 min 0,000 mm 0,0 UV-I 0 W/m -8,4 C -4,8 C 3,2 km/h (1 Bft) 95,74 %
24.02.2019 06:24 -4,8 C 5,6 C -7,8 C 76 % 1039,7 hPa 0,0 l/m 0,7 km/h (0 Bft) O 91 0 min 0,000 mm 0,0 UV-I 0 W/m -8,4 C -4,8 C 1,6 km/h (1 Bft) 100,00 %
24.02.2019 06:26 -4,9 C 5,6 C -7,8 C 79 % 1039,6 hPa 0,0 l/m 1,0 km/h (0 Bft) O 91 0 min 0,000 mm 0,0 UV-I 0 W/m -8,0 C -4,9 C 1,6 km/h (1 Bft) 96,00 %
24.02.2019 06:28 -5,1 C 5,6 C -8,3 C 80 % 1039,5 hPa 0,0 l/m 0,8 km/h (0 Bft) O 91 0 min 0,000 mm 0,0 UV-I 0 W/m -8,0 C -5,1 C 1,6 km/h (1 Bft) 98,00 %
24.02.2019 06:30 -5,2 C 5,6 C -8,3 C 81 % 1039,5 hPa 0,0 l/m 2,3 km/h (1 Bft) O-SO 103 0 min 0,000 mm 0,0 UV-I 0 W/m -7,9 C -5,2 C 4,8 km/h (1 Bft) 94,87 %
24.02.2019 06:32 -5,2 C 5,6 C -8,9 C 80 % 1039,5 hPa 0,0 l/m 1,7 km/h (1 Bft) O-SO 119 0 min 0,000 mm 0,0 UV-I 0 W/m -8,1 C -5,2 C 4,8 km/h (1 Bft) 98,11 %
24.02.2019 06:34 -5,3 C 5,6 C -8,3 C 80 % 1039,5 hPa 0,0 l/m 1,7 km/h (1 Bft) O-SO 119 0 min 0,000 mm 0,0 UV-I 0 W/m -8,2 C -5,3 C 3,2 km/h (1 Bft) 97,73 %
24.02.2019 06:36 -5,3 C 5,6 C -8,3 C 80 % 1039,5 hPa 0,0 l/m 2,0 km/h (1 Bft) O-SO 119 0 min 0,000 mm 0,0 UV-I 0 W/m -8,2 C -5,3 C 3,2 km/h (1 Bft) 97,56 %
24.02.2019 06:38 -5,4 C 5,6 C -8,9 C 80 % 1039,6 hPa 0,0 l/m 2,6 km/h (1 Bft) O-SO 119 0 min 0,000 mm 0,0 UV-I 0 W/m -8,3 C -5,4 C 4,8 km/h (1 Bft) 97,87 %
24.02.2019 06:40 -5,3 C 5,6 C -8,9 C 80 % 1039,5 hPa 0,0 l/m 2,6 km/h (1 Bft) O-SO 119 0 min 0,000 mm 0,0 UV-I 0 W/m -8,2 C -5,3 C 4,8 km/h (1 Bft) 97,87 %
24.02.2019 06:42 -5,2 C 5,6 C -8,9 C 79 % 1039,5 hPa 0,0 l/m 1,7 km/h (1 Bft) O-SO 119 0 min 0,000 mm 0,0 UV-I 0 W/m -8,3 C -5,2 C 3,2 km/h (1 Bft) 93,62 %
24.02.2019 06:44 -5,1 C 5,6 C -8,9 C 79 % 1039,5 hPa 0,0 l/m 2,5 km/h (1 Bft) O-SO 119 0 min 0,000 mm 0,0 UV-I 0 W/m -8,2 C -5,1 C 4,8 km/h (1 Bft) 95,74 %
24.02.2019 06:46 -5,1 C 5,6 C -8,9 C 80 % 1039,5 hPa 0,0 l/m 1,7 km/h (1 Bft) O-SO 119 0 min 0,000 mm 0,0 UV-I 2 W/m -8,0 C -5,1 C 3,2 km/h (1 Bft) 93,62 %
24.02.2019 06:48 -5,1 C 5,6 C -8,9 C 80 % 1039,6 hPa 0,0 l/m 1,5 km/h (1 Bft) O-SO 119 0 min 0,000 mm 0,0 UV-I 5 W/m -8,0 C -5,1 C 3,2 km/h (1 Bft) 95,12 %
24.02.2019 06:50 -5,2 C 5,6 C -9,4 C 80 % 1039,6 hPa 0,0 l/m 1,5 km/h (1 Bft) O-SO 119 0 min 0,000 mm 0,0 UV-I 5 W/m -8,1 C -5,2 C 3,2 km/h (1 Bft) 96,77 %
24.02.2019 06:52 -5,2 C 5,6 C -9,4 C 80 % 1039,6 hPa 0,0 l/m 1,1 km/h (1 Bft) O-SO 119 0 min 0,000 mm 0,0 UV-I 7 W/m -8,1 C -5,2 C 1,6 km/h (1 Bft) 97,37 %
24.02.2019 06:54 -5,1 C 5,6 C -9,4 C 80 % 1039,6 hPa 0,0 l/m 0,7 km/h (0 Bft) O-SO 119 0 min 0,000 mm 0,0 UV-I 7 W/m -8,0 C -5,1 C 1,6 km/h (1 Bft) 98,11 %
24.02.2019 06:56 -5,3 C 5,6 C -8,9 C 79 % 1039,6 hPa 0,0 l/m 0,9 km/h (0 Bft) O-SO 119 0 min 0,000 mm 0,0 UV-I 8 W/m -8,4 C -5,3 C 1,6 km/h (1 Bft) 98,00 %
24.02.2019 06:58 -5,5 C 5,6 C -8,9 C 80 % 1039,6 hPa 0,0 l/m 0,1 km/h (0 Bft) O-SO 119 0 min 0,000 mm 0,0 UV-I 10 W/m -8,4 C -5,5 C 1,6 km/h (1 Bft) 100,00 %
24.02.2019 07:00 -5,6 C 5,6 C -8,9 C 81 % 1039,6 hPa 0,0 l/m 0,0 km/h (0 Bft) O-SO 119 0 min 0,000 mm 0,0 UV-I 11 W/m -8,3 C -5,6 C 0,0 km/h (0 Bft) 100,00 %
24.02.2019 07:02 -5,6 C 5,6 C -8,9 C 81 % 1039,6 hPa 0,0 l/m 0,0 km/h (0 Bft) O-SO 119 0 min 0,000 mm 0,0 UV-I 11 W/m -8,3 C -5,6 C 0,0 km/h (0 Bft) 98,51 %
24.02.2019 07:05 -5,6 C 5,6 C -8,9 C 82 % 1039,7 hPa 0,0 l/m 0,0 km/h (0 Bft) O-SO 119 0 min 0,000 mm 0,0 UV-I 11 W/m -8,2 C -5,6 C 0,0 km/h (0 Bft) 100,00 %
24.02.2019 07:06 -5,6 C 5,6 C -8,9 C 82 % 1039,7 hPa 0,0 l/m 0,0 km/h (0 Bft) O-SO 119 1 min 0,000 mm 0,0 UV-I 12 W/m -8,2 C -5,6 C 0,0 km/h (0 Bft) 100,00 %
24.02.2019 07:08 -5,7 C 5,6 C -8,9 C 82 % 1039,7 hPa 0,0 l/m 0,0 km/h (0 Bft) O-SO 119 0 min 0,000 mm 0,0 UV-I 12 W/m -8,3 C -5,7 C 0,0 km/h (0 Bft) 100,00 %
24.02.2019 07:10 -5,8 C 5,6 C -8,3 C 83 % 1039,7 hPa 0,0 l/m 0,0 km/h (0 Bft) O-SO 119 0 min 0,000 mm 0,0 UV-I 12 W/m -8,2 C -5,8 C 0,0 km/h (0 Bft) 97,87 %
24.02.2019 07:12 -5,8 C 5,6 C -8,3 C 83 % 1039,8 hPa 0,0 l/m 0,0 km/h (0 Bft) O-SO 119 0 min 0,000 mm 0,0 UV-I 13 W/m -8,2 C -5,8 C 0,0 km/h (0 Bft) 100,00 %
24.02.2019 07:14 -5,9 C 5,6 C -8,9 C 84 % 1039,8 hPa 0,0 l/m 0,0 km/h (0 Bft) O-SO 119 0 min 0,000 mm 0,0 UV-I 15 W/m -8,2 C -5,9 C 0,0 km/h (0 Bft) 100,00 %
24.02.2019 07:16 -5,8 C 5,6 C -8,9 C 84 % 1039,8 hPa 0,0 l/m 0,7 km/h (0 Bft) O-SO 119 0 min 0,000 mm 0,0 UV-I 16 W/m -8,1 C -5,8 C 1,6 km/h (1 Bft) 98,00 %
24.02.2019 07:18 -5,8 C 5,6 C -8,9 C 83 % 1039,8 hPa 0,0 l/m 2,1 km/h (1 Bft) S 178 0 min 0,000 mm 0,0 UV-I 16 W/m -8,2 C -5,8 C 3,2 km/h (1 Bft) 100,00 %
24.02.2019 07:20 -5,7 C 5,6 C -8,9 C 83 % 1039,8 hPa 0,0 l/m 2,5 km/h (1 Bft) S 178 0 min 0,000 mm 0,0 UV-I 17 W/m -8,1 C -5,7 C 3,2 km/h (1 Bft) 96,23 %
24.02.2019 07:22 -5,6 C 5,6 C -8,3 C 82 % 1039,9 hPa 0,0 l/m 0,4 km/h (0 Bft) S 178 0 min 0,000 mm 0,0 UV-I 18 W/m -8,2 C -5,6 C 1,6 km/h (1 Bft) 98,00 %
24.02.2019 07:24 -5,6 C 5,6 C -8,3 C 82 % 1039,9 hPa 0,0 l/m 0,1 km/h (0 Bft) S 178 0 min 0,000 mm 0,0 UV-I 18 W/m -8,2 C -5,6 C 1,6 km/h (1 Bft) 100,00 %
24.02.2019 07:26 -5,6 C 5,6 C -8,3 C 82 % 1039,9 hPa 0,0 l/m 0,0 km/h (0 Bft) S 178 0 min 0,000 mm 0,0 UV-I 20 W/m -8,2 C -5,6 C 0,0 km/h (0 Bft) 100,00 %
24.02.2019 07:28 -5,6 C 5,6 C -8,3 C 82 % 1039,9 hPa 0,0 l/m 0,5 km/h (0 Bft) S 178 0 min 0,000 mm 0,0 UV-I 21 W/m -8,2 C -5,6 C 1,6 km/h (1 Bft) 100,00 %
24.02.2019 07:30 -5,7 C 5,6 C -8,3 C 82 % 1039,8 hPa 0,0 l/m 0,4 km/h (0 Bft) S 178 0 min 0,000 mm 0,0 UV-I 24 W/m -8,3 C -5,7 C 1,6 km/h (1 Bft) 97,37 %
24.02.2019 07:32 -5,8 C 5,6 C -7,8 C 83 % 1039,8 hPa 0,0 l/m 0,7 km/h (0 Bft) S 178 0 min 0,000 mm 0,0 UV-I 27 W/m -8,2 C -5,8 C 1,6 km/h (1 Bft) 97,87 %
24.02.2019 07:34 -5,8 C 5,6 C -7,8 C 83 % 1039,7 hPa 0,0 l/m 1,3 km/h (1 Bft) S 178 0 min 0,000 mm 0,0 UV-I 28 W/m -8,2 C -5,8 C 3,2 km/h (1 Bft) 97,87 %
24.02.2019 07:36 -5,7 C 5,6 C -7,2 C 83 % 1039,8 hPa 0,0 l/m 3,3 km/h (1 Bft) S 178 0 min 0,000 mm 0,0 UV-I 34 W/m -8,1 C -5,7 C 4,8 km/h (1 Bft) 95,74 %
24.02.2019 07:38 -5,7 C 5,6 C -7,2 C 83 % 1039,7 hPa 0,0 l/m 3,3 km/h (1 Bft) S 178 0 min 0,000 mm 0,0 UV-I 46 W/m -8,1 C -5,7 C 4,8 km/h (1 Bft) 95,74 %
24.02.2019 07:40 -5,7 C 5,6 C -6,7 C 83 % 1039,6 hPa 0,0 l/m 3,5 km/h (1 Bft) S 178 2 min 0,000 mm 0,0 UV-I 73 W/m -8,1 C -5,7 C 4,8 km/h (1 Bft) 96,00 %
24.02.2019 07:42 -5,6 C 5,6 C -6,1 C 83 % 1039,6 hPa 0,0 l/m 3,8 km/h (1 Bft) S 179 2 min 0,000 mm 0,0 UV-I 82 W/m -8,0 C -5,6 C 4,8 km/h (1 Bft) 96,00 %
24.02.2019 07:44 -5,5 C 5,6 C -6,1 C 82 % 1039,4 hPa 0,0 l/m 4,3 km/h (1 Bft) S-SW 199 2 min 0,000 mm 0,0 UV-I 85 W/m -8,1 C -5,5 C 4,8 km/h (1 Bft) 93,62 %
24.02.2019 07:46 -5,4 C 5,6 C -5,6 C 82 % 1039,3 hPa 0,0 l/m 3,9 km/h (1 Bft) S-SW 204 2 min 0,000 mm 0,0 UV-I 84 W/m -8,0 C -5,4 C 4,8 km/h (1 Bft) 95,83 %
24.02.2019 07:48 -5,3 C 5,6 C -5,6 C 82 % 1039,2 hPa 0,0 l/m 4,5 km/h (1 Bft) S-SW 204 2 min 0,000 mm 0,0 UV-I 80 W/m -7,9 C -5,3 C 6,4 km/h (2 Bft) 94,37 %
24.02.2019 07:50 -5,2 C 5,6 C -5,6 C 81 % 1039,2 hPa 0,0 l/m 4,2 km/h (1 Bft) S-SW 205 2 min 0,000 mm 0,0 UV-I 83 W/m -7,9 C -5,2 C 6,4 km/h (2 Bft) 96,00 %
24.02.2019 07:52 -5,2 C 5,6 C -5,0 C 82 % 1039,2 hPa 0,0 l/m 6,1 km/h (2 Bft) S-SW 209 2 min 0,000 mm 0,0 UV-I 84 W/m -7,8 C -5,2 C 8,0 km/h (2 Bft) 94,29 %
24.02.2019 07:54 -5,1 C 5,6 C -5,0 C 82 % 1039,1 hPa 0,0 l/m 5,5 km/h (1 Bft) S-SW 209 2 min 0,000 mm 0,0 UV-I 95 W/m -7,7 C -5,1 C 8,0 km/h (2 Bft) 95,45 %
24.02.2019 07:56 -5,0 C 5,6 C -5,0 C 82 % 1039,1 hPa 0,0 l/m 4,8 km/h (1 Bft) S-SW 213 0 min 0,000 mm 0,0 UV-I 65 W/m -7,6 C -5,0 C 6,4 km/h (2 Bft) 90,57 %
24.02.2019 07:58 -5,0 C 5,6 C -5,0 C 82 % 1039,1 hPa 0,0 l/m 4,7 km/h (1 Bft) SW 214 0 min 0,000 mm 0,0 UV-I 61 W/m -7,6 C -5,0 C 8,0 km/h (2 Bft) 96,00 %
24.02.2019 08:00 -4,9 C 5,6 C -5,0 C 82 % 1039,1 hPa 0,0 l/m 4,8 km/h (1 Bft) S-SW 212 0 min 0,026 mm 0,0 UV-I 61 W/m -7,5 C -4,9 C 6,4 km/h (2 Bft) 93,62 %
24.02.2019 08:02 -4,9 C 5,6 C -5,0 C 83 % 1039,1 hPa 0,0 l/m 6,0 km/h (2 Bft) S-SW 209 0 min 0,000 mm 0,0 UV-I 70 W/m -7,3 C -4,9 C 8,0 km/h (2 Bft) 97,87 %
24.02.2019 08:04 -4,8 C 5,6 C -4,4 C 82 % 1039,1 hPa 0,0 l/m 4,0 km/h (1 Bft) S-SW 209 0 min 0,000 mm 0,0 UV-I 68 W/m -7,4 C -4,8 C 6,4 km/h (2 Bft) 97,87 %
24.02.2019 08:06 -4,8 C 5,6 C -4,4 C 82 % 1039,1 hPa 0,0 l/m 4,3 km/h (1 Bft) S-SW 208 0 min 0,000 mm 0,0 UV-I 82 W/m -7,4 C -4,8 C 6,4 km/h (2 Bft) 96,00 %
24.02.2019 08:08 -4,7 C 5,6 C -4,4 C 82 % 1039,1 hPa 0,0 l/m 3,7 km/h (1 Bft) S-SW 209 2 min 0,000 mm 0,0 UV-I 160 W/m -7,3 C -4,7 C 4,8 km/h (1 Bft) 97,37 %
24.02.2019 08:10 -4,6 C 5,6 C -3,9 C 81 % 1039,1 hPa 0,0 l/m 2,6 km/h (1 Bft) S-SW 209 2 min 0,000 mm 0,0 UV-I 176 W/m -7,4 C -4,6 C 4,8 km/h (1 Bft) 96,23 %
24.02.2019 08:12 -4,4 C 5,6 C -3,3 C 81 % 1039,1 hPa 0,0 l/m 3,0 km/h (1 Bft) S-SW 209 2 min 0,000 mm 0,0 UV-I 144 W/m -7,2 C -4,4 C 4,8 km/h (1 Bft) 95,74 %
24.02.2019 08:14 -4,3 C 5,6 C -3,3 C 81 % 1039,3 hPa 0,0 l/m 0,2 km/h (0 Bft) S-SW 209 2 min 0,000 mm 0,0 UV-I 113 W/m -7,1 C -4,3 C 1,6 km/h (1 Bft) 92,00 %
24.02.2019 08:16 -4,2 C 5,6 C -3,3 C 80 % 1039,3 hPa 0,0 l/m 0,0 km/h (0 Bft) S-SW 209 2 min 0,000 mm 0,0 UV-I 126 W/m -7,1 C -4,2 C 1,6 km/h (1 Bft) 97,56 %
24.02.2019 08:18 -4,1 C 5,6 C -2,8 C 80 % 1039,2 hPa 0,0 l/m 0,0 km/h (0 Bft) S-SW 209 2 min 0,000 mm 0,0 UV-I 178 W/m -7,0 C -4,1 C 0,0 km/h (0 Bft) 96,00 %
24.02.2019 08:20 -3,9 C 5,6 C -2,2 C 79 % 1039,3 hPa 0,0 l/m 0,0 km/h (0 Bft) S-SW 209 2 min 0,000 mm 0,0 UV-I 215 W/m -7,0 C -3,9 C 0,0 km/h (0 Bft) 97,37 %
24.02.2019 08:22 -3,7 C 5,6 C -2,2 C 79 % 1039,2 hPa 0,0 l/m 0,2 km/h (0 Bft) S-SW 209 2 min 0,000 mm 0,0 UV-I 225 W/m -6,8 C -3,7 C 1,6 km/h (1 Bft) 98,00 %
24.02.2019 08:24 -3,4 C 5,6 C -1,7 C 77 % 1039,2 hPa 0,0 l/m 0,9 km/h (0 Bft) S-SW 209 2 min 0,000 mm 0,0 UV-I 235 W/m -6,8 C -3,4 C 1,6 km/h (1 Bft) 97,22 %
24.02.2019 08:26 -3,3 C 5,6 C -1,1 C 76 % 1039,3 hPa 0,0 l/m 0,3 km/h (0 Bft) S-SW 209 2 min 0,000 mm 0,0 UV-I 249 W/m -6,9 C -3,3 C 1,6 km/h (1 Bft) 96,88 %
24.02.2019 08:28 -3,4 C 5,6 C -0,6 C 75 % 1039,3 hPa 0,0 l/m 0,1 km/h (0 Bft) S-SW 209 2 min 0,000 mm 0,0 UV-I 255 W/m -7,2 C -3,4 C 1,6 km/h (1 Bft) 95,74 %
24.02.2019 08:30 -3,4 C 5,6 C 0,0 C 75 % 1039,2 hPa 0,0 l/m 0,3 km/h (0 Bft) S-SW 209 2 min 0,000 mm 0,0 UV-I 263 W/m -7,2 C -3,4 C 1,6 km/h (1 Bft) 97,44 %
24.02.2019 08:32 -3,4 C 5,6 C 0,0 C 74 % 1039,1 hPa 0,0 l/m 1,0 km/h (0 Bft) S-SW 209 2 min 0,000 mm 0,0 UV-I 280 W/m -7,4 C -3,4 C 1,6 km/h (1 Bft) 96,00 %
24.02.2019 08:34 -3,4 C 5,6 C 0,0 C 74 % 1039,1 hPa 0,0 l/m 1,6 km/h (1 Bft) S-SW 209 2 min 0,000 mm 0,0 UV-I 222 W/m -7,4 C -3,4 C 3,2 km/h (1 Bft) 94,74 %
24.02.2019 08:36 -3,4 C 5,6 C 0,0 C 75 % 1039,1 hPa 0,0 l/m 2,2 km/h (1 Bft) S-SW 208 2 min 0,000 mm 0,0 UV-I 213 W/m -7,2 C -3,4 C 4,8 km/h (1 Bft) 96,23 %
24.02.2019 08:38 -3,3 C 5,6 C 0,0 C 75 % 1039,1 hPa 0,0 l/m 2,1 km/h (1 Bft) S-SW 208 2 min 0,000 mm 0,0 UV-I 217 W/m -7,1 C -3,3 C 3,2 km/h (1 Bft) 98,00 %
24.02.2019 08:40 -3,2 C 5,6 C 0,0 C 75 % 1039,1 hPa 0,0 l/m 2,8 km/h (1 Bft) S-SW 208 2 min 0,000 mm 0,0 UV-I 247 W/m -7,0 C -3,2 C 3,2 km/h (1 Bft) 98,00 %
24.02.2019 08:42 -3,1 C 5,6 C 0,0 C 74 % 1039,0 hPa 0,0 l/m 2,2 km/h (1 Bft) S-SW 208 2 min 0,000 mm 0,0 UV-I 272 W/m -7,1 C -3,1 C 3,2 km/h (1 Bft) 98,00 %
24.02.2019 08:44 -3,1 C 5,6 C 0,6 C 75 % 1039,1 hPa 0,0 l/m 1,8 km/h (1 Bft) S-SW 208 2 min 0,000 mm 0,0 UV-I 230 W/m -6,9 C -3,1 C 3,2 km/h (1 Bft) 94,74 %
24.02.2019 08:46 -2,9 C 5,6 C 0,0 C 75 % 1039,3 hPa 0,0 l/m 3,8 km/h (1 Bft) N 355 2 min 0,000 mm 0,0 UV-I 245 W/m -6,7 C -2,9 C 6,4 km/h (2 Bft) 91,49 %
24.02.2019 08:48 -2,6 C 5,6 C 0,0 C 76 % 1039,4 hPa 0,0 l/m 6,9 km/h (2 Bft) NO 37 2 min 0,000 mm 0,0 UV-I 232 W/m -6,2 C -3,2 C 9,7 km/h (2 Bft) 92,00 %
24.02.2019 08:50 -2,4 C 5,6 C 0,0 C 76 % 1039,4 hPa 0,0 l/m 7,5 km/h (2 Bft) N-NO 16 2 min 0,000 mm 0,0 UV-I 205 W/m -6,0 C -3,6 C 11,3 km/h (2 Bft) 94,74 %
24.02.2019 08:52 -2,3 C 5,6 C 0,0 C 76 % 1039,3 hPa 0,0 l/m 6,5 km/h (2 Bft) N 9 2 min 0,000 mm 0,0 UV-I 205 W/m -5,9 C -2,4 C 11,3 km/h (2 Bft) 94,23 %
24.02.2019 08:54 -2,3 C 5,6 C 0,0 C 74 % 1039,1 hPa 0,0 l/m 4,2 km/h (1 Bft) N-NO 17 2 min 0,000 mm 0,0 UV-I 222 W/m -6,3 C -2,3 C 6,4 km/h (2 Bft) 95,74 %
24.02.2019 08:56 -2,2 C 5,6 C 0,0 C 74 % 1039,1 hPa 0,0 l/m 3,5 km/h (1 Bft) N-NO 17 2 min 0,000 mm 0,0 UV-I 220 W/m -6,2 C -2,2 C 4,8 km/h (1 Bft) 96,23 %
24.02.2019 08:58 -2,2 C 5,6 C 0,6 C 74 % 1039,1 hPa 0,0 l/m 6,6 km/h (2 Bft) N-NO 33 2 min 0,000 mm 0,0 UV-I 242 W/m -6,2 C -2,4 C 9,7 km/h (2 Bft) 93,18 %
24.02.2019 09:00 -2,1 C 5,6 C 0,6 C 75 % 1039,2 hPa 0,0 l/m 6,2 km/h (2 Bft) N 5 2 min 0,050 mm 0,0 UV-I 269 W/m -5,9 C -2,1 C 12,9 km/h (3 Bft) 97,87 %
24.02.2019 09:02 -2,0 C 5,6 C 0,6 C 73 % 1039,1 hPa 0,0 l/m 7,4 km/h (2 Bft) NO 40 2 min 0,000 mm 0,0 UV-I 207 W/m -6,2 C -3,1 C 11,3 km/h (2 Bft) 97,73 %
24.02.2019 09:04 -2,1 C 5,6 C 0,0 C 74 % 1039,2 hPa 0,0 l/m 11,7 km/h (2 Bft) NO 34 2 min 0,000 mm 0,0 UV-I 186 W/m -6,1 C -7,2 C 16,1 km/h (3 Bft) 96,23 %
24.02.2019 09:06 -2,2 C 5,6 C 0,0 C 76 % 1039,5 hPa 0,0 l/m 12,9 km/h (3 Bft) N-NO 28 0 min 0,000 mm 0,0 UV-I 162 W/m -5,8 C -8,2 C 17,7 km/h (3 Bft) 97,44 %
24.02.2019 09:08 -2,3 C 5,6 C -0,6 C 76 % 1039,6 hPa 0,0 l/m 14,1 km/h (3 Bft) N-NO 21 0 min 0,000 mm 0,0 UV-I 155 W/m -5,9 C -9,2 C 17,7 km/h (3 Bft) 98,11 %
24.02.2019 09:10 -2,4 C 5,6 C -0,6 C 74 % 1039,7 hPa 0,0 l/m 11,9 km/h (2 Bft) N-NO 19 0 min 0,000 mm 0,0 UV-I 159 W/m -6,4 C -7,7 C 16,1 km/h (3 Bft) 98,00 %
24.02.2019 09:12 -2,4 C 5,6 C -0,6 C 75 % 1039,7 hPa 0,0 l/m 15,2 km/h (3 Bft) N-NO 26 0 min 0,000 mm 0,0 UV-I 159 W/m -6,2 C -10,0 C 19,3 km/h (3 Bft) 97,56 %
24.02.2019 09:14 -2,4 C 5,6 C -1,1 C 76 % 1039,9 hPa 0,0 l/m 15,3 km/h (3 Bft) N-NO 30 0 min 0,000 mm 0,0 UV-I 155 W/m -6,0 C -10,1 C 20,9 km/h (4 Bft) 98,11 %
24.02.2019 09:16 -2,4 C 5,6 C -0,6 C 76 % 1040,0 hPa 0,0 l/m 13,1 km/h (3 Bft) NO 41 0 min 0,000 mm 0,0 UV-I 152 W/m -6,0 C -8,6 C 16,1 km/h (3 Bft) 97,37 %
24.02.2019 09:18 -2,5 C 5,6 C -1,1 C 75 % 1039,9 hPa 0,0 l/m 13,0 km/h (3 Bft) N-NO 32 0 min 0,000 mm 0,0 UV-I 151 W/m -6,3 C -8,6 C 17,7 km/h (3 Bft) 94,00 %
24.02.2019 09:20 -2,5 C 5,6 C -1,1 C 75 % 1039,9 hPa 0,0 l/m 16,2 km/h (3 Bft) N-NO 26 0 min 0,000 mm 0,2 UV-I 154 W/m -6,3 C -10,8 C 19,3 km/h (3 Bft) 98,00 %
24.02.2019 09:22 -2,5 C 5,6 C -1,1 C 75 % 1039,9 hPa 0,0 l/m 12,9 km/h (3 Bft) N-NO 23 0 min 0,000 mm 0,5 UV-I 156 W/m -6,3 C -8,6 C 19,3 km/h (3 Bft) 97,37 %
24.02.2019 09:24 -2,5 C 5,6 C -1,1 C 75 % 1039,8 hPa 0,0 l/m 11,8 km/h (2 Bft) N-NO 31 0 min 0,000 mm 0,5 UV-I 152 W/m -6,3 C -7,7 C 16,1 km/h (3 Bft) 98,00 %
24.02.2019 09:26 -2,5 C 5,6 C -0,6 C 75 % 1039,9 hPa 0,0 l/m 9,6 km/h (2 Bft) O-NO 64 0 min 0,000 mm 0,5 UV-I 142 W/m -6,3 C -5,8 C 14,5 km/h (3 Bft) 96,23 %
24.02.2019 09:28 -2,5 C 5,6 C -1,1 C 73 % 1039,9 hPa 0,0 l/m 12,1 km/h (2 Bft) NO 40 0 min 0,000 mm 0,5 UV-I 134 W/m -6,7 C -8,0 C 17,7 km/h (3 Bft) 97,37 %
24.02.2019 09:30 -2,5 C 5,6 C -1,1 C 74 % 1039,9 hPa 0,0 l/m 10,3 km/h (2 Bft) N-NO 30 0 min 0,000 mm 0,5 UV-I 131 W/m -6,5 C -6,5 C 16,1 km/h (3 Bft) 98,00 %
24.02.2019 09:32 -2,4 C 5,6 C -1,1 C 74 % 1039,9 hPa 0,0 l/m 8,3 km/h (2 Bft) O-NO 63 0 min 0,000 mm 0,5 UV-I 129 W/m -6,4 C -4,5 C 11,3 km/h (2 Bft) 96,23 %
24.02.2019 09:34 -2,4 C 5,6 C -1,1 C 73 % 1039,9 hPa 0,0 l/m 6,6 km/h (2 Bft) NO 37 0 min 0,000 mm 0,5 UV-I 135 W/m -6,6 C -2,6 C 9,7 km/h (2 Bft) 96,30 %
24.02.2019 09:36 -2,4 C 5,6 C -0,6 C 73 % 1039,9 hPa 0,0 l/m 7,2 km/h (2 Bft) N 360 0 min 0,000 mm 0,6 UV-I 160 W/m -6,6 C -3,3 C 9,7 km/h (2 Bft) 98,51 %
24.02.2019 09:38 -2,3 C 5,6 C -0,6 C 74 % 1040,0 hPa 0,0 l/m 6,5 km/h (2 Bft) NO 36 0 min 0,000 mm 0,6 UV-I 188 W/m -6,3 C -2,4 C 8,0 km/h (2 Bft) 100,00 %
24.02.2019 09:40 -2,2 C 5,6 C 0,0 C 73 % 1040,0 hPa 0,0 l/m 5,6 km/h (1 Bft) NO 50 0 min 0,000 mm 0,6 UV-I 196 W/m -6,4 C -2,2 C 8,0 km/h (2 Bft) 100,00 %
24.02.2019 09:42 -2,1 C 5,6 C 0,6 C 72 % 1039,9 hPa 0,0 l/m 4,5 km/h (1 Bft) O-NO 67 0 min 0,000 mm 0,6 UV-I 205 W/m -6,5 C -2,1 C 6,4 km/h (2 Bft) 98,00 %
24.02.2019 09:44 -1,9 C 5,6 C 0,6 C 72 % 1039,9 hPa 0,0 l/m 3,9 km/h (1 Bft) O 88 0 min 0,000 mm 0,7 UV-I 214 W/m -6,3 C -1,9 C 4,8 km/h (1 Bft) 94,44 %
24.02.2019 09:46 -1,8 C 5,6 C 1,7 C 71 % 1040,0 hPa 0,0 l/m 3,6 km/h (1 Bft) O 96 2 min 0,000 mm 0,8 UV-I 306 W/m -6,3 C -1,8 C 4,8 km/h (1 Bft) 98,11 %
24.02.2019 09:48 -1,6 C 5,6 C 2,8 C 70 % 1040,0 hPa 0,0 l/m 2,0 km/h (1 Bft) O 96 2 min 0,000 mm 0,8 UV-I 393 W/m -6,3 C -1,6 C 4,8 km/h (1 Bft) 95,74 %
24.02.2019 09:50 -1,5 C 5,6 C 3,3 C 69 % 1040,0 hPa 0,0 l/m 5,4 km/h (1 Bft) O 92 2 min 0,000 mm 0,8 UV-I 378 W/m -6,4 C -1,5 C 9,7 km/h (2 Bft) 95,74 %
24.02.2019 09:52 -1,4 C 5,6 C 3,9 C 68 % 1040,0 hPa 0,0 l/m 5,5 km/h (1 Bft) O 86 2 min 0,000 mm 0,8 UV-I 321 W/m -6,5 C -1,4 C 9,7 km/h (2 Bft) 91,49 %
24.02.2019 09:54 -1,3 C 5,6 C 3,9 C 68 % 1040,1 hPa 0,0 l/m 5,9 km/h (2 Bft) O-NO 61 2 min 0,000 mm 0,8 UV-I 288 W/m -6,4 C -1,3 C 11,3 km/h (2 Bft) 91,49 %
24.02.2019 09:56 -1,3 C 5,6 C 3,9 C 67 % 1040,1 hPa 0,0 l/m 3,6 km/h (1 Bft) O-NO 74 2 min 0,000 mm 0,8 UV-I 256 W/m -6,6 C -1,3 C 6,4 km/h (2 Bft) 95,74 %
24.02.2019 09:58 -1,3 C 5,6 C 5,0 C 67 % 1040,1 hPa 0,0 l/m 2,7 km/h (1 Bft) O-NO 71 2 min 0,000 mm 0,9 UV-I 339 W/m -6,6 C -1,3 C 4,8 km/h (1 Bft) 94,00 %
24.02.2019 10:00 -1,2 C 5,6 C 5,6 C 67 % 1040,1 hPa 0,0 l/m 4,0 km/h (1 Bft) O 90 2 min 0,077 mm 0,9 UV-I 364 W/m -6,5 C -1,2 C 6,4 km/h (2 Bft) 94,74 %
24.02.2019 10:02 -1,1 C 5,6 C 6,1 C 66 % 1040,2 hPa 0,0 l/m 4,4 km/h (1 Bft) O 88 2 min 0,000 mm 0,9 UV-I 360 W/m -6,6 C -1,1 C 8,0 km/h (2 Bft) 96,00 %
24.02.2019 10:04 -0,9 C 5,6 C 6,7 C 66 % 1040,1 hPa 0,0 l/m 5,4 km/h (1 Bft) O-SO 115 2 min 0,000 mm 0,9 UV-I 384 W/m -6,4 C -0,9 C 8,0 km/h (2 Bft) 96,23 %
24.02.2019 10:06 -0,8 C 5,6 C 6,7 C 64 % 1040,2 hPa 0,0 l/m 5,2 km/h (1 Bft) O 101 2 min 0,000 mm 0,9 UV-I 351 W/m -6,7 C -0,8 C 9,7 km/h (2 Bft) 95,74 %
24.02.2019 10:09 -0,8 C 5,6 C 7,2 C 63 % 1040,2 hPa 0,0 l/m 4,3 km/h (1 Bft) O 85 3 min 0,000 mm 0,9 UV-I 330 W/m -6,9 C -0,8 C 11,3 km/h (2 Bft) 94,37 %
24.02.2019 10:10 -0,8 C 5,6 C 7,2 C 63 % 1040,2 hPa 0,0 l/m 1,4 km/h (1 Bft) O 85 1 min 0,000 mm 0,9 UV-I 307 W/m -6,9 C -0,8 C 3,2 km/h (1 Bft) 100,00 %
24.02.2019 10:12 -0,7 C 5,6 C 7,2 C 62 % 1040,2 hPa 0,0 l/m 3,4 km/h (1 Bft) S 170 2 min 0,000 mm 0,9 UV-I 342 W/m -7,1 C -0,7 C 6,4 km/h (2 Bft) 91,49 %
24.02.2019 10:14 -0,5 C 5,6 C 7,2 C 62 % 1040,1 hPa 0,0 l/m 4,9 km/h (1 Bft) S-SO 147 2 min 0,000 mm 1,0 UV-I 349 W/m -6,9 C -0,5 C 11,3 km/h (2 Bft) 98,11 %
24.02.2019 10:16 -0,4 C 5,6 C 7,8 C 58 % 1040,1 hPa 0,0 l/m 5,0 km/h (1 Bft) O-SO 113 2 min 0,000 mm 1,0 UV-I 349 W/m -7,6 C -0,4 C 9,7 km/h (2 Bft) 100,00 %
24.02.2019 10:18 -0,4 C 5,6 C 8,3 C 58 % 1040,1 hPa 0,0 l/m 4,2 km/h (1 Bft) SO 127 2 min 0,000 mm 1,0 UV-I 366 W/m -7,6 C -0,4 C 6,4 km/h (2 Bft) 96,72 %
24.02.2019 10:20 -0,3 C 5,6 C 8,3 C 60 % 1039,9 hPa 0,0 l/m 7,1 km/h (2 Bft) S 171 2 min 0,000 mm 1,0 UV-I 396 W/m -7,1 C -1,0 C 12,9 km/h (3 Bft) 97,44 %
24.02.2019 10:22 -0,3 C 5,6 C 8,3 C 60 % 1039,9 hPa 0,0 l/m 9,8 km/h (2 Bft) S-SO 162 2 min 0,000 mm 1,1 UV-I 446 W/m -7,1 C -3,6 C 14,5 km/h (3 Bft) 98,11 %
24.02.2019 10:24 -0,3 C 5,6 C 8,3 C 59 % 1039,8 hPa 0,0 l/m 10,2 km/h (2 Bft) S 178 2 min 0,000 mm 1,1 UV-I 477 W/m -7,3 C -3,9 C 16,1 km/h (3 Bft) 97,56 %
24.02.2019 10:26 -0,3 C 5,6 C 7,8 C 60 % 1039,8 hPa 0,0 l/m 7,2 km/h (2 Bft) S 173 2 min 0,000 mm 1,0 UV-I 376 W/m -7,1 C -1,1 C 9,7 km/h (2 Bft) 98,21 %
24.02.2019 10:28 -0,2 C 5,6 C 7,8 C 60 % 1039,9 hPa 0,0 l/m 4,8 km/h (1 Bft) S 173 2 min 0,000 mm 1,0 UV-I 348 W/m -7,0 C -0,2 C 9,7 km/h (2 Bft) 97,37 %
24.02.2019 10:30 -0,1 C 5,6 C 6,7 C 59 % 1039,8 hPa 0,0 l/m 10,5 km/h (2 Bft) S-SO 152 2 min 0,000 mm 1,0 UV-I 332 W/m -7,1 C -4,0 C 14,5 km/h (3 Bft) 96,61 %
24.02.2019 10:32 -0,1 C 5,6 C 6,7 C 58 % 1039,9 hPa 0,0 l/m 8,0 km/h (2 Bft) S-SO 164 2 min 0,000 mm 1,0 UV-I 358 W/m -7,3 C -1,8 C 12,9 km/h (3 Bft) 97,56 %
24.02.2019 10:34 0,1 C 5,6 C 6,7 C 58 % 1039,9 hPa 0,0 l/m 8,4 km/h (2 Bft) SO 140 2 min 0,000 mm 1,1 UV-I 336 W/m -7,2 C -1,9 C 12,9 km/h (3 Bft) 98,11 %
24.02.2019 10:36 0,1 C 5,6 C 7,2 C 57 % 1039,9 hPa 0,0 l/m 8,2 km/h (2 Bft) S-SO 159 2 min 0,000 mm 1,1 UV-I 377 W/m -7,4 C -1,7 C 14,5 km/h (3 Bft) 100,00 %
24.02.2019 10:38 0,2 C 5,6 C 7,8 C 57 % 1039,8 hPa 0,0 l/m 9,9 km/h (2 Bft) S-SO 166 2 min 0,000 mm 1,2 UV-I 322 W/m -7,3 C -3,1 C 14,5 km/h (3 Bft) 95,77 %
24.02.2019 10:40 0,2 C 5,6 C 8,9 C 58 % 1039,8 hPa 0,0 l/m 10,3 km/h (2 Bft) S 180 2 min 0,000 mm 1,2 UV-I 395 W/m -7,1 C -3,5 C 16,1 km/h (3 Bft) 97,14 %
24.02.2019 10:42 0,3 C 5,6 C 7,8 C 56 % 1039,7 hPa 0,0 l/m 7,3 km/h (2 Bft) S 186 2 min 0,000 mm 1,2 UV-I 429 W/m -7,4 C -0,6 C 12,9 km/h (3 Bft) 98,21 %
24.02.2019 10:44 0,3 C 5,6 C 7,2 C 54 % 1039,8 hPa 0,0 l/m 7,3 km/h (2 Bft) S-SW 202 2 min 0,000 mm 1,1 UV-I 312 W/m -7,9 C -0,6 C 12,9 km/h (3 Bft) 95,74 %
24.02.2019 10:46 0,4 C 5,6 C 8,3 C 55 % 1039,8 hPa 0,0 l/m 7,9 km/h (2 Bft) S 177 2 min 0,000 mm 1,3 UV-I 297 W/m -7,6 C -1,1 C 16,1 km/h (3 Bft) 97,37 %
24.02.2019 10:48 0,5 C 5,6 C 10,6 C 53 % 1039,8 hPa 0,0 l/m 7,8 km/h (2 Bft) S 190 2 min 0,000 mm 1,4 UV-I 467 W/m -7,9 C -0,9 C 14,5 km/h (3 Bft) 98,00 %
24.02.2019 10:50 0,7 C 5,6 C 11,7 C 56 % 1039,9 hPa 0,0 l/m 4,5 km/h (1 Bft) O-SO 107 2 min 0,000 mm 1,4 UV-I 633 W/m -7,1 C 0,7 C 8,0 km/h (2 Bft) 96,00 %
24.02.2019 10:52 0,9 C 5,6 C 11,7 C 55 % 1039,9 hPa 0,0 l/m 5,1 km/h (1 Bft) O-SO 111 2 min 0,000 mm 1,4 UV-I 638 W/m -7,1 C 0,9 C 6,4 km/h (2 Bft) 97,44 %
24.02.2019 10:54 1,1 C 5,6 C 12,8 C 54 % 1040,1 hPa 0,0 l/m 5,5 km/h (1 Bft) O 79 2 min 0,000 mm 1,5 UV-I 558 W/m -7,1 C 1,1 C 9,7 km/h (2 Bft) 94,55 %
24.02.2019 10:56 1,4 C 5,6 C 15,0 C 57 % 1040,1 hPa 0,0 l/m 5,9 km/h (2 Bft) O-NO 63 2 min 0,000 mm 1,5 UV-I 672 W/m -6,2 C 1,4 C 11,3 km/h (2 Bft) 90,00 %
24.02.2019 10:58 1,8 C 5,6 C 15,6 C 56 % 1040,2 hPa 0,0 l/m 5,5 km/h (1 Bft) NO 51 2 min 0,000 mm 1,5 UV-I 689 W/m -6,0 C 1,8 C 8,0 km/h (2 Bft) 94,87 %
24.02.2019 11:00 1,9 C 5,6 C 13,9 C 56 % 1040,2 hPa 0,0 l/m 6,8 km/h (2 Bft) O-NO 66 2 min 0,152 mm 1,5 UV-I 605 W/m -5,9 C 1,5 C 12,9 km/h (3 Bft) 94,00 %
24.02.2019 11:02 1,8 C 5,6 C 13,3 C 55 % 1040,2 hPa 0,0 l/m 6,6 km/h (2 Bft) NO 49 2 min 0,000 mm 1,4 UV-I 529 W/m -6,3 C 1,6 C 9,7 km/h (2 Bft) 90,24 %
24.02.2019 11:04 1,8 C 5,6 C 12,2 C 55 % 1040,3 hPa 0,0 l/m 7,2 km/h (2 Bft) NO 56 2 min 0,000 mm 1,3 UV-I 621 W/m -6,3 C 1,0 C 11,3 km/h (2 Bft) 95,12 %
24.02.2019 11:06 1,7 C 5,6 C 11,1 C 54 % 1040,3 hPa 0,0 l/m 8,5 km/h (2 Bft) O-NO 76 2 min 0,000 mm 1,2 UV-I 441 W/m -6,6 C -0,3 C 12,9 km/h (3 Bft) 96,43 %
24.02.2019 11:08 1,6 C 5,6 C 10,0 C 53 % 1040,4 hPa 0,0 l/m 7,7 km/h (2 Bft) O-NO 74 2 min 0,000 mm 1,1 UV-I 355 W/m -6,9 C 0,3 C 11,3 km/h (2 Bft) 92,45 %
24.02.2019 11:10 1,4 C 5,6 C 8,3 C 54 % 1040,5 hPa 0,0 l/m 7,6 km/h (2 Bft) O-NO 70 2 min 0,000 mm 1,0 UV-I 285 W/m -6,9 C 0,2 C 12,9 km/h (3 Bft) 95,74 %
24.02.2019 11:12 1,3 C 5,6 C 7,8 C 54 % 1040,5 hPa 0,0 l/m 8,8 km/h (2 Bft) O-NO 78 0 min 0,000 mm 1,0 UV-I 278 W/m -7,0 C -1,0 C 12,9 km/h (3 Bft) 93,62 %
24.02.2019 11:14 1,1 C 5,6 C 7,2 C 55 % 1040,6 hPa 0,0 l/m 4,8 km/h (1 Bft) O 100 0 min 0,000 mm 1,0 UV-I 280 W/m -6,9 C 1,1 C 8,0 km/h (2 Bft) 92,11 %
24.02.2019 11:16 1,1 C 5,6 C 7,2 C 56 % 1040,6 hPa 0,0 l/m 5,7 km/h (1 Bft) O-NO 57 2 min 0,000 mm 1,1 UV-I 298 W/m -6,7 C 1,1 C 8,0 km/h (2 Bft) 90,57 %
24.02.2019 11:18 1,2 C 5,6 C 7,2 C 58 % 1040,6 hPa 0,0 l/m 7,2 km/h (2 Bft) O 90 2 min 0,000 mm 1,1 UV-I 302 W/m -6,1 C 0,4 C 11,3 km/h (2 Bft) 92,68 %
24.02.2019 11:20 1,2 C 5,6 C 7,2 C 55 % 1040,6 hPa 0,0 l/m 8,1 km/h (2 Bft) O-NO 76 2 min 0,000 mm 1,1 UV-I 300 W/m -6,8 C -0,5 C 12,9 km/h (3 Bft) 90,57 %
24.02.2019 11:22 1,2 C 5,6 C 7,2 C 55 % 1040,6 hPa 0,0 l/m 7,1 km/h (2 Bft) NO 40 2 min 0,000 mm 1,1 UV-I 304 W/m -6,8 C 0,5 C 11,3 km/h (2 Bft) 95,12 %
24.02.2019 11:24 1,3 C 5,6 C 6,7 C 55 % 1040,6 hPa 0,0 l/m 7,8 km/h (2 Bft) O-NO 61 2 min 0,000 mm 1,1 UV-I 292 W/m -6,7 C -0,1 C 12,9 km/h (3 Bft) 95,74 %
24.02.2019 11:26 1,2 C 5,6 C 6,7 C 54 % 1040,6 hPa 0,0 l/m 6,8 km/h (2 Bft) NO 53 2 min 0,000 mm 1,1 UV-I 290 W/m -7,1 C 0,8 C 9,7 km/h (2 Bft) 98,11 %
24.02.2019 11:28 1,3 C 5,6 C 6,7 C 56 % 1040,5 hPa 0,0 l/m 7,6 km/h (2 Bft) O 84 2 min 0,000 mm 1,1 UV-I 303 W/m -6,5 C 0,1 C 12,9 km/h (3 Bft) 95,12 %
24.02.2019 11:30 1,3 C 5,6 C 7,2 C 54 % 1040,5 hPa 0,0 l/m 9,0 km/h (2 Bft) O 79 2 min 0,000 mm 1,2 UV-I 325 W/m -7,0 C -1,2 C 14,5 km/h (3 Bft) 96,23 %
24.02.2019 11:32 1,4 C 5,6 C 7,2 C 54 % 1040,4 hPa 0,0 l/m 7,5 km/h (2 Bft) O-NO 78 2 min 0,000 mm 1,2 UV-I 325 W/m -6,9 C 0,3 C 14,5 km/h (3 Bft) 95,12 %
24.02.2019 11:34 1,4 C 5,6 C 7,2 C 52 % 1040,4 hPa 0,0 l/m 9,2 km/h (2 Bft) O-SO 102 2 min 0,000 mm 1,2 UV-I 325 W/m -7,4 C -1,2 C 12,9 km/h (3 Bft) 94,64 %
24.02.2019 11:36 1,4 C 5,6 C 7,2 C 52 % 1040,4 hPa 0,0 l/m 6,7 km/h (2 Bft) O-NO 76 2 min 0,000 mm 1,2 UV-I 331 W/m -7,4 C 1,1 C 9,7 km/h (2 Bft) 95,12 %
24.02.2019 11:38 1,4 C 5,6 C 7,2 C 52 % 1040,4 hPa 0,0 l/m 6,0 km/h (2 Bft) O 96 2 min 0,000 mm 1,1 UV-I 323 W/m -7,4 C 1,4 C 11,3 km/h (2 Bft) 95,83 %
24.02.2019 11:40 1,4 C 5,6 C 7,2 C 52 % 1040,4 hPa 0,0 l/m 3,4 km/h (1 Bft) SO 128 2 min 0,000 mm 1,1 UV-I 310 W/m -7,4 C 1,4 C 4,8 km/h (1 Bft) 95,74 %
24.02.2019 11:42 1,6 C 5,6 C 7,2 C 52 % 1040,3 hPa 0,0 l/m 6,1 km/h (2 Bft) SO 130 2 min 0,000 mm 1,0 UV-I 300 W/m -7,2 C 1,6 C 11,3 km/h (2 Bft) 97,56 %
24.02.2019 11:44 1,4 C 5,6 C 7,2 C 52 % 1040,3 hPa 0,0 l/m 5,4 km/h (1 Bft) O-SO 113 0 min 0,000 mm 1,0 UV-I 294 W/m -7,4 C 1,4 C 9,7 km/h (2 Bft) 98,21 %
24.02.2019 11:46 1,4 C 5,6 C 7,2 C 51 % 1040,3 hPa 0,0 l/m 10,7 km/h (2 Bft) SO 134 0 min 0,000 mm 1,0 UV-I 287 W/m -7,6 C -2,4 C 14,5 km/h (3 Bft) 95,12 %
24.02.2019 11:48 1,4 C 5,6 C 7,2 C 50 % 1040,2 hPa 0,0 l/m 5,5 km/h (1 Bft) SO 129 0 min 0,000 mm 1,0 UV-I 280 W/m -7,9 C 1,4 C 8,0 km/h (2 Bft) 93,62 %
24.02.2019 11:50 1,4 C 5,6 C 6,7 C 51 % 1040,1 hPa 0,0 l/m 4,7 km/h (1 Bft) S-SO 157 0 min 0,000 mm 1,0 UV-I 271 W/m -7,6 C 1,4 C 8,0 km/h (2 Bft) 95,12 %
24.02.2019 11:52 1,4 C 5,6 C 6,7 C 51 % 1040,2 hPa 0,0 l/m 4,3 km/h (1 Bft) SO 145 0 min 0,000 mm 1,0 UV-I 264 W/m -7,6 C 1,4 C 8,0 km/h (2 Bft) 98,00 %
24.02.2019 11:54 1,7 C 5,6 C 7,2 C 52 % 1040,1 hPa 0,0 l/m 5,7 km/h (1 Bft) S 179 0 min 0,000 mm 1,0 UV-I 263 W/m -7,1 C 1,7 C 9,7 km/h (2 Bft) 98,11 %
24.02.2019 11:56 1,7 C 5,6 C 6,7 C 52 % 1040,1 hPa 0,0 l/m 5,8 km/h (2 Bft) S 175 0 min 0,000 mm 1,0 UV-I 257 W/m -7,1 C 1,7 C 11,3 km/h (2 Bft) 97,87 %
24.02.2019 11:58 1,7 C 5,6 C 6,7 C 49 % 1040,1 hPa 0,0 l/m 7,4 km/h (2 Bft) S 170 0 min 0,000 mm 1,0 UV-I 248 W/m -7,8 C 0,7 C 12,9 km/h (3 Bft) 95,74 %
24.02.2019 12:00 1,8 C 5,6 C 6,1 C 50 % 1040,2 hPa 0,0 l/m 5,3 km/h (1 Bft) S-SO 147 0 min 0,127 mm 0,9 UV-I 237 W/m -7,5 C 1,8 C 9,7 km/h (2 Bft) 96,00 %
24.02.2019 12:02 1,8 C 5,6 C 6,1 C 50 % 1040,2 hPa 0,0 l/m 6,8 km/h (2 Bft) SO 131 0 min 0,000 mm 0,9 UV-I 231 W/m -7,5 C 1,4 C 8,0 km/h (2 Bft) 100,00 %
24.02.2019 12:04 1,8 C 5,6 C 6,1 C 51 % 1040,2 hPa 0,0 l/m 6,9 km/h (2 Bft) S-SO 157 0 min 0,000 mm 0,9 UV-I 229 W/m -7,2 C 1,3 C 12,9 km/h (3 Bft) 96,00 %
24.02.2019 12:06 1,8 C 5,6 C 6,1 C 51 % 1040,1 hPa 0,0 l/m 6,6 km/h (2 Bft) SO 144 0 min 0,000 mm 0,9 UV-I 224 W/m -7,2 C 1,6 C 9,7 km/h (2 Bft) 92,00 %
24.02.2019 12:08 1,9 C 5,6 C 6,1 C 50 % 1040,1 hPa 0,0 l/m 7,2 km/h (2 Bft) SO 144 0 min 0,000 mm 0,9 UV-I 213 W/m -7,4 C 1,1 C 12,9 km/h (3 Bft) 97,37 %
24.02.2019 12:10 1,8 C 5,6 C 6,1 C 49 % 1040,1 hPa 0,0 l/m 4,0 km/h (1 Bft) S-SO 151 0 min 0,000 mm 0,8 UV-I 208 W/m -7,8 C 1,8 C 8,0 km/h (2 Bft) 95,83 %
24.02.2019 12:12 1,9 C 5,6 C 6,1 C 50 % 1040,1 hPa 0,0 l/m 4,4 km/h (1 Bft) O-NO 78 0 min 0,000 mm 0,8 UV-I 204 W/m -7,4 C 1,9 C 9,7 km/h (2 Bft) 91,49 %
24.02.2019 12:14 1,9 C 5,6 C 5,6 C 49 % 1040,1 hPa 0,0 l/m 7,3 km/h (2 Bft) O-NO 74 0 min 0,000 mm 0,8 UV-I 202 W/m -7,7 C 1,0 C 12,9 km/h (3 Bft) 95,12 %
24.02.2019 12:16 1,9 C 5,6 C 5,6 C 48 % 1040,1 hPa 0,0 l/m 4,4 km/h (1 Bft) O 82 0 min 0,000 mm 0,9 UV-I 205 W/m -7,9 C 1,9 C 6,4 km/h (2 Bft) 95,16 %
24.02.2019 12:18 1,9 C 5,6 C 6,1 C 49 % 1040,0 hPa 0,0 l/m 3,5 km/h (1 Bft) O 101 0 min 0,000 mm 0,9 UV-I 207 W/m -7,7 C 1,9 C 4,8 km/h (1 Bft) 95,12 %
24.02.2019 12:20 2,1 C 5,6 C 6,1 C 51 % 1040,0 hPa 0,0 l/m 4,1 km/h (1 Bft) O 82 0 min 0,000 mm 0,9 UV-I 210 W/m -7,0 C 2,1 C 4,8 km/h (1 Bft) 95,83 %
24.02.2019 12:22 2,1 C 5,6 C 6,1 C 50 % 1040,1 hPa 0,0 l/m 5,4 km/h (1 Bft) O 91 0 min 0,000 mm 0,9 UV-I 226 W/m -7,2 C 2,1 C 8,0 km/h (2 Bft) 90,00 %
24.02.2019 12:24 2,1 C 5,6 C 6,7 C 51 % 1040,1 hPa 0,0 l/m 3,9 km/h (1 Bft) O 94 0 min 0,000 mm 0,9 UV-I 235 W/m -7,0 C 2,1 C 6,4 km/h (2 Bft) 97,37 %
24.02.2019 12:26 2,2 C 5,6 C 6,7 C 51 % 1040,0 hPa 0,0 l/m 4,4 km/h (1 Bft) O 101 0 min 0,000 mm 0,9 UV-I 238 W/m -6,9 C 2,2 C 6,4 km/h (2 Bft) 88,00 %
24.02.2019 12:28 2,1 C 5,6 C 6,7 C 51 % 1039,9 hPa 0,0 l/m 3,3 km/h (1 Bft) SO 129 0 min 0,000 mm 0,9 UV-I 242 W/m -7,0 C 2,1 C 6,4 km/h (2 Bft) 96,23 %
24.02.2019 12:30 2,0 C 5,6 C 6,7 C 51 % 1039,9 hPa 0,0 l/m 1,8 km/h (1 Bft) S-SO 148 0 min 0,000 mm 0,9 UV-I 246 W/m -7,1 C 2,0 C 4,8 km/h (1 Bft) 95,45 %
24.02.2019 12:32 2,1 C 5,6 C 7,2 C 52 % 1039,9 hPa 0,0 l/m 4,7 km/h (1 Bft) SO 137 0 min 0,000 mm 1,0 UV-I 253 W/m -6,7 C 2,1 C 6,4 km/h (2 Bft) 97,73 %
24.02.2019 12:34 2,2 C 5,6 C 7,2 C 50 % 1039,9 hPa 0,0 l/m 2,7 km/h (1 Bft) O-SO 123 0 min 0,000 mm 1,0 UV-I 259 W/m -7,1 C 2,2 C 6,4 km/h (2 Bft) 98,00 %
24.02.2019 12:36 2,2 C 5,6 C 7,2 C 50 % 1039,9 hPa 0,0 l/m 1,8 km/h (1 Bft) O-SO 123 0 min 0,000 mm 1,0 UV-I 271 W/m -7,1 C 2,2 C 3,2 km/h (1 Bft) 89,36 %
24.02.2019 12:38 2,3 C 5,6 C 7,8 C 48 % 1039,9 hPa 0,0 l/m 2,0 km/h (1 Bft) O-SO 121 0 min 0,000 mm 1,1 UV-I 289 W/m -7,6 C 2,3 C 4,8 km/h (1 Bft) 90,24 %
24.02.2019 12:40 2,4 C 5,6 C 8,3 C 49 % 1039,9 hPa 0,0 l/m 3,7 km/h (1 Bft) O-SO 122 2 min 0,000 mm 1,1 UV-I 307 W/m -7,2 C 2,4 C 4,8 km/h (1 Bft) 89,36 %
24.02.2019 12:42 2,4 C 5,6 C 8,3 C 49 % 1039,9 hPa 0,0 l/m 5,1 km/h (1 Bft) O 82 2 min 0,000 mm 1,1 UV-I 319 W/m -7,2 C 2,4 C 8,0 km/h (2 Bft) 91,07 %
24.02.2019 12:44 2,6 C 5,6 C 7,8 C 49 % 1039,9 hPa 0,0 l/m 3,0 km/h (1 Bft) O 82 2 min 0,000 mm 1,1 UV-I 313 W/m -7,0 C 2,6 C 6,4 km/h (2 Bft) 94,29 %
24.02.2019 12:46 2,7 C 5,6 C 8,3 C 50 % 1039,9 hPa 0,0 l/m 4,6 km/h (1 Bft) O 80 0 min 0,000 mm 1,1 UV-I 291 W/m -6,7 C 2,7 C 6,4 km/h (2 Bft) 92,45 %
24.02.2019 12:48 2,7 C 5,6 C 7,8 C 50 % 1039,9 hPa 0,0 l/m 5,1 km/h (1 Bft) O 84 0 min 0,000 mm 1,1 UV-I 278 W/m -6,7 C 2,7 C 6,4 km/h (2 Bft) 92,00 %
24.02.2019 12:50 2,7 C 5,6 C 7,8 C 45 % 1039,8 hPa 0,0 l/m 5,8 km/h (2 Bft) O 90 0 min 0,000 mm 1,1 UV-I 273 W/m -8,0 C 2,7 C 9,7 km/h (2 Bft) 95,74 %
24.02.2019 12:52 2,6 C 5,6 C 7,8 C 44 % 1039,8 hPa 0,0 l/m 4,9 km/h (1 Bft) O 83 0 min 0,000 mm 1,1 UV-I 283 W/m -8,4 C 2,6 C 6,4 km/h (2 Bft) 75,00 %
24.02.2019 12:54 2,7 C 5,6 C 8,3 C 46 % 1039,8 hPa 0,0 l/m 4,2 km/h (1 Bft) O 82 2 min 0,000 mm 1,2 UV-I 326 W/m -7,7 C 2,7 C 6,4 km/h (2 Bft) 91,38 %
24.02.2019 12:56 2,9 C 5,6 C 8,9 C 50 % 1039,8 hPa 0,0 l/m 4,8 km/h (1 Bft) O-NO 69 2 min 0,000 mm 1,2 UV-I 345 W/m -6,5 C 2,9 C 6,4 km/h (2 Bft) 83,33 %
24.02.2019 12:58 2,9 C 5,6 C 7,8 C 48 % 1039,8 hPa 0,0 l/m 6,0 km/h (2 Bft) O-NO 60 2 min 0,000 mm 1,2 UV-I 365 W/m -7,0 C 2,9 C 8,0 km/h (2 Bft) 96,00 %
24.02.2019 13:00 3,0 C 5,6 C 8,3 C 50 % 1039,8 hPa 0,0 l/m 4,2 km/h (1 Bft) O-NO 78 2 min 0,127 mm 1,2 UV-I 368 W/m -6,4 C 3,0 C 6,4 km/h (2 Bft) 93,62 %
24.02.2019 13:02 3,1 C 5,6 C 8,9 C 46 % 1039,9 hPa 0,0 l/m 2,7 km/h (1 Bft) O-NO 61 2 min 0,000 mm 1,2 UV-I 327 W/m -7,4 C 3,1 C 4,8 km/h (1 Bft) 82,93 %
24.02.2019 13:04 3,1 C 5,6 C 8,3 C 46 % 1039,9 hPa 0,0 l/m 5,5 km/h (1 Bft) O-NO 70 0 min 0,000 mm 1,1 UV-I 290 W/m -7,4 C 3,1 C 8,0 km/h (2 Bft) 66,00 %
24.02.2019 13:06 3,2 C 5,6 C 8,3 C 44 % 1039,9 hPa 0,0 l/m 7,5 km/h (2 Bft) O-NO 75 2 min 0,000 mm 1,1 UV-I 296 W/m -7,9 C 2,2 C 11,3 km/h (2 Bft) 66,04 %
24.02.2019 13:08 3,2 C 5,6 C 8,9 C 42 % 1039,8 hPa 0,0 l/m 6,6 km/h (2 Bft) NO 53 2 min 0,000 mm 1,1 UV-I 312 W/m -8,4 C 3,0 C 9,7 km/h (2 Bft) 58,54 %
24.02.2019 13:10 3,2 C 5,6 C 8,3 C 47 % 1039,9 hPa 0,0 l/m 7,7 km/h (2 Bft) NO 50 2 min 0,000 mm 1,1 UV-I 297 W/m -7,0 C 2,0 C 9,7 km/h (2 Bft) 55,32 %
24.02.2019 13:12 3,2 C 5,6 C 7,8 C 47 % 1039,9 hPa 0,0 l/m 6,5 km/h (2 Bft) N-NO 30 2 min 0,000 mm 1,1 UV-I 292 W/m -7,0 C 3,1 C 9,7 km/h (2 Bft) 46,00 %
24.02.2019 13:14 3,3 C 5,6 C 7,8 C 48 % 1039,9 hPa 0,0 l/m 8,0 km/h (2 Bft) O-NO 68 0 min 0,000 mm 1,1 UV-I 255 W/m -6,6 C 1,8 C 12,9 km/h (3 Bft) 52,00 %
24.02.2019 13:16 3,3 C 5,6 C 7,8 C 45 % 1039,9 hPa 0,0 l/m 5,3 km/h (1 Bft) O-NO 77 2 min 0,000 mm 1,1 UV-I 287 W/m -7,5 C 3,3 C 8,0 km/h (2 Bft) 65,71 %
24.02.2019 13:18 3,3 C 5,6 C 8,3 C 44 % 1039,9 hPa 0,0 l/m 5,6 km/h (1 Bft) O 80 2 min 0,000 mm 1,1 UV-I 334 W/m -7,8 C 3,3 C 11,3 km/h (2 Bft) 56,82 %
24.02.2019 13:20 3,3 C 5,6 C 8,9 C 40 % 1039,9 hPa 0,0 l/m 7,4 km/h (2 Bft) O-NO 58 2 min 0,000 mm 1,1 UV-I 343 W/m -9,0 C 2,4 C 11,3 km/h (2 Bft) 54,72 %
24.02.2019 13:22 3,4 C 5,6 C 8,9 C 40 % 1039,8 hPa 0,0 l/m 5,7 km/h (1 Bft) O-SO 103 2 min 0,000 mm 1,1 UV-I 321 W/m -8,9 C 3,4 C 8,0 km/h (2 Bft) 58,00 %
24.02.2019 13:24 3,4 C 5,6 C 9,4 C 40 % 1039,8 hPa 0,0 l/m 5,6 km/h (1 Bft) O-NO 74 2 min 0,000 mm 1,0 UV-I 300 W/m -8,9 C 3,4 C 8,0 km/h (2 Bft) 64,00 %
24.02.2019 13:26 3,5 C 5,6 C 8,9 C 40 % 1039,7 hPa 0,0 l/m 7,5 km/h (2 Bft) O-SO 110 0 min 0,000 mm 1,0 UV-I 257 W/m -8,8 C 2,5 C 11,3 km/h (2 Bft) 72,22 %
24.02.2019 13:28 3,4 C 5,6 C 8,3 C 41 % 1039,7 hPa 0,0 l/m 6,0 km/h (2 Bft) O-SO 118 0 min 0,000 mm 0,7 UV-I 227 W/m -8,6 C 3,4 C 9,7 km/h (2 Bft) 78,00 %
24.02.2019 13:30 3,3 C 5,6 C 7,8 C 39 % 1039,5 hPa 0,0 l/m 3,5 km/h (1 Bft) O-NO 73 0 min 0,000 mm 0,7 UV-I 197 W/m -9,3 C 3,3 C 6,4 km/h (2 Bft) 73,58 %
24.02.2019 13:32 3,2 C 5,6 C 7,2 C 40 % 1039,5 hPa 0,0 l/m 5,7 km/h (1 Bft) O-NO 76 0 min 0,000 mm 0,5 UV-I 155 W/m -9,1 C 3,2 C 8,0 km/h (2 Bft) 57,45 %
24.02.2019 13:34 3,2 C 5,6 C 6,7 C 44 % 1039,3 hPa 0,0 l/m 4,5 km/h (1 Bft) O-SO 105 0 min 0,000 mm 0,5 UV-I 134 W/m -7,9 C 3,2 C 6,4 km/h (2 Bft) 80,49 %
24.02.2019 13:36 3,2 C 5,6 C 6,1 C 43 % 1039,2 hPa 0,0 l/m 5,2 km/h (1 Bft) O 84 0 min 0,000 mm 0,6 UV-I 155 W/m -8,1 C 3,2 C 9,7 km/h (2 Bft) 91,49 %
24.02.2019 13:38 3,2 C 5,6 C 6,7 C 42 % 1039,3 hPa 0,0 l/m 6,1 km/h (2 Bft) O 80 0 min 0,000 mm 0,8 UV-I 192 W/m -8,4 C 3,2 C 9,7 km/h (2 Bft) 88,00 %
24.02.2019 13:40 3,2 C 5,6 C 7,2 C 42 % 1039,3 hPa 0,0 l/m 3,7 km/h (1 Bft) O 84 0 min 0,000 mm 0,8 UV-I 232 W/m -8,4 C 3,2 C 6,4 km/h (2 Bft) 92,00 %
24.02.2019 13:42 3,3 C 5,6 C 7,8 C 40 % 1039,3 hPa 0,0 l/m 3,1 km/h (1 Bft) O-NO 64 0 min 0,000 mm 0,8 UV-I 229 W/m -9,0 C 3,3 C 6,4 km/h (2 Bft) 78,38 %
24.02.2019 13:44 3,3 C 5,6 C 7,2 C 42 % 1039,3 hPa 0,0 l/m 4,8 km/h (1 Bft) O-SO 107 0 min 0,000 mm 0,7 UV-I 214 W/m -8,4 C 3,3 C 8,0 km/h (2 Bft) 73,21 %
24.02.2019 13:46 3,4 C 5,6 C 7,2 C 42 % 1039,4 hPa 0,0 l/m 6,3 km/h (2 Bft) O-NO 74 0 min 0,000 mm 0,7 UV-I 207 W/m -8,3 C 3,4 C 9,7 km/h (2 Bft) 62,86 %
24.02.2019 13:48 3,4 C 5,6 C 6,7 C 42 % 1039,4 hPa 0,0 l/m 4,1 km/h (1 Bft) O-NO 74 0 min 0,000 mm 0,5 UV-I 143 W/m -8,3 C 3,4 C 6,4 km/h (2 Bft) 90,57 %
24.02.2019 13:50 3,3 C 5,6 C 6,1 C 44 % 1039,5 hPa 0,0 l/m 4,4 km/h (1 Bft) O-NO 76 0 min 0,000 mm 0,0 UV-I 101 W/m -7,8 C 3,3 C 6,4 km/h (2 Bft) 100,00 %
24.02.2019 13:52 3,3 C 5,6 C 6,1 C 40 % 1039,3 hPa 0,0 l/m 3,6 km/h (1 Bft) O 79 0 min 0,000 mm 0,0 UV-I 97 W/m -9,0 C 3,3 C 6,4 km/h (2 Bft) 100,00 %
24.02.2019 13:54 3,2 C 5,6 C 5,6 C 38 % 1039,3 hPa 0,0 l/m 3,1 km/h (1 Bft) O 86 0 min 0,000 mm 0,0 UV-I 103 W/m -9,7 C 3,2 C 4,8 km/h (1 Bft) 95,12 %
24.02.2019 13:56 3,2 C 5,6 C 5,6 C 39 % 1039,2 hPa 0,0 l/m 3,1 km/h (1 Bft) O 86 0 min 0,000 mm 0,0 UV-I 105 W/m -9,4 C 3,2 C 4,8 km/h (1 Bft) 98,00 %
24.02.2019 13:58 3,2 C 5,6 C 5,6 C 38 % 1039,2 hPa 0,0 l/m 3,2 km/h (1 Bft) O 87 0 min 0,000 mm 0,0 UV-I 115 W/m -9,7 C 3,2 C 4,8 km/h (1 Bft) 98,00 %
24.02.2019 14:00 3,2 C 5,6 C 5,6 C 40 % 1039,2 hPa 0,0 l/m 2,8 km/h (1 Bft) O 87 0 min 0,102 mm 0,0 UV-I 118 W/m -9,1 C 3,2 C 4,8 km/h (1 Bft) 100,00 %
24.02.2019 14:02 3,2 C 5,6 C 5,6 C 41 % 1039,2 hPa 0,0 l/m 3,3 km/h (1 Bft) O 86 0 min 0,000 mm 0,0 UV-I 99 W/m -8,8 C 3,2 C 4,8 km/h (1 Bft) 97,87 %
24.02.2019 14:04 3,1 C 5,6 C 5,0 C 40 % 1039,2 hPa 0,0 l/m 1,8 km/h (1 Bft) O 86 0 min 0,000 mm 0,0 UV-I 80 W/m -9,2 C 3,1 C 3,2 km/h (1 Bft) 100,00 %
24.02.2019 14:06 3,1 C 5,6 C 5,0 C 42 % 1039,2 hPa 0,0 l/m 1,5 km/h (1 Bft) O 86 0 min 0,000 mm 0,0 UV-I 73 W/m -8,5 C 3,1 C 3,2 km/h (1 Bft) 98,00 %
24.02.2019 14:08 3,1 C 5,6 C 4,4 C 41 % 1039,3 hPa 0,0 l/m 2,7 km/h (1 Bft) O 86 0 min 0,000 mm 0,0 UV-I 70 W/m -8,8 C 3,1 C 4,8 km/h (1 Bft) 96,00 %
24.02.2019 14:10 3,1 C 5,6 C 4,4 C 39 % 1039,3 hPa 0,0 l/m 3,0 km/h (1 Bft) O 88 0 min 0,000 mm 0,0 UV-I 70 W/m -9,5 C 3,1 C 4,8 km/h (1 Bft) 97,87 %
24.02.2019 14:12 3,1 C 5,6 C 4,4 C 41 % 1039,3 hPa 0,0 l/m 3,4 km/h (1 Bft) O 87 0 min 0,000 mm 0,0 UV-I 74 W/m -8,8 C 3,1 C 4,8 km/h (1 Bft) 100,00 %
24.02.2019 14:14 3,1 C 5,6 C 4,4 C 41 % 1039,3 hPa 0,0 l/m 4,1 km/h (1 Bft) O-NO 78 0 min 0,000 mm 0,0 UV-I 80 W/m -8,8 C 3,1 C 6,4 km/h (2 Bft) 94,64 %
24.02.2019 14:16 3,2 C 5,6 C 4,4 C 41 % 1039,3 hPa 0,0 l/m 4,0 km/h (1 Bft) O-NO 63 0 min 0,000 mm 0,0 UV-I 82 W/m -8,8 C 3,2 C 4,8 km/h (1 Bft) 84,21 %
24.02.2019 14:18 3,1 C 5,6 C 4,4 C 45 % 1039,3 hPa 0,0 l/m 5,2 km/h (1 Bft) O-NO 64 0 min 0,000 mm 0,0 UV-I 79 W/m -7,7 C 3,1 C 6,4 km/h (2 Bft) 91,49 %
24.02.2019 14:20 3,1 C 5,6 C 4,4 C 45 % 1039,4 hPa 0,0 l/m 4,8 km/h (1 Bft) O-NO 61 0 min 0,000 mm 0,0 UV-I 79 W/m -7,7 C 3,1 C 6,4 km/h (2 Bft) 98,21 %
24.02.2019 14:22 3,0 C 5,6 C 3,9 C 45 % 1039,4 hPa 0,0 l/m 3,9 km/h (1 Bft) O-NO 57 0 min 0,000 mm 0,0 UV-I 80 W/m -7,7 C 3,0 C 4,8 km/h (1 Bft) 100,00 %
24.02.2019 14:24 3,0 C 5,6 C 4,4 C 46 % 1039,4 hPa 0,0 l/m 3,8 km/h (1 Bft) NO 51 0 min 0,000 mm 0,0 UV-I 85 W/m -7,5 C 3,0 C 6,4 km/h (2 Bft) 93,62 %
24.02.2019 14:26 3,1 C 5,6 C 4,4 C 45 % 1039,3 hPa 0,0 l/m 2,8 km/h (1 Bft) O-NO 63 0 min 0,000 mm 0,0 UV-I 86 W/m -7,7 C 3,1 C 4,8 km/h (1 Bft) 100,00 %
24.02.2019 14:28 3,1 C 5,6 C 4,4 C 45 % 1039,3 hPa 0,0 l/m 2,7 km/h (1 Bft) O-NO 59 0 min 0,000 mm 0,0 UV-I 90 W/m -7,7 C 3,1 C 4,8 km/h (1 Bft) 100,00 %
24.02.2019 14:30 3,1 C 5,6 C 4,4 C 48 % 1039,3 hPa 0,0 l/m 3,9 km/h (1 Bft) O-NO 59 0 min 0,000 mm 0,0 UV-I 101 W/m -6,8 C 3,1 C 4,8 km/h (1 Bft) 100,00 %
24.02.2019 14:32 3,0 C 5,6 C 5,0 C 51 % 1039,3 hPa 0,0 l/m 4,0 km/h (1 Bft) NO 52 0 min 0,000 mm 0,1 UV-I 119 W/m -6,1 C 3,0 C 4,8 km/h (1 Bft) 100,00 %
24.02.2019 14:34 3,1 C 5,6 C 5,0 C 52 % 1039,3 hPa 0,0 l/m 4,2 km/h (1 Bft) NO 36 0 min 0,000 mm 0,5 UV-I 134 W/m -5,8 C 3,1 C 6,4 km/h (2 Bft) 100,00 %
24.02.2019 14:36 3,1 C 5,6 C 5,0 C 50 % 1039,4 hPa 0,0 l/m 4,3 km/h (1 Bft) NO 36 0 min 0,000 mm 0,5 UV-I 141 W/m -6,3 C 3,1 C 4,8 km/h (1 Bft) 97,56 %
24.02.2019 14:38 3,1 C 5,6 C 5,0 C 49 % 1039,4 hPa 0,0 l/m 5,8 km/h (2 Bft) NO 41 0 min 0,000 mm 0,0 UV-I 137 W/m -6,6 C 3,1 C 8,0 km/h (2 Bft) 100,00 %
24.02.2019 14:40 3,1 C 5,6 C 5,6 C 45 % 1039,4 hPa 0,0 l/m 5,0 km/h (1 Bft) NO 47 0 min 0,000 mm 0,0 UV-I 135 W/m -7,7 C 3,1 C 6,4 km/h (2 Bft) 97,92 %
24.02.2019 14:42 3,2 C 5,6 C 5,6 C 48 % 1039,4 hPa 0,0 l/m 4,4 km/h (1 Bft) NO 47 0 min 0,000 mm 0,0 UV-I 125 W/m -6,7 C 3,2 C 6,4 km/h (2 Bft) 100,00 %
24.02.2019 14:44 3,1 C 5,6 C 5,0 C 46 % 1039,4 hPa 0,0 l/m 5,0 km/h (1 Bft) N 360 0 min 0,000 mm 0,0 UV-I 109 W/m -7,4 C 3,1 C 6,4 km/h (2 Bft) 98,00 %
24.02.2019 14:46 3,1 C 5,6 C 5,0 C 47 % 1039,5 hPa 0,0 l/m 4,8 km/h (1 Bft) N-NO 30 0 min 0,000 mm 0,0 UV-I 94 W/m -7,1 C 3,1 C 6,4 km/h (2 Bft) 93,62 %
24.02.2019 14:48 3,1 C 5,6 C 4,4 C 47 % 1039,5 hPa 0,0 l/m 4,8 km/h (1 Bft) NO 52 0 min 0,000 mm 0,0 UV-I 86 W/m -7,1 C 3,1 C 6,4 km/h (2 Bft) 97,87 %
24.02.2019 14:50 3,1 C 5,6 C 4,4 C 46 % 1039,4 hPa 0,0 l/m 5,4 km/h (1 Bft) N-NO 19 0 min 0,000 mm 0,0 UV-I 89 W/m -7,4 C 3,1 C 8,0 km/h (2 Bft) 94,34 %
24.02.2019 14:52 3,0 C 5,6 C 4,4 C 48 % 1039,4 hPa 0,0 l/m 5,4 km/h (1 Bft) NO 41 0 min 0,000 mm 0,0 UV-I 92 W/m -6,9 C 3,0 C 8,0 km/h (2 Bft) 95,00 %
24.02.2019 14:54 2,9 C 5,6 C 4,4 C 47 % 1039,4 hPa 0,0 l/m 6,4 km/h (2 Bft) NO 46 0 min 0,000 mm 0,0 UV-I 93 W/m -7,3 C 2,9 C 8,0 km/h (2 Bft) 90,00 %
24.02.2019 14:56 2,9 C 5,6 C 4,4 C 47 % 1039,4 hPa 0,0 l/m 6,7 km/h (2 Bft) NO 55 0 min 0,000 mm 0,0 UV-I 92 W/m -7,3 C 2,6 C 8,0 km/h (2 Bft) 93,18 %
24.02.2019 14:58 2,9 C 5,6 C 4,4 C 46 % 1039,3 hPa 0,0 l/m 4,6 km/h (1 Bft) O-NO 71 0 min 0,000 mm 0,0 UV-I 95 W/m -7,6 C 2,9 C 8,0 km/h (2 Bft) 96,00 %
24.02.2019 15:00 3,0 C 5,6 C 4,4 C 44 % 1039,3 hPa 0,0 l/m 4,7 km/h (1 Bft) O-NO 74 0 min 0,050 mm 0,0 UV-I 112 W/m -8,0 C 3,0 C 6,4 km/h (2 Bft) 87,80 %
24.02.2019 15:02 3,0 C 5,6 C 5,0 C 45 % 1039,2 hPa 0,0 l/m 3,7 km/h (1 Bft) O-NO 71 0 min 0,000 mm 0,0 UV-I 132 W/m -7,7 C 3,0 C 6,4 km/h (2 Bft) 96,00 %
24.02.2019 15:04 3,1 C 5,6 C 5,0 C 44 % 1039,2 hPa 0,0 l/m 4,0 km/h (1 Bft) O-NO 69 0 min 0,000 mm 0,0 UV-I 144 W/m -7,9 C 3,1 C 4,8 km/h (1 Bft) 92,00 %
24.02.2019 15:06 3,2 C 5,6 C 5,6 C 46 % 1039,2 hPa 0,0 l/m 6,1 km/h (2 Bft) NO 37 0 min 0,000 mm 0,0 UV-I 137 W/m -7,3 C 3,2 C 8,0 km/h (2 Bft) 94,74 %
24.02.2019 15:08 3,1 C 5,6 C 5,6 C 48 % 1039,2 hPa 0,0 l/m 4,4 km/h (1 Bft) NO 38 0 min 0,000 mm 0,0 UV-I 129 W/m -6,8 C 3,1 C 6,4 km/h (2 Bft) 97,87 %
24.02.2019 15:10 3,1 C 5,6 C 5,6 C 45 % 1039,2 hPa 0,0 l/m 1,9 km/h (1 Bft) NO 38 0 min 0,000 mm 0,0 UV-I 139 W/m -7,7 C 3,1 C 3,2 km/h (1 Bft) 98,11 %
24.02.2019 15:12 3,2 C 5,6 C 5,6 C 46 % 1039,2 hPa 0,0 l/m 2,3 km/h (1 Bft) NO 37 0 min 0,000 mm 0,0 UV-I 149 W/m -7,3 C 3,2 C 4,8 km/h (1 Bft) 96,00 %
24.02.2019 15:14 3,2 C 5,6 C 5,6 C 47 % 1039,2 hPa 0,0 l/m 4,7 km/h (1 Bft) O 88 0 min 0,000 mm 0,0 UV-I 139 W/m -7,0 C 3,2 C 6,4 km/h (2 Bft) 97,87 %
24.02.2019 15:16 3,2 C 5,6 C 5,6 C 43 % 1039,2 hPa 0,0 l/m 4,6 km/h (1 Bft) NO 55 0 min 0,000 mm 0,0 UV-I 118 W/m -8,1 C 3,2 C 8,0 km/h (2 Bft) 96,97 %
24.02.2019 15:18 3,2 C 5,6 C 5,6 C 45 % 1039,1 hPa 0,0 l/m 4,0 km/h (1 Bft) NO 55 0 min 0,000 mm 0,0 UV-I 99 W/m -7,6 C 3,2 C 4,8 km/h (1 Bft) 100,00 %
24.02.2019 15:20 3,2 C 5,6 C 5,0 C 47 % 1039,1 hPa 0,0 l/m 4,2 km/h (1 Bft) NO 55 0 min 0,000 mm 0,0 UV-I 91 W/m -7,0 C 3,2 C 6,4 km/h (2 Bft) 93,62 %
24.02.2019 15:22 3,2 C 5,6 C 5,0 C 48 % 1039,0 hPa 0,0 l/m 3,5 km/h (1 Bft) O-NO 65 0 min 0,000 mm 0,0 UV-I 95 W/m -6,7 C 3,2 C 4,8 km/h (1 Bft) 100,00 %
24.02.2019 15:24 3,2 C 5,6 C 5,6 C 45 % 1039,0 hPa 0,0 l/m 1,8 km/h (1 Bft) O-NO 65 0 min 0,000 mm 0,0 UV-I 118 W/m -7,6 C 3,2 C 4,8 km/h (1 Bft) 100,00 %
24.02.2019 15:26 3,1 C 5,6 C 5,6 C 43 % 1038,9 hPa 0,0 l/m 0,0 km/h (0 Bft) O-NO 65 0 min 0,000 mm 0,0 UV-I 148 W/m -8,2 C 3,1 C 1,6 km/h (1 Bft) 97,87 %
24.02.2019 15:28 3,2 C 5,6 C 6,1 C 43 % 1038,8 hPa 0,0 l/m 0,1 km/h (0 Bft) O-NO 65 0 min 0,000 mm 0,0 UV-I 143 W/m -8,1 C 3,2 C 1,6 km/h (1 Bft) 100,00 %
24.02.2019 15:30 3,2 C 5,6 C 6,1 C 42 % 1038,8 hPa 0,0 l/m 0,0 km/h (0 Bft) O-NO 65 0 min 0,000 mm 0,0 UV-I 120 W/m -8,4 C 3,2 C 1,6 km/h (1 Bft) 97,73 %
24.02.2019 15:32 3,1 C 5,6 C 6,1 C 44 % 1038,8 hPa 0,0 l/m 1,8 km/h (1 Bft) O-NO 65 0 min 0,000 mm 0,0 UV-I 108 W/m -7,9 C 3,1 C 4,8 km/h (1 Bft) 98,00 %
24.02.2019 15:34 3,2 C 5,6 C 5,6 C 43 % 1038,8 hPa 0,0 l/m 2,2 km/h (1 Bft) O-NO 66 0 min 0,000 mm 0,0 UV-I 106 W/m -8,1 C 3,2 C 4,8 km/h (1 Bft) 100,00 %
24.02.2019 15:36 3,2 C 5,6 C 5,6 C 45 % 1038,7 hPa 0,0 l/m 2,0 km/h (1 Bft) O-NO 66 0 min 0,000 mm 0,0 UV-I 113 W/m -7,6 C 3,2 C 3,2 km/h (1 Bft) 100,00 %
24.02.2019 15:38 3,3 C 5,6 C 5,6 C 43 % 1038,8 hPa 0,0 l/m 3,5 km/h (1 Bft) O-NO 76 0 min 0,000 mm 0,0 UV-I 108 W/m -8,1 C 3,3 C 4,8 km/h (1 Bft) 96,23 %
24.02.2019 15:40 3,3 C 5,6 C 5,6 C 43 % 1038,8 hPa 0,0 l/m 4,2 km/h (1 Bft) O-NO 77 0 min 0,000 mm 0,0 UV-I 96 W/m -8,1 C 3,3 C 6,4 km/h (2 Bft) 100,00 %
24.02.2019 15:42 3,3 C 5,6 C 5,6 C 44 % 1038,9 hPa 0,0 l/m 3,1 km/h (1 Bft) O-NO 76 0 min 0,000 mm 0,0 UV-I 92 W/m -7,8 C 3,3 C 4,8 km/h (1 Bft) 100,00 %
24.02.2019 15:44 3,3 C 5,6 C 5,0 C 47 % 1038,9 hPa 0,0 l/m 4,0 km/h (1 Bft) O-NO 76 0 min 0,000 mm 0,0 UV-I 95 W/m -6,9 C 3,3 C 6,4 km/h (2 Bft) 100,00 %
24.02.2019 15:46 3,2 C 5,6 C 5,0 C 45 % 1038,9 hPa 0,0 l/m 2,4 km/h (1 Bft) O-NO 76 0 min 0,000 mm 0,0 UV-I 99 W/m -7,6 C 3,2 C 4,8 km/h (1 Bft) 98,11 %
24.02.2019 15:48 3,2 C 5,6 C 5,0 C 44 % 1038,8 hPa 0,0 l/m 2,9 km/h (1 Bft) O-SO 102 0 min 0,000 mm 0,0 UV-I 98 W/m -7,9 C 3,2 C 4,8 km/h (1 Bft) 100,00 %
24.02.2019 15:50 3,2 C 5,6 C 5,0 C 42 % 1038,8 hPa 0,0 l/m 4,3 km/h (1 Bft) O 93 0 min 0,000 mm 0,0 UV-I 96 W/m -8,4 C 3,2 C 6,4 km/h (2 Bft) 100,00 %
24.02.2019 15:52 3,3 C 5,6 C 5,0 C 42 % 1038,8 hPa 0,0 l/m 5,0 km/h (1 Bft) O 81 0 min 0,000 mm 0,0 UV-I 94 W/m -8,4 C 3,3 C 6,4 km/h (2 Bft) 100,00 %
24.02.2019 15:54 3,3 C 5,6 C 5,0 C 43 % 1038,8 hPa 0,0 l/m 5,2 km/h (1 Bft) O 82 0 min 0,000 mm 0,0 UV-I 90 W/m -8,1 C 3,3 C 6,4 km/h (2 Bft) 100,00 %
24.02.2019 15:56 3,3 C 5,6 C 5,0 C 43 % 1038,9 hPa 0,0 l/m 5,1 km/h (1 Bft) O-NO 67 0 min 0,000 mm 0,0 UV-I 86 W/m -8,1 C 3,3 C 6,4 km/h (2 Bft) 100,00 %
24.02.2019 15:58 3,3 C 5,6 C 5,0 C 42 % 1038,9 hPa 0,0 l/m 4,6 km/h (1 Bft) O-NO 71 0 min 0,000 mm 0,0 UV-I 83 W/m -8,4 C 3,3 C 6,4 km/h (2 Bft) 100,00 %
24.02.2019 16:00 3,2 C 5,6 C 5,0 C 45 % 1039,0 hPa 0,0 l/m 5,2 km/h (1 Bft) O 82 0 min 0,051 mm 0,0 UV-I 82 W/m -7,6 C 3,2 C 8,0 km/h (2 Bft) 98,00 %
24.02.2019 16:02 3,2 C 5,6 C 5,0 C 43 % 1038,9 hPa 0,0 l/m 4,6 km/h (1 Bft) O-NO 60 0 min 0,000 mm 0,0 UV-I 81 W/m -8,1 C 3,2 C 6,4 km/h (2 Bft) 100,00 %
24.02.2019 16:04 3,2 C 5,6 C 5,0 C 44 % 1038,8 hPa 0,0 l/m 4,9 km/h (1 Bft) O-NO 68 0 min 0,000 mm 0,0 UV-I 81 W/m -7,9 C 3,2 C 6,4 km/h (2 Bft) 97,06 %
24.02.2019 16:06 3,2 C 5,6 C 4,4 C 46 % 1038,9 hPa 0,0 l/m 5,0 km/h (1 Bft) O-NO 70 0 min 0,000 mm 0,0 UV-I 81 W/m -7,3 C 3,2 C 6,4 km/h (2 Bft) 95,74 %
24.02.2019 16:09 3,2 C 5,6 C 4,4 C 43 % 1039,0 hPa 0,0 l/m 4,1 km/h (1 Bft) O-NO 62 0 min 0,000 mm 0,0 UV-I 78 W/m -8,1 C 3,2 C 4,8 km/h (1 Bft) 97,37 %
24.02.2019 16:10 3,2 C 5,6 C 4,4 C 46 % 1039,0 hPa 0,0 l/m 5,8 km/h (2 Bft) NO 52 0 min 0,000 mm 0,0 UV-I 75 W/m -7,3 C 3,2 C 6,4 km/h (2 Bft) 91,67 %
24.02.2019 16:12 3,2 C 5,6 C 4,4 C 45 % 1039,0 hPa 0,0 l/m 4,4 km/h (1 Bft) O-NO 61 0 min 0,000 mm 0,0 UV-I 73 W/m -7,6 C 3,2 C 6,4 km/h (2 Bft) 97,87 %
24.02.2019 16:14 3,2 C 5,6 C 4,4 C 46 % 1039,1 hPa 0,0 l/m 4,7 km/h (1 Bft) O-NO 61 0 min 0,000 mm 0,0 UV-I 70 W/m -7,3 C 3,2 C 8,0 km/h (2 Bft) 96,23 %
24.02.2019 16:16 3,2 C 5,6 C 4,4 C 48 % 1039,2 hPa 0,0 l/m 6,0 km/h (2 Bft) O-NO 60 0 min 0,000 mm 0,0 UV-I 67 W/m -6,7 C 3,2 C 8,0 km/h (2 Bft) 95,12 %
24.02.2019 16:18 3,1 C 5,6 C 4,4 C 48 % 1039,2 hPa 0,0 l/m 4,9 km/h (1 Bft) O-NO 60 0 min 0,000 mm 0,0 UV-I 66 W/m -6,8 C 3,1 C 6,4 km/h (2 Bft) 95,74 %
24.02.2019 16:20 3,1 C 5,6 C 3,9 C 45 % 1039,1 hPa 0,0 l/m 4,7 km/h (1 Bft) NO 40 0 min 0,000 mm 0,0 UV-I 66 W/m -7,7 C 3,1 C 6,4 km/h (2 Bft) 94,64 %
24.02.2019 16:22 3,1 C 5,6 C 3,9 C 48 % 1039,2 hPa 0,0 l/m 5,8 km/h (2 Bft) NO 46 0 min 0,000 mm 0,0 UV-I 55 W/m -6,8 C 3,1 C 8,0 km/h (2 Bft) 97,14 %
24.02.2019 16:24 3,0 C 5,6 C 3,9 C 48 % 1039,3 hPa 0,0 l/m 6,5 km/h (2 Bft) NO 49 0 min 0,000 mm 0,0 UV-I 42 W/m -6,9 C 2,9 C 8,0 km/h (2 Bft) 98,00 %
24.02.2019 16:26 2,9 C 5,6 C 3,3 C 51 % 1039,3 hPa 0,0 l/m 6,7 km/h (2 Bft) N-NO 28 0 min 0,000 mm 0,0 UV-I 33 W/m -6,2 C 2,6 C 9,7 km/h (2 Bft) 100,00 %
24.02.2019 16:28 2,8 C 5,6 C 3,3 C 50 % 1039,3 hPa 0,0 l/m 6,5 km/h (2 Bft) NO 44 0 min 0,000 mm 0,0 UV-I 33 W/m -6,6 C 2,7 C 9,7 km/h (2 Bft) 100,00 %
24.02.2019 16:30 2,8 C 5,6 C 3,3 C 49 % 1039,3 hPa 0,0 l/m 7,8 km/h (2 Bft) NO 34 0 min 0,000 mm 0,0 UV-I 32 W/m -6,8 C 1,5 C 9,7 km/h (2 Bft) 98,00 %
24.02.2019 16:32 2,8 C 5,6 C 2,8 C 49 % 1039,3 hPa 0,0 l/m 7,9 km/h (2 Bft) NO 36 0 min 0,000 mm 0,0 UV-I 30 W/m -6,8 C 1,4 C 9,7 km/h (2 Bft) 100,00 %
24.02.2019 16:34 2,8 C 5,6 C 2,8 C 48 % 1039,3 hPa 0,0 l/m 7,0 km/h (2 Bft) NO 48 0 min 0,000 mm 0,0 UV-I 30 W/m -7,1 C 2,2 C 11,3 km/h (2 Bft) 97,87 %
24.02.2019 16:36 2,8 C 5,6 C 2,8 C 49 % 1039,3 hPa 0,0 l/m 7,4 km/h (2 Bft) NO 48 0 min 0,000 mm 0,0 UV-I 28 W/m -6,8 C 1,8 C 9,7 km/h (2 Bft) 97,87 %
24.02.2019 16:38 2,7 C 5,6 C 2,8 C 50 % 1039,3 hPa 0,0 l/m 5,8 km/h (2 Bft) NO 43 0 min 0,000 mm 0,0 UV-I 27 W/m -6,7 C 2,7 C 8,0 km/h (2 Bft) 97,56 %
24.02.2019 16:40 2,7 C 5,6 C 2,8 C 50 % 1039,3 hPa 0,0 l/m 7,4 km/h (2 Bft) NO 41 0 min 0,000 mm 0,0 UV-I 26 W/m -6,7 C 1,7 C 9,7 km/h (2 Bft) 100,00 %
24.02.2019 16:42 2,6 C 5,6 C 2,8 C 48 % 1039,3 hPa 0,0 l/m 7,5 km/h (2 Bft) NO 54 0 min 0,000 mm 0,0 UV-I 25 W/m -7,3 C 1,5 C 9,7 km/h (2 Bft) 98,44 %
24.02.2019 16:44 2,6 C 5,6 C 2,8 C 49 % 1039,3 hPa 0,0 l/m 7,9 km/h (2 Bft) O-NO 57 0 min 0,000 mm 0,0 UV-I 24 W/m -7,0 C 1,2 C 11,3 km/h (2 Bft) 97,62 %
24.02.2019 16:46 2,6 C 5,6 C 2,8 C 49 % 1039,3 hPa 0,0 l/m 7,2 km/h (2 Bft) O-NO 66 0 min 0,000 mm 0,0 UV-I 22 W/m -7,0 C 1,8 C 9,7 km/h (2 Bft) 97,87 %
24.02.2019 16:48 2,6 C 5,6 C 2,8 C 47 % 1039,3 hPa 0,0 l/m 5,9 km/h (2 Bft) O-NO 61 0 min 0,000 mm 0,0 UV-I 20 W/m -7,6 C 2,6 C 8,0 km/h (2 Bft) 94,00 %
24.02.2019 16:50 2,6 C 5,6 C 2,8 C 48 % 1039,3 hPa 0,0 l/m 6,9 km/h (2 Bft) O-NO 60 0 min 0,000 mm 0,0 UV-I 19 W/m -7,3 C 2,1 C 9,7 km/h (2 Bft) 96,00 %
24.02.2019 16:52 2,6 C 5,6 C 2,8 C 46 % 1039,3 hPa 0,0 l/m 5,0 km/h (1 Bft) O-NO 71 0 min 0,000 mm 0,0 UV-I 18 W/m -7,8 C 2,6 C 6,4 km/h (2 Bft) 97,37 %
24.02.2019 16:54 2,6 C 5,6 C 2,8 C 46 % 1039,3 hPa 0,0 l/m 5,2 km/h (1 Bft) O-NO 69 0 min 0,000 mm 0,0 UV-I 18 W/m -7,8 C 2,6 C 8,0 km/h (2 Bft) 96,23 %
24.02.2019 16:56 2,7 C 5,6 C 2,8 C 45 % 1039,3 hPa 0,0 l/m 3,8 km/h (1 Bft) NO 55 0 min 0,000 mm 0,0 UV-I 16 W/m -8,0 C 2,7 C 6,4 km/h (2 Bft) 95,12 %
24.02.2019 16:58 2,7 C 5,6 C 2,8 C 47 % 1039,2 hPa 0,0 l/m 2,9 km/h (1 Bft) O-NO 65 0 min 0,000 mm 0,0 UV-I 16 W/m -7,5 C 2,7 C 4,8 km/h (1 Bft) 98,00 %
24.02.2019 17:00 2,6 C 5,6 C 2,8 C 46 % 1039,2 hPa 0,0 l/m 3,4 km/h (1 Bft) O 88 0 min 0,000 mm 0,0 UV-I 14 W/m -7,8 C 2,6 C 4,8 km/h (1 Bft) 92,68 %
24.02.2019 17:02 2,6 C 5,6 C 2,8 C 46 % 1039,2 hPa 0,0 l/m 3,4 km/h (1 Bft) O 88 0 min 0,051 mm 0,0 UV-I 14 W/m -7,8 C 2,6 C 4,8 km/h (1 Bft) 96,23 %
24.02.2019 17:04 2,6 C 5,6 C 2,8 C 50 % 1039,2 hPa 0,0 l/m 2,4 km/h (1 Bft) O 88 0 min 0,000 mm 0,0 UV-I 14 W/m -6,8 C 2,6 C 4,8 km/h (1 Bft) 94,00 %
24.02.2019 17:06 2,5 C 5,6 C 2,2 C 51 % 1039,2 hPa 0,0 l/m 1,3 km/h (1 Bft) O 88 0 min 0,000 mm 0,0 UV-I 14 W/m -6,6 C 2,5 C 3,2 km/h (1 Bft) 97,73 %
24.02.2019 17:08 2,6 C 5,6 C 2,2 C 50 % 1039,1 hPa 0,0 l/m 0,8 km/h (0 Bft) O 88 0 min 0,000 mm 0,0 UV-I 14 W/m -6,8 C 2,6 C 1,6 km/h (1 Bft) 97,73 %
24.02.2019 17:10 2,4 C 5,6 C 2,2 C 52 % 1039,1 hPa 0,0 l/m 1,4 km/h (1 Bft) O 88 0 min 0,000 mm 0,0 UV-I 14 W/m -6,4 C 2,4 C 3,2 km/h (1 Bft) 96,23 %
24.02.2019 17:12 2,4 C 5,6 C 2,2 C 51 % 1039,2 hPa 0,0 l/m 1,7 km/h (1 Bft) O 88 0 min 0,000 mm 0,0 UV-I 14 W/m -6,7 C 2,4 C 3,2 km/h (1 Bft) 97,37 %
24.02.2019 17:14 2,4 C 5,6 C 2,2 C 48 % 1039,1 hPa 0,0 l/m 2,4 km/h (1 Bft) O 89 0 min 0,000 mm 0,0 UV-I 14 W/m -7,5 C 2,4 C 4,8 km/h (1 Bft) 98,00 %
24.02.2019 17:16 2,5 C 5,6 C 2,2 C 46 % 1039,1 hPa 0,0 l/m 4,0 km/h (1 Bft) SO 131 0 min 0,000 mm 0,0 UV-I 14 W/m -7,9 C 2,5 C 6,4 km/h (2 Bft) 95,56 %
24.02.2019 17:19 2,5 C 5,6 C 2,2 C 45 % 1039,0 hPa 0,0 l/m 3,3 km/h (1 Bft) SO 134 0 min 0,000 mm 0,0 UV-I 12 W/m -8,2 C 2,5 C 6,4 km/h (2 Bft) 98,73 %
24.02.2019 17:20 2,5 C 5,6 C 2,2 C 46 % 1039,0 hPa 0,0 l/m 2,9 km/h (1 Bft) SO 134 0 min 0,000 mm 0,0 UV-I 12 W/m -7,9 C 2,5 C 4,8 km/h (1 Bft) 100,00 %
24.02.2019 17:22 2,4 C 5,6 C 2,2 C 48 % 1039,2 hPa 0,0 l/m 2,8 km/h (1 Bft) SO 134 0 min 0,000 mm 0,0 UV-I 11 W/m -7,5 C 2,4 C 3,2 km/h (1 Bft) 98,21 %
24.02.2019 17:24 2,4 C 5,6 C 2,2 C 47 % 1039,2 hPa 0,0 l/m 1,9 km/h (1 Bft) SO 134 0 min 0,000 mm 0,0 UV-I 10 W/m -7,7 C 2,4 C 3,2 km/h (1 Bft) 97,56 %
24.02.2019 17:26 2,4 C 5,6 C 2,2 C 47 % 1039,3 hPa 0,0 l/m 2,0 km/h (1 Bft) SO 134 0 min 0,000 mm 0,0 UV-I 9 W/m -7,7 C 2,4 C 3,2 km/h (1 Bft) 95,74 %
24.02.2019 17:28 2,3 C 5,6 C 2,2 C 48 % 1039,3 hPa 0,0 l/m 3,0 km/h (1 Bft) SO 134 0 min 0,000 mm 0,0 UV-I 8 W/m -7,6 C 2,3 C 4,8 km/h (1 Bft) 96,00 %
24.02.2019 17:30 2,3 C 5,6 C 2,2 C 46 % 1039,4 hPa 0,0 l/m 4,3 km/h (1 Bft) O 93 0 min 0,000 mm 0,0 UV-I 7 W/m -8,1 C 2,3 C 6,4 km/h (2 Bft) 97,37 %
24.02.2019 17:32 2,3 C 5,6 C 2,2 C 47 % 1039,4 hPa 0,0 l/m 4,7 km/h (1 Bft) O 101 0 min 0,000 mm 0,0 UV-I 7 W/m -7,8 C 2,3 C 6,4 km/h (2 Bft) 96,00 %
24.02.2019 17:34 2,2 C 5,6 C 2,2 C 54 % 1039,4 hPa 0,0 l/m 3,6 km/h (1 Bft) SO 125 0 min 0,000 mm 0,0 UV-I 7 W/m -6,1 C 2,2 C 6,4 km/h (2 Bft) 98,21 %
24.02.2019 17:36 2,2 C 5,6 C 2,2 C 48 % 1039,3 hPa 0,0 l/m 4,0 km/h (1 Bft) SO 142 0 min 0,000 mm 0,0 UV-I 7 W/m -7,6 C 2,2 C 6,4 km/h (2 Bft) 95,45 %
24.02.2019 17:38 2,3 C 5,6 C 2,2 C 47 % 1039,3 hPa 0,0 l/m 2,4 km/h (1 Bft) SO 143 0 min 0,000 mm 0,0 UV-I 7 W/m -7,8 C 2,3 C 3,2 km/h (1 Bft) 97,56 %
24.02.2019 17:40 2,3 C 5,6 C 2,2 C 47 % 1039,3 hPa 0,0 l/m 2,5 km/h (1 Bft) SO 143 0 min 0,000 mm 0,0 UV-I 7 W/m -7,8 C 2,3 C 4,8 km/h (1 Bft) 94,34 %
24.02.2019 17:42 2,2 C 5,6 C 1,7 C 50 % 1039,3 hPa 0,0 l/m 3,1 km/h (1 Bft) SO 143 0 min 0,000 mm 0,0 UV-I 5 W/m -7,1 C 2,2 C 4,8 km/h (1 Bft) 97,37 %
24.02.2019 17:44 2,2 C 5,6 C 1,7 C 52 % 1039,3 hPa 0,0 l/m 4,4 km/h (1 Bft) O-SO 115 0 min 0,000 mm 0,0 UV-I 5 W/m -6,6 C 2,2 C 6,4 km/h (2 Bft) 100,00 %
24.02.2019 17:46 2,1 C 5,6 C 1,7 C 50 % 1039,4 hPa 0,0 l/m 3,5 km/h (1 Bft) O-SO 116 0 min 0,000 mm 0,0 UV-I 5 W/m -7,2 C 2,1 C 6,4 km/h (2 Bft) 100,00 %
24.02.2019 17:48 2,1 C 5,6 C 1,7 C 48 % 1039,5 hPa 0,0 l/m 1,8 km/h (1 Bft) O-SO 116 0 min 0,000 mm 0,0 UV-I 3 W/m -7,7 C 2,1 C 3,2 km/h (1 Bft) 97,56 %
24.02.2019 17:50 2,2 C 5,6 C 1,7 C 48 % 1039,5 hPa 0,0 l/m 1,3 km/h (1 Bft) O-SO 116 0 min 0,000 mm 0,0 UV-I 0 W/m -7,6 C 2,2 C 3,2 km/h (1 Bft) 98,00 %
24.02.2019 17:52 2,2 C 5,6 C 1,7 C 47 % 1039,5 hPa 0,0 l/m 0,7 km/h (0 Bft) O-SO 116 0 min 0,000 mm 0,0 UV-I 0 W/m -7,9 C 2,2 C 3,2 km/h (1 Bft) 100,00 %
24.02.2019 17:54 2,2 C 5,6 C 1,7 C 46 % 1039,5 hPa 0,0 l/m 1,0 km/h (0 Bft) O-SO 116 0 min 0,000 mm 0,0 UV-I 0 W/m -8,2 C 2,2 C 3,2 km/h (1 Bft) 97,62 %
24.02.2019 17:56 2,2 C 5,6 C 1,7 C 46 % 1039,4 hPa 0,0 l/m 1,4 km/h (1 Bft) O-SO 116 0 min 0,000 mm 0,0 UV-I 0 W/m -8,2 C 2,2 C 3,2 km/h (1 Bft) 98,18 %
24.02.2019 17:58 2,3 C 5,6 C 1,7 C 47 % 1039,5 hPa 0,0 l/m 1,6 km/h (1 Bft) O-SO 116 0 min 0,000 mm 0,0 UV-I 0 W/m -7,8 C 2,3 C 3,2 km/h (1 Bft) 95,83 %
24.02.2019 18:00 2,2 C 5,6 C 1,7 C 47 % 1039,6 hPa 0,0 l/m 1,5 km/h (1 Bft) O-SO 116 0 min 0,000 mm 0,0 UV-I 0 W/m -7,9 C 2,2 C 3,2 km/h (1 Bft) 100,00 %
24.02.2019 18:02 2,2 C 5,6 C 1,7 C 48 % 1039,7 hPa 0,0 l/m 2,4 km/h (1 Bft) O-SO 116 0 min 0,025 mm 0,0 UV-I 0 W/m -7,6 C 2,2 C 3,2 km/h (1 Bft) 97,37 %
24.02.2019 18:04 2,2 C 5,6 C 1,7 C 51 % 1039,8 hPa 0,0 l/m 1,9 km/h (1 Bft) O-SO 116 0 min 0,000 mm 0,0 UV-I 0 W/m -6,9 C 2,2 C 3,2 km/h (1 Bft) 100,00 %
24.02.2019 18:06 2,1 C 5,6 C 1,7 C 48 % 1039,7 hPa 0,0 l/m 2,1 km/h (1 Bft) O-SO 116 0 min 0,000 mm 0,0 UV-I 0 W/m -7,7 C 2,1 C 3,2 km/h (1 Bft) 100,00 %
24.02.2019 18:09 2,2 C 5,6 C 1,7 C 50 % 1039,7 hPa 0,0 l/m 1,8 km/h (1 Bft) O-SO 116 0 min 0,000 mm 0,0 UV-I 0 W/m -7,1 C 2,2 C 3,2 km/h (1 Bft) 95,52 %
24.02.2019 18:10 2,2 C 5,6 C 1,7 C 50 % 1039,7 hPa 0,0 l/m 2,3 km/h (1 Bft) O-SO 116 0 min 0,000 mm 0,0 UV-I 0 W/m -7,1 C 2,2 C 3,2 km/h (1 Bft) 100,00 %
24.02.2019 18:12 2,2 C 5,6 C 1,7 C 49 % 1039,7 hPa 0,0 l/m 1,5 km/h (1 Bft) O-SO 116 0 min 0,000 mm 0,0 UV-I 0 W/m -7,4 C 2,2 C 3,2 km/h (1 Bft) 95,74 %
24.02.2019 18:14 2,2 C 5,6 C 1,7 C 49 % 1039,7 hPa 0,0 l/m 0,8 km/h (0 Bft) O-SO 116 0 min 0,000 mm 0,0 UV-I 0 W/m -7,4 C 2,2 C 1,6 km/h (1 Bft) 98,00 %
24.02.2019 18:16 2,2 C 5,6 C 1,7 C 50 % 1039,7 hPa 0,0 l/m 0,5 km/h (0 Bft) O-SO 116 0 min 0,000 mm 0,0 UV-I 0 W/m -7,1 C 2,2 C 1,6 km/h (1 Bft) 97,56 %
24.02.2019 18:18 2,2 C 5,6 C 1,7 C 49 % 1039,8 hPa 0,0 l/m 0,5 km/h (0 Bft) O-SO 116 0 min 0,000 mm 0,0 UV-I 0 W/m -7,4 C 2,2 C 1,6 km/h (1 Bft) 95,74 %
24.02.2019 18:20 2,2 C 5,6 C 1,7 C 50 % 1039,8 hPa 0,0 l/m 1,1 km/h (1 Bft) O-SO 116 0 min 0,000 mm 0,0 UV-I 0 W/m -7,1 C 2,2 C 3,2 km/h (1 Bft) 96,00 %
24.02.2019 18:22 2,2 C 5,6 C 1,7 C 52 % 1039,8 hPa 0,0 l/m 1,8 km/h (1 Bft) O-SO 116 0 min 0,000 mm 0,0 UV-I 0 W/m -6,6 C 2,2 C 3,2 km/h (1 Bft) 96,00 %
24.02.2019 18:24 2,1 C 5,6 C 1,7 C 52 % 1039,8 hPa 0,0 l/m 1,8 km/h (1 Bft) O-SO 116 0 min 0,000 mm 0,0 UV-I 0 W/m -6,7 C 2,1 C 3,2 km/h (1 Bft) 94,74 %
24.02.2019 18:26 2,1 C 5,6 C 1,7 C 51 % 1039,8 hPa 0,0 l/m 1,9 km/h (1 Bft) O-SO 116 0 min 0,000 mm 0,0 UV-I 0 W/m -7,0 C 2,1 C 3,2 km/h (1 Bft) 94,00 %
24.02.2019 18:28 2,1 C 5,6 C 1,7 C 53 % 1039,8 hPa 0,0 l/m 1,5 km/h (1 Bft) O-SO 116 0 min 0,000 mm 0,0 UV-I 0 W/m -6,5 C 2,1 C 3,2 km/h (1 Bft) 95,74 %
24.02.2019 18:30 2,1 C 5,6 C 1,7 C 53 % 1039,8 hPa 0,0 l/m 0,5 km/h (0 Bft) O-SO 116 0 min 0,000 mm 0,0 UV-I 0 W/m -6,5 C 2,1 C 1,6 km/h (1 Bft) 95,74 %
24.02.2019 18:32 2,1 C 5,6 C 1,7 C 51 % 1039,8 hPa 0,0 l/m 0,6 km/h (0 Bft) O-SO 116 0 min 0,000 mm 0,0 UV-I 0 W/m -7,0 C 2,1 C 1,6 km/h (1 Bft) 97,87 %
24.02.2019 18:34 2,1 C 5,6 C 1,1 C 53 % 1039,8 hPa 0,0 l/m 1,1 km/h (1 Bft) O-SO 116 0 min 0,000 mm 0,0 UV-I 0 W/m -6,5 C 2,1 C 1,6 km/h (1 Bft) 97,22 %
24.02.2019 18:36 2,0 C 5,6 C 1,1 C 53 % 1039,8 hPa 0,0 l/m 1,5 km/h (1 Bft) O-SO 116 0 min 0,000 mm 0,0 UV-I 0 W/m -6,6 C 2,0 C 3,2 km/h (1 Bft) 96,77 %
24.02.2019 18:38 2,0 C 5,6 C 1,1 C 52 % 1039,9 hPa 0,0 l/m 0,9 km/h (0 Bft) O-SO 116 0 min 0,000 mm 0,0 UV-I 0 W/m -6,8 C 2,0 C 1,6 km/h (1 Bft) 94,74 %
24.02.2019 18:40 2,0 C 5,6 C 1,1 C 52 % 1039,9 hPa 0,0 l/m 0,4 km/h (0 Bft) O-SO 116 0 min 0,000 mm 0,0 UV-I 0 W/m -6,8 C 2,0 C 1,6 km/h (1 Bft) 92,00 %
24.02.2019 18:42 2,1 C 5,6 C 1,1 C 52 % 1039,9 hPa 0,0 l/m 0,0 km/h (0 Bft) O-SO 116 0 min 0,000 mm 0,0 UV-I 0 W/m -6,7 C 2,1 C 0,0 km/h (0 Bft) 95,74 %
24.02.2019 18:44 2,0 C 5,6 C 1,1 C 52 % 1039,9 hPa 0,0 l/m 0,0 km/h (0 Bft) O-SO 116 0 min 0,000 mm 0,0 UV-I 0 W/m -6,8 C 2,0 C 0,0 km/h (0 Bft) 98,00 %
24.02.2019 18:46 2,0 C 5,6 C 1,1 C 53 % 1040,0 hPa 0,0 l/m 0,1 km/h (0 Bft) O-SO 116 0 min 0,000 mm 0,0 UV-I 0 W/m -6,6 C 2,0 C 1,6 km/h (1 Bft) 96,00 %
24.02.2019 18:48 2,0 C 5,6 C 1,1 C 53 % 1040,0 hPa 0,0 l/m 0,2 km/h (0 Bft) O-SO 116 0 min 0,000 mm 0,0 UV-I 0 W/m -6,6 C 2,0 C 1,6 km/h (1 Bft) 89,47 %
24.02.2019 18:50 1,9 C 5,6 C 1,1 C 53 % 1040,0 hPa 0,0 l/m 0,0 km/h (0 Bft) O-SO 116 0 min 0,000 mm 0,0 UV-I 0 W/m -6,6 C 1,9 C 0,0 km/h (0 Bft) 93,62 %
24.02.2019 18:52 1,9 C 5,6 C 1,1 C 54 % 1040,0 hPa 0,0 l/m 0,0 km/h (0 Bft) O-SO 116 0 min 0,000 mm 0,0 UV-I 0 W/m -6,4 C 1,9 C 0,0 km/h (0 Bft) 89,36 %
24.02.2019 18:54 1,9 C 5,6 C 1,1 C 54 % 1040,0 hPa 0,0 l/m 0,0 km/h (0 Bft) O-SO 116 0 min 0,000 mm 0,0 UV-I 0 W/m -6,4 C 1,9 C 0,0 km/h (0 Bft) 94,34 %
24.02.2019 18:56 1,9 C 5,6 C 1,1 C 53 % 1040,0 hPa 0,0 l/m 0,0 km/h (0 Bft) O-SO 116 0 min 0,000 mm 0,0 UV-I 0 W/m -6,6 C 1,9 C 0,0 km/h (0 Bft) 91,49 %
24.02.2019 18:58 2,0 C 5,6 C 1,1 C 53 % 1040,1 hPa 0,0 l/m 0,3 km/h (0 Bft) O-SO 116 0 min 0,000 mm 0,0 UV-I 0 W/m -6,6 C 2,0 C 1,6 km/h (1 Bft) 93,62 %
24.02.2019 19:00 2,0 C 5,6 C 1,1 C 53 % 1040,2 hPa 0,0 l/m 1,4 km/h (1 Bft) O-SO 116 0 min 0,000 mm 0,0 UV-I 0 W/m -6,6 C 2,0 C 3,2 km/h (1 Bft) 90,24 %
24.02.2019 19:02 1,9 C 5,6 C 1,1 C 53 % 1040,2 hPa 0,0 l/m 2,6 km/h (1 Bft) O-SO 116 0 min 0,000 mm 0,0 UV-I 0 W/m -6,6 C 1,9 C 3,2 km/h (1 Bft) 96,00 %
24.02.2019 19:04 1,9 C 5,6 C 1,1 C 54 % 1040,3 hPa 0,0 l/m 3,0 km/h (1 Bft) O-SO 115 0 min 0,000 mm 0,0 UV-I 0 W/m -6,4 C 1,9 C 3,2 km/h (1 Bft) 94,74 %
24.02.2019 19:06 1,8 C 5,6 C 1,1 C 56 % 1040,2 hPa 0,0 l/m 2,5 km/h (1 Bft) O-SO 115 0 min 0,000 mm 0,0 UV-I 0 W/m -6,0 C 1,8 C 3,2 km/h (1 Bft) 94,64 %
24.02.2019 19:08 1,7 C 5,6 C 1,1 C 56 % 1040,2 hPa 0,0 l/m 1,4 km/h (1 Bft) O-SO 115 0 min 0,000 mm 0,0 UV-I 0 W/m -6,1 C 1,7 C 3,2 km/h (1 Bft) 94,87 %
24.02.2019 19:10 1,7 C 5,6 C 1,1 C 54 % 1040,1 hPa 0,0 l/m 0,7 km/h (0 Bft) O-SO 115 0 min 0,000 mm 0,0 UV-I 0 W/m -6,6 C 1,7 C 3,2 km/h (1 Bft) 94,23 %
24.02.2019 19:12 1,8 C 5,6 C 1,1 C 55 % 1039,9 hPa 0,0 l/m 2,5 km/h (1 Bft) O-SO 115 0 min 0,000 mm 0,0 UV-I 0 W/m -6,3 C 1,8 C 3,2 km/h (1 Bft) 93,75 %
24.02.2019 19:14 1,8 C 5,6 C 1,1 C 56 % 1039,9 hPa 0,0 l/m 2,6 km/h (1 Bft) O-SO 121 0 min 0,000 mm 0,0 UV-I 0 W/m -6,0 C 1,8 C 3,2 km/h (1 Bft) 92,11 %
24.02.2019 19:16 1,8 C 5,6 C 1,1 C 56 % 1039,9 hPa 0,0 l/m 1,6 km/h (1 Bft) O-SO 121 0 min 0,000 mm 0,0 UV-I 0 W/m -6,0 C 1,8 C 3,2 km/h (1 Bft) 96,43 %
24.02.2019 19:18 1,8 C 5,6 C 1,1 C 56 % 1039,9 hPa 0,0 l/m 2,5 km/h (1 Bft) O-SO 121 0 min 0,000 mm 0,0 UV-I 0 W/m -6,0 C 1,8 C 4,8 km/h (1 Bft) 95,74 %
24.02.2019 19:20 1,8 C 5,6 C 1,1 C 59 % 1039,9 hPa 0,0 l/m 2,5 km/h (1 Bft) O-SO 122 0 min 0,000 mm 0,0 UV-I 0 W/m -5,3 C 1,8 C 3,2 km/h (1 Bft) 91,49 %
24.02.2019 19:22 1,7 C 5,6 C 1,1 C 62 % 1039,9 hPa 0,0 l/m 0,9 km/h (0 Bft) O-SO 121 0 min 0,000 mm 0,0 UV-I 0 W/m -4,8 C 1,7 C 3,2 km/h (1 Bft) 96,00 %
24.02.2019 19:24 1,4 C 5,6 C 1,1 C 63 % 1040,0 hPa 0,0 l/m 0,3 km/h (0 Bft) O-SO 122 0 min 0,000 mm 0,0 UV-I 0 W/m -4,9 C 1,4 C 1,6 km/h (1 Bft) 92,68 %
24.02.2019 19:26 1,3 C 5,6 C 1,1 C 62 % 1040,1 hPa 0,0 l/m 0,1 km/h (0 Bft) O-SO 121 0 min 0,000 mm 0,0 UV-I 0 W/m -5,2 C 1,3 C 1,6 km/h (1 Bft) 98,00 %
24.02.2019 19:28 1,3 C 5,6 C 1,1 C 60 % 1040,1 hPa 0,0 l/m 0,2 km/h (0 Bft) O-SO 121 0 min 0,000 mm 0,0 UV-I 0 W/m -5,6 C 1,3 C 1,6 km/h (1 Bft) 97,56 %
24.02.2019 19:30 1,4 C 5,6 C 1,1 C 61 % 1040,2 hPa 0,0 l/m 2,2 km/h (1 Bft) O-SO 121 0 min 0,000 mm 0,0 UV-I 0 W/m -5,3 C 1,4 C 3,2 km/h (1 Bft) 98,00 %
24.02.2019 19:32 1,3 C 5,6 C 1,1 C 64 % 1040,3 hPa 0,0 l/m 3,3 km/h (1 Bft) O-SO 121 0 min 0,000 mm 0,0 UV-I 0 W/m -4,7 C 1,3 C 4,8 km/h (1 Bft) 94,34 %
24.02.2019 19:34 1,3 C 5,6 C 1,1 C 64 % 1040,2 hPa 0,0 l/m 1,8 km/h (1 Bft) O-SO 121 0 min 0,000 mm 0,0 UV-I 0 W/m -4,7 C 1,3 C 3,2 km/h (1 Bft) 97,14 %
24.02.2019 19:36 1,4 C 5,6 C 1,1 C 63 % 1040,2 hPa 0,0 l/m 0,1 km/h (0 Bft) O-SO 121 0 min 0,000 mm 0,0 UV-I 0 W/m -4,9 C 1,4 C 1,6 km/h (1 Bft) 100,00 %
24.02.2019 19:38 1,4 C 5,6 C 1,1 C 59 % 1040,2 hPa 0,0 l/m 0,0 km/h (0 Bft) O-SO 121 0 min 0,000 mm 0,0 UV-I 0 W/m -5,7 C 1,4 C 0,0 km/h (0 Bft) 100,00 %
24.02.2019 19:40 1,6 C 5,6 C 1,1 C 59 % 1040,2 hPa 0,0 l/m 0,0 km/h (0 Bft) O-SO 121 0 min 0,000 mm 0,0 UV-I 0 W/m -5,5 C 1,6 C 0,0 km/h (0 Bft) 98,00 %
24.02.2019 19:42 1,6 C 5,6 C 1,1 C 63 % 1040,2 hPa 0,0 l/m 0,0 km/h (0 Bft) O-SO 121 0 min 0,000 mm 0,0 UV-I 0 W/m -4,7 C 1,6 C 0,0 km/h (0 Bft) 100,00 %
24.02.2019 19:44 1,6 C 5,6 C 1,1 C 64 % 1040,2 hPa 0,0 l/m 0,0 km/h (0 Bft) O-SO 121 0 min 0,000 mm 0,0 UV-I 0 W/m -4,5 C 1,6 C 0,0 km/h (0 Bft) 98,00 %
24.02.2019 19:46 1,6 C 5,6 C 1,1 C 62 % 1040,2 hPa 0,0 l/m 0,0 km/h (0 Bft) O-SO 121 0 min 0,000 mm 0,0 UV-I 0 W/m -4,9 C 1,6 C 0,0 km/h (0 Bft) 97,87 %
24.02.2019 19:48 1,6 C 5,6 C 1,1 C 63 % 1040,3 hPa 0,0 l/m 0,0 km/h (0 Bft) O-SO 121 0 min 0,000 mm 0,0 UV-I 0 W/m -4,7 C 1,6 C 0,0 km/h (0 Bft) 97,87 %
24.02.2019 19:50 1,4 C 5,6 C 1,1 C 64 % 1040,3 hPa 0,0 l/m 0,0 km/h (0 Bft) O-SO 121 0 min 0,000 mm 0,0 UV-I 0 W/m -4,6 C 1,4 C 0,0 km/h (0 Bft) 100,00 %
24.02.2019 19:52 1,4 C 5,6 C 1,1 C 63 % 1040,3 hPa 0,0 l/m 0,0 km/h (0 Bft) O-SO 121 0 min 0,000 mm 0,0 UV-I 0 W/m -4,9 C 1,4 C 0,0 km/h (0 Bft) 97,62 %
24.02.2019 19:54 1,4 C 5,6 C 1,1 C 64 % 1040,2 hPa 0,0 l/m 0,0 km/h (0 Bft) O-SO 121 0 min 0,000 mm 0,0 UV-I 0 W/m -4,6 C 1,4 C 0,0 km/h (0 Bft) 98,00 %
24.02.2019 19:56 1,4 C 5,6 C 1,1 C 63 % 1040,2 hPa 0,0 l/m 0,0 km/h (0 Bft) O-SO 121 0 min 0,000 mm 0,0 UV-I 0 W/m -4,9 C 1,4 C 0,0 km/h (0 Bft) 93,62 %
24.02.2019 19:58 1,4 C 5,6 C 1,1 C 62 % 1040,3 hPa 0,0 l/m 0,0 km/h (0 Bft) O-SO 121 0 min 0,000 mm 0,0 UV-I 0 W/m -5,1 C 1,4 C 0,0 km/h (0 Bft) 97,37 %
24.02.2019 20:00 1,4 C 5,6 C 1,1 C 60 % 1040,2 hPa 0,0 l/m 0,0 km/h (0 Bft) O-SO 121 0 min 0,000 mm 0,0 UV-I 0 W/m -5,5 C 1,4 C 0,0 km/h (0 Bft) 98,00 %
24.02.2019 20:02 1,6 C 5,6 C 1,1 C 60 % 1040,2 hPa 0,0 l/m 0,0 km/h (0 Bft) O-SO 121 0 min 0,000 mm 0,0 UV-I 0 W/m -5,3 C 1,6 C 0,0 km/h (0 Bft) 95,74 %
24.02.2019 20:04 1,6 C 5,6 C 1,1 C 59 % 1040,2 hPa 0,0 l/m 0,0 km/h (0 Bft) O-SO 121 0 min 0,000 mm 0,0 UV-I 0 W/m -5,5 C 1,6 C 0,0 km/h (0 Bft) 98,00 %
24.02.2019 20:06 1,7 C 5,6 C 1,1 C 60 % 1040,2 hPa 0,0 l/m 0,8 km/h (0 Bft) O-SO 121 0 min 0,000 mm 0,0 UV-I 0 W/m -5,2 C 1,7 C 1,6 km/h (1 Bft) 95,74 %
24.02.2019 20:08 1,7 C 5,6 C 1,1 C 61 % 1040,1 hPa 0,0 l/m 1,8 km/h (1 Bft) O-SO 121 0 min 0,000 mm 0,0 UV-I 0 W/m -5,0 C 1,7 C 3,2 km/h (1 Bft) 98,00 %
24.02.2019 20:10 1,7 C 5,6 C 1,1 C 62 % 1040,1 hPa 0,0 l/m 1,7 km/h (1 Bft) O-SO 121 0 min 0,000 mm 0,0 UV-I 0 W/m -4,8 C 1,7 C 3,2 km/h (1 Bft) 97,37 %
24.02.2019 20:12 1,7 C 5,6 C 1,7 C 62 % 1040,1 hPa 0,0 l/m 1,1 km/h (1 Bft) O-SO 121 0 min 0,000 mm 0,0 UV-I 0 W/m -4,8 C 1,7 C 1,6 km/h (1 Bft) 98,11 %
24.02.2019 20:14 1,7 C 5,6 C 1,7 C 63 % 1040,1 hPa 0,0 l/m 0,7 km/h (0 Bft) O-SO 121 0 min 0,000 mm 0,0 UV-I 0 W/m -4,6 C 1,7 C 1,6 km/h (1 Bft) 96,00 %
24.02.2019 20:16 1,7 C 5,6 C 1,7 C 63 % 1040,2 hPa 0,0 l/m 0,1 km/h (0 Bft) O-SO 121 0 min 0,000 mm 0,0 UV-I 0 W/m -4,6 C 1,7 C 1,6 km/h (1 Bft) 95,74 %
24.02.2019 20:18 1,7 C 5,6 C 1,1 C 63 % 1040,2 hPa 0,0 l/m 0,0 km/h (0 Bft) O-SO 121 0 min 0,000 mm 0,0 UV-I 0 W/m -4,6 C 1,7 C 0,0 km/h (0 Bft) 97,87 %
24.02.2019 20:20 1,6 C 5,6 C 1,1 C 65 % 1040,2 hPa 0,0 l/m 0,0 km/h (0 Bft) O-SO 121 0 min 0,000 mm 0,0 UV-I 0 W/m -4,3 C 1,6 C 0,0 km/h (0 Bft) 97,14 %
24.02.2019 20:22 1,6 C 5,6 C 1,1 C 66 % 1040,2 hPa 0,0 l/m 0,0 km/h (0 Bft) O-SO 121 0 min 0,000 mm 0,0 UV-I 0 W/m -4,1 C 1,6 C 0,0 km/h (0 Bft) 98,18 %
24.02.2019 20:24 1,6 C 5,6 C 1,1 C 65 % 1040,3 hPa 0,0 l/m 0,4 km/h (0 Bft) O-SO 121 0 min 0,000 mm 0,0 UV-I 0 W/m -4,3 C 1,6 C 1,6 km/h (1 Bft) 100,00 %
24.02.2019 20:26 1,6 C 5,6 C 1,7 C 64 % 1040,3 hPa 0,0 l/m 1,3 km/h (1 Bft) O-SO 121 0 min 0,000 mm 0,0 UV-I 0 W/m -4,5 C 1,6 C 1,6 km/h (1 Bft) 96,00 %
24.02.2019 20:28 1,6 C 5,6 C 1,7 C 64 % 1040,3 hPa 0,0 l/m 0,9 km/h (0 Bft) O-SO 121 0 min 0,000 mm 0,0 UV-I 0 W/m -4,5 C 1,6 C 1,6 km/h (1 Bft) 100,00 %
24.02.2019 20:30 1,6 C 5,6 C 1,1 C 64 % 1040,3 hPa 0,0 l/m 1,1 km/h (1 Bft) O-SO 121 0 min 0,000 mm 0,0 UV-I 0 W/m -4,5 C 1,6 C 1,6 km/h (1 Bft) 100,00 %
24.02.2019 20:35 1,6 C 5,6 C 1,1 C 65 % 1040,2 hPa 0,0 l/m 1,6 km/h (1 Bft) O-SO 112 0 min 0,000 mm 0,0 UV-I 0 W/m -4,3 C 1,6 C 3,2 km/h (1 Bft) 97,37 %
24.02.2019 20:40 1,6 C 5,6 C 1,1 C 64 % 1040,2 hPa 0,0 l/m 1,6 km/h (1 Bft) O-SO 112 0 min 0,000 mm 0,0 UV-I 0 W/m -4,5 C 1,6 C 3,2 km/h (1 Bft) 98,25 %
24.02.2019 20:45 1,6 C 5,6 C 1,1 C 64 % 1040,1 hPa 0,0 l/m 3,2 km/h (1 Bft) O-SO 112 0 min 0,000 mm 0,0 UV-I 0 W/m -4,5 C 1,6 C 4,8 km/h (1 Bft) 96,49 %
24.02.2019 20:50 1,4 C 5,6 C 1,1 C 64 % 1040,2 hPa 0,0 l/m 3,2 km/h (1 Bft) S-SO 157 0 min 0,000 mm 0,0 UV-I 0 W/m -4,6 C 1,4 C 6,4 km/h (2 Bft) 97,37 %
24.02.2019 20:55 1,4 C 5,6 C 0,6 C 63 % 1040,2 hPa 0,0 l/m 3,2 km/h (1 Bft) S-SO 157 0 min 0,000 mm 0,0 UV-I 0 W/m -4,9 C 1,4 C 3,2 km/h (1 Bft) 100,00 %
24.02.2019 21:00 1,3 C 5,6 C 0,6 C 65 % 1040,4 hPa 0,0 l/m 1,6 km/h (1 Bft) S-SO 157 0 min 0,000 mm 0,0 UV-I 0 W/m -4,5 C 1,3 C 3,2 km/h (1 Bft) 99,12 %
24.02.2019 21:05 1,3 C 5,6 C 0,6 C 63 % 1040,3 hPa 0,0 l/m 1,6 km/h (1 Bft) S-SO 157 0 min 0,000 mm 0,0 UV-I 0 W/m -5,0 C 1,3 C 3,2 km/h (1 Bft) 100,00 %
24.02.2019 21:10 1,4 C 5,6 C 0,6 C 62 % 1040,4 hPa 0,0 l/m 1,6 km/h (1 Bft) S-SO 157 0 min 0,000 mm 0,0 UV-I 0 W/m -5,1 C 1,4 C 3,2 km/h (1 Bft) 98,25 %
24.02.2019 21:16 1,3 C 5,6 C 0,6 C 62 % 1040,3 hPa 0,0 l/m 2,8 km/h (1 Bft) S-SO 164 0 min 0,000 mm 0,0 UV-I 0 W/m -5,2 C 1,3 C 3,2 km/h (1 Bft) 98,16 %
24.02.2019 21:18 1,3 C 5,6 C 0,6 C 62 % 1040,3 hPa 0,0 l/m 3,4 km/h (1 Bft) S-SO 165 0 min 0,000 mm 0,0 UV-I 0 W/m -5,2 C 1,3 C 6,4 km/h (2 Bft) 95,24 %
24.02.2019 21:20 1,3 C 5,6 C 0,6 C 63 % 1040,3 hPa 0,0 l/m 2,2 km/h (1 Bft) S-SO 164 0 min 0,000 mm 0,0 UV-I 0 W/m -5,0 C 1,3 C 6,4 km/h (2 Bft) 92,98 %
24.02.2019 21:22 1,1 C 5,6 C 0,6 C 65 % 1040,2 hPa 0,0 l/m 2,0 km/h (1 Bft) S-SO 165 0 min 0,000 mm 0,0 UV-I 0 W/m -4,7 C 1,1 C 3,2 km/h (1 Bft) 92,31 %
24.02.2019 21:24 0,8 C 5,6 C 0,0 C 67 % 1040,2 hPa 0,0 l/m 1,9 km/h (1 Bft) S-SO 165 0 min 0,000 mm 0,0 UV-I 0 W/m -4,6 C 0,8 C 3,2 km/h (1 Bft) 96,00 %
24.02.2019 21:26 0,8 C 5,6 C -0,6 C 67 % 1040,2 hPa 0,0 l/m 2,3 km/h (1 Bft) S-SO 165 0 min 0,000 mm 0,0 UV-I 0 W/m -4,6 C 0,8 C 3,2 km/h (1 Bft) 95,74 %
24.02.2019 21:28 0,8 C 5,6 C -0,6 C 67 % 1040,2 hPa 0,0 l/m 3,2 km/h (1 Bft) S-SW 196 0 min 0,000 mm 0,0 UV-I 0 W/m -4,6 C 0,8 C 4,8 km/h (1 Bft) 93,62 %
24.02.2019 21:30 0,9 C 5,6 C -1,1 C 64 % 1040,1 hPa 0,0 l/m 3,6 km/h (1 Bft) S-SW 196 0 min 0,000 mm 0,0 UV-I 0 W/m -5,1 C 0,9 C 4,8 km/h (1 Bft) 96,00 %
24.02.2019 21:32 1,1 C 5,6 C -1,1 C 62 % 1040,1 hPa 0,0 l/m 4,0 km/h (1 Bft) S-SW 209 0 min 0,000 mm 0,0 UV-I 0 W/m -5,3 C 1,1 C 4,8 km/h (1 Bft) 95,12 %
24.02.2019 21:34 1,1 C 5,6 C -1,1 C 63 % 1040,1 hPa 0,0 l/m 3,6 km/h (1 Bft) S-SW 209 0 min 0,000 mm 0,0 UV-I 0 W/m -5,1 C 1,1 C 4,8 km/h (1 Bft) 98,11 %
24.02.2019 21:36 1,0 C 5,6 C -1,1 C 64 % 1040,1 hPa 0,0 l/m 2,9 km/h (1 Bft) S-SW 209 0 min 0,000 mm 0,0 UV-I 0 W/m -5,0 C 1,0 C 4,8 km/h (1 Bft) 98,00 %
24.02.2019 21:38 0,9 C 5,6 C -1,1 C 66 % 1040,1 hPa 0,0 l/m 3,1 km/h (1 Bft) S-SW 209 0 min 0,000 mm 0,0 UV-I 0 W/m -4,7 C 0,9 C 3,2 km/h (1 Bft) 97,37 %
24.02.2019 21:40 0,9 C 5,6 C -1,1 C 69 % 1040,1 hPa 0,0 l/m 2,7 km/h (1 Bft) S-SW 209 0 min 0,000 mm 0,0 UV-I 0 W/m -4,1 C 0,9 C 3,2 km/h (1 Bft) 98,00 %
24.02.2019 21:42 0,9 C 5,6 C -1,1 C 70 % 1040,1 hPa 0,0 l/m 3,0 km/h (1 Bft) S-SW 209 0 min 0,000 mm 0,0 UV-I 0 W/m -3,9 C 0,9 C 3,2 km/h (1 Bft) 100,00 %
24.02.2019 21:44 0,8 C 5,6 C -1,1 C 70 % 1040,0 hPa 0,0 l/m 3,2 km/h (1 Bft) S-SW 209 0 min 0,000 mm 0,0 UV-I 0 W/m -4,0 C 0,8 C 4,8 km/h (1 Bft) 100,00 %
24.02.2019 21:46 0,8 C 5,6 C -0,6 C 69 % 1039,9 hPa 0,0 l/m 3,6 km/h (1 Bft) S-SW 209 0 min 0,000 mm 0,0 UV-I 0 W/m -4,2 C 0,8 C 4,8 km/h (1 Bft) 97,37 %
24.02.2019 21:48 0,8 C 5,6 C -0,6 C 70 % 1039,9 hPa 0,0 l/m 3,2 km/h (1 Bft) S-SW 209 0 min 0,000 mm 0,0 UV-I 0 W/m -4,0 C 0,8 C 4,8 km/h (1 Bft) 100,00 %
24.02.2019 21:50 0,7 C 5,6 C -0,6 C 69 % 1039,9 hPa 0,0 l/m 2,3 km/h (1 Bft) S-SW 209 0 min 0,000 mm 0,0 UV-I 0 W/m -4,3 C 0,7 C 3,2 km/h (1 Bft) 98,00 %
24.02.2019 21:52 0,6 C 5,6 C -0,6 C 70 % 1040,0 hPa 0,0 l/m 2,6 km/h (1 Bft) S-SW 209 0 min 0,000 mm 0,0 UV-I 0 W/m -4,2 C 0,6 C 3,2 km/h (1 Bft) 100,00 %
24.02.2019 21:54 0,6 C 5,6 C 0,0 C 70 % 1040,0 hPa 0,0 l/m 1,8 km/h (1 Bft) S-SW 209 0 min 0,000 mm 0,0 UV-I 0 W/m -4,2 C 0,6 C 3,2 km/h (1 Bft) 100,00 %
24.02.2019 21:56 0,6 C 5,6 C 0,0 C 69 % 1040,1 hPa 0,0 l/m 1,4 km/h (1 Bft) S-SW 209 0 min 0,000 mm 0,0 UV-I 0 W/m -4,4 C 0,6 C 3,2 km/h (1 Bft) 97,87 %
24.02.2019 21:58 0,6 C 5,6 C 0,0 C 69 % 1040,1 hPa 0,0 l/m 1,8 km/h (1 Bft) S-SW 209 0 min 0,000 mm 0,0 UV-I 0 W/m -4,4 C 0,6 C 3,2 km/h (1 Bft) 100,00 %
24.02.2019 22:00 0,6 C 5,6 C 0,0 C 68 % 1040,0 hPa 0,0 l/m 2,4 km/h (1 Bft) S-SW 209 0 min 0,000 mm 0,0 UV-I 0 W/m -4,6 C 0,6 C 3,2 km/h (1 Bft) 98,00 %
24.02.2019 22:02 0,7 C 5,6 C 0,0 C 67 % 1040,0 hPa 0,0 l/m 3,0 km/h (1 Bft) S-SW 209 0 min 0,000 mm 0,0 UV-I 0 W/m -4,7 C 0,7 C 4,8 km/h (1 Bft) 100,00 %
24.02.2019 22:04 0,8 C 5,6 C 0,0 C 66 % 1040,0 hPa 0,0 l/m 4,3 km/h (1 Bft) SW 214 0 min 0,000 mm 0,0 UV-I 0 W/m -4,8 C 0,8 C 4,8 km/h (1 Bft) 100,00 %
24.02.2019 22:06 0,9 C 5,6 C 0,6 C 64 % 1040,0 hPa 0,0 l/m 3,5 km/h (1 Bft) SW 214 0 min 0,000 mm 0,0 UV-I 0 W/m -5,1 C 0,9 C 4,8 km/h (1 Bft) 98,11 %
24.02.2019 22:08 0,9 C 5,6 C 0,6 C 65 % 1040,0 hPa 0,0 l/m 2,1 km/h (1 Bft) SW 214 0 min 0,000 mm 0,0 UV-I 0 W/m -4,9 C 0,9 C 4,8 km/h (1 Bft) 97,87 %
24.02.2019 22:10 0,9 C 5,6 C 0,6 C 66 % 1040,0 hPa 0,0 l/m 2,3 km/h (1 Bft) SW 214 0 min 0,000 mm 0,0 UV-I 0 W/m -4,7 C 0,9 C 4,8 km/h (1 Bft) 100,00 %
24.02.2019 22:12 0,9 C 5,6 C 0,6 C 66 % 1040,0 hPa 0,0 l/m 2,9 km/h (1 Bft) SW 214 0 min 0,000 mm 0,0 UV-I 0 W/m -4,7 C 0,9 C 4,8 km/h (1 Bft) 100,00 %
24.02.2019 22:14 0,9 C 5,6 C 0,6 C 66 % 1040,0 hPa 0,0 l/m 2,0 km/h (1 Bft) SW 214 0 min 0,000 mm 0,0 UV-I 0 W/m -4,7 C 0,9 C 3,2 km/h (1 Bft) 100,00 %
24.02.2019 22:16 0,9 C 5,6 C 0,6 C 66 % 1040,0 hPa 0,0 l/m 2,2 km/h (1 Bft) SW 214 0 min 0,000 mm 0,0 UV-I 0 W/m -4,7 C 0,9 C 3,2 km/h (1 Bft) 100,00 %
24.02.2019 22:18 0,9 C 5,6 C 0,6 C 67 % 1040,0 hPa 0,0 l/m 1,6 km/h (1 Bft) SW 214 0 min 0,000 mm 0,0 UV-I 0 W/m -4,5 C 0,9 C 3,2 km/h (1 Bft) 100,00 %
24.02.2019 22:20 1,0 C 5,6 C 0,6 C 67 % 1040,1 hPa 0,0 l/m 2,2 km/h (1 Bft) SW 214 0 min 0,000 mm 0,0 UV-I 0 W/m -4,4 C 1,0 C 3,2 km/h (1 Bft) 98,00 %
24.02.2019 22:22 1,0 C 5,6 C 0,6 C 68 % 1040,1 hPa 0,0 l/m 0,9 km/h (0 Bft) SW 214 0 min 0,000 mm 0,0 UV-I 0 W/m -4,2 C 1,0 C 3,2 km/h (1 Bft) 100,00 %
24.02.2019 22:24 1,0 C 5,6 C 0,6 C 69 % 1040,1 hPa 0,0 l/m 0,0 km/h (0 Bft) SW 214 0 min 0,000 mm 0,0 UV-I 0 W/m -4,0 C 1,0 C 0,0 km/h (0 Bft) 98,00 %
24.02.2019 22:26 1,1 C 5,6 C 0,6 C 68 % 1040,1 hPa 0,0 l/m 1,4 km/h (1 Bft) SW 214 0 min 0,000 mm 0,0 UV-I 0 W/m -4,1 C 1,1 C 3,2 km/h (1 Bft) 100,00 %
24.02.2019 22:29 1,1 C 5,6 C 0,6 C 67 % 1040,1 hPa 0,0 l/m 2,2 km/h (1 Bft) SW 214 0 min 0,000 mm 0,0 UV-I 0 W/m -4,3 C 1,1 C 3,2 km/h (1 Bft) 96,51 %
24.02.2019 22:30 1,1 C 5,6 C 0,6 C 67 % 1040,1 hPa 0,0 l/m 1,1 km/h (1 Bft) SW 214 0 min 0,000 mm 0,0 UV-I 0 W/m -4,3 C 1,1 C 1,6 km/h (1 Bft) 100,00 %
24.02.2019 22:32 1,2 C 5,6 C 0,6 C 66 % 1040,1 hPa 0,0 l/m 0,5 km/h (0 Bft) SW 214 0 min 0,000 mm 0,0 UV-I 0 W/m -4,4 C 1,2 C 1,6 km/h (1 Bft) 97,44 %
24.02.2019 22:34 1,2 C 5,6 C 0,6 C 65 % 1040,0 hPa 0,0 l/m 1,6 km/h (1 Bft) SW 214 0 min 0,000 mm 0,0 UV-I 0 W/m -4,6 C 1,2 C 3,2 km/h (1 Bft) 95,08 %
24.02.2019 22:36 1,2 C 5,6 C 0,6 C 65 % 1040,1 hPa 0,0 l/m 1,7 km/h (1 Bft) SW 214 0 min 0,000 mm 0,0 UV-I 0 W/m -4,6 C 1,2 C 3,2 km/h (1 Bft) 94,87 %
24.02.2019 22:38 1,2 C 5,6 C 0,0 C 65 % 1040,1 hPa 0,0 l/m 1,3 km/h (1 Bft) SW 214 0 min 0,000 mm 0,0 UV-I 0 W/m -4,6 C 1,2 C 1,6 km/h (1 Bft) 96,00 %
24.02.2019 22:40 1,2 C 5,6 C 0,0 C 66 % 1040,0 hPa 0,0 l/m 1,6 km/h (1 Bft) SW 214 0 min 0,000 mm 0,0 UV-I 0 W/m -4,4 C 1,2 C 3,2 km/h (1 Bft) 96,36 %
24.02.2019 22:42 1,2 C 5,6 C 0,0 C 66 % 1040,0 hPa 0,0 l/m 2,3 km/h (1 Bft) SW 214 0 min 0,000 mm 0,0 UV-I 0 W/m -4,4 C 1,2 C 3,2 km/h (1 Bft) 97,87 %
24.02.2019 22:44 1,2 C 5,6 C 0,6 C 65 % 1039,9 hPa 0,0 l/m 3,4 km/h (1 Bft) SW 214 0 min 0,000 mm 0,0 UV-I 0 W/m -4,6 C 1,2 C 4,8 km/h (1 Bft) 95,74 %
24.02.2019 22:46 1,2 C 5,6 C 0,6 C 66 % 1039,9 hPa 0,0 l/m 3,3 km/h (1 Bft) SW 214 0 min 0,000 mm 0,0 UV-I 0 W/m -4,4 C 1,2 C 4,8 km/h (1 Bft) 95,83 %
24.02.2019 22:48 1,1 C 5,6 C 0,6 C 68 % 1039,8 hPa 0,0 l/m 1,5 km/h (1 Bft) SW 214 0 min 0,000 mm 0,0 UV-I 0 W/m -4,1 C 1,1 C 3,2 km/h (1 Bft) 95,74 %
24.02.2019 22:50 1,0 C 5,6 C 0,0 C 68 % 1039,9 hPa 0,0 l/m 0,1 km/h (0 Bft) SW 214 0 min 0,000 mm 0,0 UV-I 0 W/m -4,2 C 1,0 C 1,6 km/h (1 Bft) 97,14 %
24.02.2019 22:52 1,1 C 5,6 C 0,0 C 67 % 1040,0 hPa 0,0 l/m 0,0 km/h (0 Bft) SW 214 0 min 0,000 mm 0,0 UV-I 0 W/m -4,3 C 1,1 C 0,0 km/h (0 Bft) 95,74 %
24.02.2019 22:54 1,1 C 5,6 C 0,0 C 66 % 1040,0 hPa 0,0 l/m 0,0 km/h (0 Bft) SW 214 0 min 0,000 mm 0,0 UV-I 0 W/m -4,5 C 1,1 C 0,0 km/h (0 Bft) 96,00 %
24.02.2019 22:56 1,1 C 5,6 C 0,0 C 67 % 1040,0 hPa 0,0 l/m 0,9 km/h (0 Bft) SW 214 0 min 0,000 mm 0,0 UV-I 0 W/m -4,3 C 1,1 C 1,6 km/h (1 Bft) 96,00 %
24.02.2019 22:58 1,1 C 5,6 C 0,0 C 67 % 1040,1 hPa 0,0 l/m 0,9 km/h (0 Bft) SW 214 0 min 0,000 mm 0,0 UV-I 0 W/m -4,3 C 1,1 C 1,6 km/h (1 Bft) 100,00 %
24.02.2019 23:00 1,1 C 5,6 C 0,0 C 67 % 1040,0 hPa 0,0 l/m 1,2 km/h (1 Bft) SW 214 0 min 0,000 mm 0,0 UV-I 0 W/m -4,3 C 1,1 C 1,6 km/h (1 Bft) 96,77 %
24.02.2019 23:02 1,0 C 5,6 C 0,0 C 71 % 1040,0 hPa 0,0 l/m 0,8 km/h (0 Bft) SW 214 0 min 0,000 mm 0,0 UV-I 0 W/m -3,7 C 1,0 C 1,6 km/h (1 Bft) 97,87 %
24.02.2019 23:04 0,9 C 5,6 C 0,0 C 70 % 1040,1 hPa 0,0 l/m 0,5 km/h (0 Bft) SW 214 0 min 0,000 mm 0,0 UV-I 0 W/m -3,9 C 0,9 C 1,6 km/h (1 Bft) 95,74 %
24.02.2019 23:06 0,9 C 5,6 C 0,0 C 70 % 1040,0 hPa 0,0 l/m 0,0 km/h (0 Bft) SW 214 0 min 0,000 mm 0,0 UV-I 0 W/m -3,9 C 0,9 C 0,0 km/h (0 Bft) 96,00 %
24.02.2019 23:08 0,9 C 5,6 C 0,0 C 69 % 1040,0 hPa 0,0 l/m 0,4 km/h (0 Bft) SW 214 0 min 0,000 mm 0,0 UV-I 0 W/m -4,1 C 0,9 C 1,6 km/h (1 Bft) 98,11 %
24.02.2019 23:10 1,0 C 5,6 C 0,6 C 68 % 1040,0 hPa 0,0 l/m 1,8 km/h (1 Bft) SW 214 0 min 0,000 mm 0,0 UV-I 0 W/m -4,2 C 1,0 C 3,2 km/h (1 Bft) 97,87 %
24.02.2019 23:12 1,1 C 5,6 C 0,6 C 69 % 1040,0 hPa 0,0 l/m 1,1 km/h (1 Bft) SW 214 0 min 0,000 mm 0,0 UV-I 0 W/m -3,9 C 1,1 C 3,2 km/h (1 Bft) 95,12 %
24.02.2019 23:14 1,1 C 5,6 C 0,6 C 68 % 1040,0 hPa 0,0 l/m 0,1 km/h (0 Bft) SW 214 0 min 0,000 mm 0,0 UV-I 0 W/m -4,1 C 1,1 C 1,6 km/h (1 Bft) 95,74 %
24.02.2019 23:16 1,1 C 5,6 C 0,6 C 71 % 1040,0 hPa 0,0 l/m 0,0 km/h (0 Bft) SW 214 0 min 0,000 mm 0,0 UV-I 0 W/m -3,6 C 1,1 C 0,0 km/h (0 Bft) 94,00 %
24.02.2019 23:18 1,0 C 5,6 C 0,6 C 72 % 1040,0 hPa 0,0 l/m 0,0 km/h (0 Bft) SW 214 0 min 0,000 mm 0,0 UV-I 0 W/m -3,5 C 1,0 C 0,0 km/h (0 Bft) 97,44 %
24.02.2019 23:20 1,0 C 5,6 C 0,6 C 70 % 1040,0 hPa 0,0 l/m 0,0 km/h (0 Bft) SW 214 0 min 0,000 mm 0,0 UV-I 0 W/m -3,8 C 1,0 C 0,0 km/h (0 Bft) 93,62 %
24.02.2019 23:22 1,1 C 5,6 C 0,6 C 69 % 1039,8 hPa 0,0 l/m 1,2 km/h (1 Bft) SW 214 0 min 0,000 mm 0,0 UV-I 0 W/m -3,9 C 1,1 C 3,2 km/h (1 Bft) 96,00 %
24.02.2019 23:24 1,1 C 5,6 C 0,6 C 68 % 1039,8 hPa 0,0 l/m 2,6 km/h (1 Bft) SW 214 0 min 0,000 mm 0,0 UV-I 0 W/m -4,1 C 1,1 C 3,2 km/h (1 Bft) 96,00 %
24.02.2019 23:26 1,1 C 5,6 C 0,6 C 69 % 1039,8 hPa 0,0 l/m 2,7 km/h (1 Bft) SW 214 0 min 0,000 mm 0,0 UV-I 0 W/m -3,9 C 1,1 C 3,2 km/h (1 Bft) 92,00 %
24.02.2019 23:28 1,0 C 5,6 C 0,6 C 70 % 1039,7 hPa 0,0 l/m 3,3 km/h (1 Bft) SW 214 0 min 0,000 mm 0,0 UV-I 0 W/m -3,8 C 1,0 C 4,8 km/h (1 Bft) 94,74 %
24.02.2019 23:30 0,9 C 5,6 C 0,6 C 71 % 1039,8 hPa 0,0 l/m 2,8 km/h (1 Bft) SW 214 0 min 0,000 mm 0,0 UV-I 0 W/m -3,7 C 0,9 C 4,8 km/h (1 Bft) 93,62 %
24.02.2019 23:32 0,9 C 5,6 C 0,6 C 72 % 1039,9 hPa 0,0 l/m 2,1 km/h (1 Bft) SW 214 0 min 0,000 mm 0,0 UV-I 0 W/m -3,6 C 0,9 C 3,2 km/h (1 Bft) 95,74 %
24.02.2019 23:34 0,8 C 5,6 C 0,6 C 72 % 1039,9 hPa 0,0 l/m 3,0 km/h (1 Bft) SW 214 0 min 0,000 mm 0,0 UV-I 0 W/m -3,7 C 0,8 C 4,8 km/h (1 Bft) 96,23 %
24.02.2019 23:36 0,8 C 5,6 C 0,6 C 71 % 1039,8 hPa 0,0 l/m 3,4 km/h (1 Bft) SW 214 0 min 0,000 mm 0,0 UV-I 0 W/m -3,8 C 0,8 C 4,8 km/h (1 Bft) 94,00 %
24.02.2019 23:38 0,8 C 5,6 C 0,6 C 73 % 1039,8 hPa 0,0 l/m 4,2 km/h (1 Bft) SW 214 0 min 0,000 mm 0,0 UV-I 0 W/m -3,5 C 0,8 C 4,8 km/h (1 Bft) 96,15 %
24.02.2019 23:40 0,8 C 5,6 C 0,6 C 74 % 1039,7 hPa 0,0 l/m 5,0 km/h (1 Bft) SW 214 0 min 0,000 mm 0,0 UV-I 0 W/m -3,3 C 0,8 C 6,4 km/h (2 Bft) 93,85 %
24.02.2019 23:42 0,8 C 5,6 C 0,6 C 75 % 1039,7 hPa 0,0 l/m 4,1 km/h (1 Bft) SW 214 0 min 0,000 mm 0,0 UV-I 0 W/m -3,1 C 0,8 C 4,8 km/h (1 Bft) 94,74 %
24.02.2019 23:44 0,8 C 5,6 C 0,6 C 72 % 1039,7 hPa 0,0 l/m 4,8 km/h (1 Bft) SW 214 0 min 0,000 mm 0,0 UV-I 0 W/m -3,7 C 0,8 C 6,4 km/h (2 Bft) 93,62 %
24.02.2019 23:46 0,8 C 5,6 C 0,6 C 71 % 1039,6 hPa 0,0 l/m 3,8 km/h (1 Bft) SW 214 0 min 0,000 mm 0,0 UV-I 0 W/m -3,8 C 0,8 C 4,8 km/h (1 Bft) 92,00 %
24.02.2019 23:48 0,9 C 5,6 C 0,6 C 70 % 1039,6 hPa 0,0 l/m 5,3 km/h (1 Bft) SW 225 0 min 0,000 mm 0,0 UV-I 0 W/m -3,9 C 0,9 C 6,4 km/h (2 Bft) 93,62 %
24.02.2019 23:50 1,0 C 5,6 C 0,6 C 69 % 1039,6 hPa 0,0 l/m 4,8 km/h (1 Bft) SW 227 0 min 0,000 mm 0,0 UV-I 0 W/m -4,0 C 1,0 C 6,4 km/h (2 Bft) 94,00 %
24.02.2019 23:52 1,1 C 5,6 C 0,6 C 68 % 1039,5 hPa 0,0 l/m 4,8 km/h (1 Bft) SW 229 0 min 0,000 mm 0,0 UV-I 0 W/m -4,1 C 1,1 C 6,4 km/h (2 Bft) 87,80 %
24.02.2019 23:54 1,1 C 5,6 C 0,6 C 67 % 1039,5 hPa 0,0 l/m 4,2 km/h (1 Bft) W-SW 238 0 min 0,000 mm 0,0 UV-I 0 W/m -4,3 C 1,1 C 4,8 km/h (1 Bft) 94,00 %
24.02.2019 23:56 1,1 C 5,6 C 0,6 C 69 % 1039,5 hPa 0,0 l/m 3,6 km/h (1 Bft) W-SW 238 0 min 0,000 mm 0,0 UV-I 0 W/m -3,9 C 1,1 C 4,8 km/h (1 Bft) 95,83 %
24.02.2019 23:58 1,0 C 5,6 C 0,6 C 70 % 1039,5 hPa 0,0 l/m 4,3 km/h (1 Bft) SW 219 0 min 0,000 mm 0,0 UV-I 0 W/m -3,8 C 1,0 C 6,4 km/h (2 Bft) 97,87 %
_ Min-Zeit 07:12 00:00 06:50 13:54 15:36 - 07:00 - - - - - - 13:54 09:20 07:00 13:12
Minimum _ -5,9 C 5,6 C -9,4 C 38 % 1038,7 hPa - 0,0 km/h (0 Bft) - - - - - - -9,7 C -10,8 C 0,0 km/h (0 Bft) 46,00 %
_ Max-Zeit 13:26 00:00 10:58 07:14 11:14 00:00 09:20 - - 10:09 11:00 10:54 10:58 23:42 13:22 09:14 00:14
Maximum _ 3,5 C 5,6 C 15,6 C 84 % 1040,6 hPa 0,0 l/m 16,2 km/h
N-NO (3 Bft)
- - 3 min 0,152 mm 1,5 UV-I 689 W/m -3,1 C 3,4 C 20,9 km/h
N (4 Bft)
100,00 %
Durchschnitt _ -0,5 C 5,6 C -0,1 C 63 % 1039,8 hPa #0,0 l/m 4,1 km/h (1 Bft) O-NO - #3:43 h #0,914 mm 1,0 UV-I 175 W/m -6,9 C -0,8 C 6,5 km/h (2 Bft) 95,78 %